LiveATC.Net - Listen to live air traffic control over the Internet!
Airport/ARTCC Code
Frequency Search
(e.g., 124.400, 128.75)
Site-wide search
 


Browse Feeds
Top 50 Feeds
Coverage Map
Bad Weather Areas

LiveATC FAQ
Offer LiveATC feed
Contact LiveATC.net
Press Inquiries

LiveATC on iPhone
LiveATC on Android

Windows Phone
Windows 8/10

LiveATC Mobile
(Mobile browser)

ATC Audio Archives
Interesting Recordings

LiveATC Forums

Home Page
About LiveATC.net
Make a Donation
Terms of Use
Privacy Policy

Canadian Air Freqs

AIRMETs/SIGMETs

FAA Airport Status
Nat'l Airspace Status
Arrival Demand Charts


Server Software By:
Icecast.org
Liquidsoap

Select an area of interest:
U.S. Feeds: Class B Airports | Class C Airports | Class D/Other Airports | ARTCC (Centers)
International Feeds: Canada | Europe | Oceania | Asia | South America | North/Central America | Africa
Misc Feeds: HF Feeds
Search by ICAO/IATA airport code:   (e.g., kbos, kjfk, lax, eham, etc.)


Currently Available Live Feeds: 2558
Status Updated: Thu Jun 04 2020 01:24:21 UTC


NOTICE

Unauthorized use prohibited. See LiveATC.net Terms of Service

U.S. Class D Airport and ARTCCC Feeds

 

KUES Del/Gnd/Twr/02C (Archives)
Brookfield, Wisconsin, United States

Feed Status: UP
Listen in your browser - HTML5 player(in browser, HTML5)
Click here to listen with your own player(launches your MP3 player)

KUES 040045Z 00000KT 10SM SKC 24/12 A2978

KUES Airport Info (Airnav.com)

KUES Flight Activity (Flightaware)

Listeners: 0 out of 914 total

Capitol CTAF: 122.700
Waukesha Clearance Delivery: 128.700
Waukesha Ground: 121.600
Waukesha Tower: 123.700

06C CTAF
Chicago/Schaumburg, Illinois, United States

Feed Status: DOWN
Offline since: 2020-04-05 01:06:39 UTC

K06C 040055Z AUTO 00000KT 10SM BKN065 25/18 A2977 RMK AO2 T02540184

K06C Airport Info (Airnav.com)

Schaumburg CTAF: 123.000

14A CTAF (Archives)
Mooresville, North Carolina, United States

Feed Status: UP
Listen in your browser - HTML5 player(in browser, HTML5)
Click here to listen with your own player(launches your MP3 player)


Listeners: 1 out of 914 total

Lake Norman CTAF: 122.800

17FL CTAF
Ocala, Florida, United States

Feed Status: DOWN
Offline since: 2020-05-27 09:36:22 UTC

17FL Airport Info (Airnav.com)

Jumbolair-Greystone 17FL CTAF/UNICOM: 122.700

SNJ Area CTAF 122.8 (Archives)
Cross Keys, New Jersey, United States

Feed Status: UP
Listen in your browser - HTML5 player(in browser, HTML5)
Click here to listen with your own player(launches your MP3 player)

KPNE 040054Z AUTO 23007G18KT 3SM -TSRA FEW018 BKN065 BKN080 24/18 A2969 RMK AO2 LTG DSNT S AND SW RAE05B41 TSB2359E14B41 SLP051 P0015 T02440183

KPNE Airport Info (Airnav.com)

KPNE Flight Activity (Flightaware)

Listeners: 0 out of 914 total

CTAF: 122.800

1B1 CTAF
Hudson, New York, United States

Feed Status: DOWN
Offline since: 2019-07-21 23:53:05 UTC

Columbia County CTAF: 123.050

1B1 Emergency/Guard
Hudson, New York, United States

Feed Status: DOWN
Offline since: 2019-07-21 23:53:05 UTC

Emergency/Guard: 121.500

MA/NH/RI/CT Area CTAF (Archives)
Hopedale, Massachusetts, United States

Feed Status: UP
Listen in your browser - HTML5 player(in browser, HTML5)
Click here to listen with your own player(launches your MP3 player)

KBOS 040054Z 31010KT 10SM FEW008 SCT045 BKN065 BKN200 23/16 A2959 RMK AO2 SLP019 SHRA NE-E T02280156

KBOS Airport Info (Airnav.com)

KBOS Flight Activity (Flightaware)

Listeners: 0 out of 914 total

Air-to-Air: 122.750
Bridgeport Flight Service: 122.200
CTAF: 122.700
CTAF: 122.800
CTAF: 122.900
CTAF: 123.000
Emergency/Guard: 121.500

MA/NH/RI/CT Area CTAF (Archives)
Hopedale, Massachusetts, United States

Feed Status: UP
Listen in your browser - HTML5 player(in browser, HTML5)
Click here to listen with your own player(launches your MP3 player)

KBOS 040054Z 31010KT 10SM FEW008 SCT045 BKN065 BKN200 23/16 A2959 RMK AO2 SLP019 SHRA NE-E T02280156

KBOS Airport Info (Airnav.com)

KBOS Flight Activity (Flightaware)

Listeners: 0 out of 914 total

Air-to-Air: 122.750
Bridgeport Flight Service: 122.200
CTAF: 122.700
CTAF: 122.800
CTAF: 122.900
CTAF: 123.000
Emergency/Guard: 121.500

MA/NH/RI/CT Area CTAF (Archives)
Hopedale, Massachusetts, United States

Feed Status: UP
Listen in your browser - HTML5 player(in browser, HTML5)
Click here to listen with your own player(launches your MP3 player)

KBOS 040054Z 31010KT 10SM FEW008 SCT045 BKN065 BKN200 23/16 A2959 RMK AO2 SLP019 SHRA NE-E T02280156

KBOS Airport Info (Airnav.com)

KBOS Flight Activity (Flightaware)

Listeners: 0 out of 914 total

Air-to-Air: 122.750
Bridgeport Flight Service: 122.200
CTAF: 122.700
CTAF: 122.800
CTAF: 122.900
CTAF: 123.000
Emergency/Guard: 121.500

1B9 Area Guard (Archives)
Mansfield, Massachusetts, United States

Feed Status: UP
Listen in your browser - HTML5 player(in browser, HTML5)
Click here to listen with your own player(launches your MP3 player)


Listeners: 0 out of 914 total

Emergency/Guard: 121.500

1B9 CTAF #1 (Archives)
Mansfield, Massachusetts, United States

Feed Status: UP
Listen in your browser - HTML5 player(in browser, HTML5)
Click here to listen with your own player(launches your MP3 player)


Listeners: 0 out of 914 total

Mansfield CTAF/UNICOM: 123.000

1B9 CTAF #2 (Archives)
Mansfield, Massachusetts, United States

Feed Status: UP
Listen in your browser - HTML5 player(in browser, HTML5)
Click here to listen with your own player(launches your MP3 player)


Listeners: 0 out of 914 total

Mansfield CTAF/UNICOM: 123.000

1B9 CTAF/RCO (Archives)
Mansfield, Massachusetts, United States

Feed Status: UP
Listen in your browser - HTML5 player(in browser, HTML5)
Click here to listen with your own player(launches your MP3 player)


Listeners: 0 out of 914 total

Bridgeport FSS (RCO): 122.500
Mansfield CTAF/UNICOM: 123.000

1B9 Del/RCO #1 (Archives)
Mansfield, Massachusetts, United States

Feed Status: UP
Listen in your browser - HTML5 player(in browser, HTML5)
Click here to listen with your own player(launches your MP3 player)


Listeners: 0 out of 914 total

Mansfield Clearance Delivery (RCO): 122.500

1B9 Del/RCO #2 (Archives)
Mansfield, Massachusetts, United States

Feed Status: UP
Listen in your browser - HTML5 player(in browser, HTML5)
Click here to listen with your own player(launches your MP3 player)


Listeners: 0 out of 914 total

Mansfield Clearance Delivery (RCO): 122.500

1C9 CTAF
Hollister, California, United States

Feed Status: DOWN
Offline since: 2020-05-29 00:58:05 UTC

K1C9 Airport Info (Airnav.com)

Frazier CTAF: 123.050

1G3 CTAF (Archives)
Kent, Ohio, United States

Feed Status: UP
Listen in your browser - HTML5 player(in browser, HTML5)
Click here to listen with your own player(launches your MP3 player)

K1G3 Airport Info (Airnav.com)

K1G3 Flight Activity (Flightaware)

Listeners: 0 out of 914 total

Kent CTAF: 122.725

KGBR/20N CTAF
Kingston, New York, United States

Feed Status: DOWN
Offline since: 2019-07-21 23:53:05 UTC

KGBR Airport Info (Airnav.com)

Great Barrington CTAF: 122.800

MA/NH/RI/CT Area CTAF (Archives)
Newburyport, Massachusetts, United States

Feed Status: UP
Listen in your browser - HTML5 player(in browser, HTML5)
Click here to listen with your own player(launches your MP3 player)

KBOS 040054Z 31010KT 10SM FEW008 SCT045 BKN065 BKN200 23/16 A2959 RMK AO2 SLP019 SHRA NE-E T02280156

KBOS Airport Info (Airnav.com)

KBOS Flight Activity (Flightaware)

Listeners: 0 out of 914 total

Air-to-Air: 122.750
Bridgeport Flight Service: 122.200
CTAF: 122.700
CTAF: 122.800
CTAF: 122.900
CTAF: 123.000
Emergency/Guard: 121.500

MA/NH/RI/CT Area CTAF (Archives)
Newburyport, Massachusetts, United States

Feed Status: UP
Listen in your browser - HTML5 player(in browser, HTML5)
Click here to listen with your own player(launches your MP3 player)

KBOS 040054Z 31010KT 10SM FEW008 SCT045 BKN065 BKN200 23/16 A2959 RMK AO2 SLP019 SHRA NE-E T02280156

KBOS Airport Info (Airnav.com)

KBOS Flight Activity (Flightaware)

Listeners: 0 out of 914 total

Air-to-Air: 122.750
Bridgeport Flight Service: 122.200
CTAF: 122.700
CTAF: 122.800
CTAF: 122.900
CTAF: 123.000
Emergency/Guard: 121.500

MA/NH/RI/CT Area CTAF (Archives)
Newburyport, Massachusetts, United States

Feed Status: UP
Listen in your browser - HTML5 player(in browser, HTML5)
Click here to listen with your own player(launches your MP3 player)

KBOS 040054Z 31010KT 10SM FEW008 SCT045 BKN065 BKN200 23/16 A2959 RMK AO2 SLP019 SHRA NE-E T02280156

KBOS Airport Info (Airnav.com)

KBOS Flight Activity (Flightaware)

Listeners: 0 out of 914 total

Air-to-Air: 122.750
Bridgeport Flight Service: 122.200
CTAF: 122.700
CTAF: 122.800
CTAF: 122.900
CTAF: 123.000
Emergency/Guard: 121.500

2GC CTAF (Archives)
Fayetteville, North Carolina, United States

Feed Status: UP
Listen in your browser - HTML5 player(in browser, HTML5)
Click here to listen with your own player(launches your MP3 player)

KFAY 040053Z 20009KT 10SM CLR 27/20 A2990 RMK AO2 SLP120 T02720200

KFAY Airport Info (Airnav.com)

KFAY Flight Activity (Flightaware)

Listeners: 0 out of 914 total

Grays Creek CTAF: 122.900

2O3 CTAF (Archives)
Angwin, California, United States

Feed Status: UP
Listen in your browser - HTML5 player(in browser, HTML5)
Click here to listen with your own player(launches your MP3 player)


Listeners: 0 out of 914 total

Angwin CTAF: 123.000

KJWY/2TS6 CTAF/Unicom (Archives)
Midlothian, Texas, United States

Feed Status: UP
Listen in your browser - HTML5 player(in browser, HTML5)
Click here to listen with your own player(launches your MP3 player)

KJWY 040055Z AUTO 16004KT 10SM CLR 31/19 A2988 RMK AO2 T03080190

KJWY Airport Info (Airnav.com)

KJWY Flight Activity (Flightaware)

Listeners: 0 out of 914 total

Mid-Way CTAF/UNICOM: 122.975

39N CTAF (Archives)
Princeton/Rocky Hill, New Jersey, United States

Feed Status: UP
Listen in your browser - HTML5 player(in browser, HTML5)
Click here to listen with your own player(launches your MP3 player)


Listeners: 0 out of 914 total

Princeton CTAF: 122.725

3CK/KBUU CTAF (Archives)
Chicago/Lake In The Hills, Illinois, United States

Feed Status: UP
Listen in your browser - HTML5 player(in browser, HTML5)
Click here to listen with your own player(launches your MP3 player)

K3CK Airport Info (Airnav.com)

K3CK Flight Activity (Flightaware)

Listeners: 1 out of 914 total

Lake in the Hills CTAF: 123.050

KLXT/3GV CTAF (Archives)
Grain Valley, Missouri, United States

Feed Status: UP
Listen in your browser - HTML5 player(in browser, HTML5)
Click here to listen with your own player(launches your MP3 player)

KOJC 040053Z 19005KT 10SM FEW060 29/22 A2978 RMK AO2 SLP071 T02940222

KOJC Airport Info (Airnav.com)

KOJC Flight Activity (Flightaware)

Listeners: 0 out of 914 total

Lee's Summit/Grain Valley CTAF: 122.800

3M5 CTAF (Archives)
Huntsville, Alabama, United States

Feed Status: UP
Listen in your browser - HTML5 player(in browser, HTML5)
Click here to listen with your own player(launches your MP3 player)


Listeners: 0 out of 914 total

Moontown CTAF: 122.700

KBLM/N12/3N6/KMJX (Archives)
Old Bridge, New Jersey, United States

Feed Status: UP
Listen in your browser - HTML5 player(in browser, HTML5)
Click here to listen with your own player(launches your MP3 player)

KBLM 040056Z AUTO 18005KT 10SM FEW050 SCT065 SCT080 23/23 A2969 RMK AO2 RAB00E45 SLP054 P0001 T02280228

KBLM Airport Info (Airnav.com)

KBLM Flight Activity (Flightaware)

Listeners: 0 out of 914 total

3N6 Old Bridge CTAF: 123.075
Emergency/Guard: 121.500
Monmouth Clearance: 120.950
Monmouth Clearance: 126.150
Monmouth CTAF: 123.000
N12 Lakewood CTAF: 122.800
Ocean County KMJX CTAF: 122.700

3R9 CTAF (Archives)
Lakeway, Texas, United States

Feed Status: UP
Listen in your browser - HTML5 player(in browser, HTML5)
Click here to listen with your own player(launches your MP3 player)


Listeners: 1 out of 914 total

Lakeway CTAF: 123.000

3S8 CTAF (Archives)
Grants Pass, Oregon, United States

Feed Status: UP
Listen in your browser - HTML5 player(in browser, HTML5)
Click here to listen with your own player(launches your MP3 player)


Listeners: 0 out of 914 total

Grants Pass CTAF: 122.800

44N/KMGJ CTAF (Archives)
Millbrook, New York, United States

Feed Status: UP
Listen in your browser - HTML5 player(in browser, HTML5)
Click here to listen with your own player(launches your MP3 player)


Listeners: 0 out of 914 total

44N Sky Acres CTAF: 122.800
CTAF 122.700: 122.700
CTAF 122.9: 122.900
KMGJ Orange County Clearance: 123.850
KMGJ Orange County CTAF: 122.725

47N CTAF (Archives)
Manville, New Jersey, United States

Feed Status: UP
Listen in your browser - HTML5 player(in browser, HTML5)
Click here to listen with your own player(launches your MP3 player)


Listeners: 0 out of 914 total

Central Jersey CTAF: 122.700

NY1/4B0 CTAF
South Bethlehem, New York, United States

Feed Status: DOWN
Offline since: 2019-07-21 23:53:05 UTC

Kline Kill CTAF: 122.900

4S1 CTAF (Archives)
Gold Beach, Oregon, United States

Feed Status: UP
Listen in your browser - HTML5 player(in browser, HTML5)
Click here to listen with your own player(launches your MP3 player)

K4S1 Airport Info (Airnav.com)

K4S1 Flight Activity (Flightaware)

Listeners: 0 out of 914 total

Gold Beach CTAF: 122.800

51FL/KCDK/KCTY/X60 CTAF (Archives)
Chiefland, Florida, United States

Feed Status: UP
Listen in your browser - HTML5 player(in browser, HTML5)
Click here to listen with your own player(launches your MP3 player)


Listeners: 0 out of 914 total

Cedar Key CTAF: 122.900
Cross City CTAF: 122.800
Emergency/Guard: 121.500
Jacksonville Approach/Departure: 118.600
Jacksonville Center: 127.800
Williston CTAF: 122.975

KMTC Area CTAF (Archives)
Ray, Michigan, United States

Feed Status: UP
Listen in your browser - HTML5 player(in browser, HTML5)
Click here to listen with your own player(launches your MP3 player)

KMTC 040055Z 25004KT 10SM FEW080 SCT190 BKN230 25/15 A2973 RMK AO2A SLP068 T02540145 $

KMTC Airport Info (Airnav.com)

KMTC Flight Activity (Flightaware)

Listeners: 0 out of 914 total

Air to Air: 123.450
Marine City CTAF (76G): 123.000
Port Huron CTAF: 123.050
Ray CTAF: 122.700
Romeo CTAF: 122.800
St Clair CTAF: 122.800
Troy CTAF: 123.050

5A2 Area Emergency/Guard (Archives)
Warner Robins, Georgia, United States

Feed Status: UP
Listen in your browser - HTML5 player(in browser, HTML5)
Click here to listen with your own player(launches your MP3 player)


Listeners: 0 out of 914 total

Emergency/Guard: 121.500

5A2/5GE1 CTAF (Archives)
Warner Robins, Georgia, United States

Feed Status: UP
Listen in your browser - HTML5 player(in browser, HTML5)
Click here to listen with your own player(launches your MP3 player)


Listeners: 0 out of 914 total

Warner Robins/Peachtree Landings CTAF: 122.900

5C1 CTAF (Archives)
San Antonio, Texas, United States

Feed Status: UP
Listen in your browser - HTML5 player(in browser, HTML5)
Click here to listen with your own player(launches your MP3 player)

K5C1 040055Z AUTO 16006KT 10SM SCT050 28/20 A2993 RMK AO1

K5C1 Airport Info (Airnav.com)

K5C1 Flight Activity (Flightaware)

Listeners: 0 out of 914 total

Boerne Stage CTAF: 123.000

5A2/5GE1 CTAF (Archives)
Fort Valley, Georgia, United States

Feed Status: UP
Listen in your browser - HTML5 player(in browser, HTML5)
Click here to listen with your own player(launches your MP3 player)


Listeners: 0 out of 914 total

Warner Robins/Peachtree Landings CTAF: 122.900

KMTC Area CTAF (Archives)
St Clair, Michigan, United States

Feed Status: UP
Listen in your browser - HTML5 player(in browser, HTML5)
Click here to listen with your own player(launches your MP3 player)

KMTC 040055Z 25004KT 10SM FEW080 SCT190 BKN230 25/15 A2973 RMK AO2A SLP068 T02540145 $

KMTC Airport Info (Airnav.com)

KMTC Flight Activity (Flightaware)

Listeners: 0 out of 914 total

Air to Air: 123.450
Marine City CTAF (76G): 123.000
Port Huron CTAF: 123.050
Ray CTAF: 122.700
Romeo CTAF: 122.800
St Clair CTAF: 122.800
Troy CTAF: 123.050

64FA CTAF (Archives)
Palm City, Florida, United States

Feed Status: UP
Listen in your browser - HTML5 player(in browser, HTML5)
Click here to listen with your own player(launches your MP3 player)


Listeners: 0 out of 914 total

Naked Lady Ranch CTAF: 122.900

MA/NH/RI/CT Area CTAF (Archives)
Stow, Massachusetts, United States

Feed Status: UP
Listen in your browser - HTML5 player(in browser, HTML5)
Click here to listen with your own player(launches your MP3 player)

KBOS 040054Z 31010KT 10SM FEW008 SCT045 BKN065 BKN200 23/16 A2959 RMK AO2 SLP019 SHRA NE-E T02280156

KBOS Airport Info (Airnav.com)

KBOS Flight Activity (Flightaware)

Listeners: 0 out of 914 total

Air-to-Air: 122.750
Bridgeport Flight Service: 122.200
CTAF: 122.700
CTAF: 122.800
CTAF: 122.900
CTAF: 123.000
Emergency/Guard: 121.500

MA/NH/RI/CT Area CTAF (Archives)
Stow, Massachusetts, United States

Feed Status: UP
Listen in your browser - HTML5 player(in browser, HTML5)
Click here to listen with your own player(launches your MP3 player)

KBOS 040054Z 31010KT 10SM FEW008 SCT045 BKN065 BKN200 23/16 A2959 RMK AO2 SLP019 SHRA NE-E T02280156

KBOS Airport Info (Airnav.com)

KBOS Flight Activity (Flightaware)

Listeners: 0 out of 914 total

Air-to-Air: 122.750
Bridgeport Flight Service: 122.200
CTAF: 122.700
CTAF: 122.800
CTAF: 122.900
CTAF: 123.000
Emergency/Guard: 121.500

MA/NH/RI/CT Area CTAF (Archives)
Stow, Massachusetts, United States

Feed Status: UP
Listen in your browser - HTML5 player(in browser, HTML5)
Click here to listen with your own player(launches your MP3 player)

KBOS 040054Z 31010KT 10SM FEW008 SCT045 BKN065 BKN200 23/16 A2959 RMK AO2 SLP019 SHRA NE-E T02280156

KBOS Airport Info (Airnav.com)

KBOS Flight Activity (Flightaware)

Listeners: 0 out of 914 total

Air-to-Air: 122.750
Bridgeport Flight Service: 122.200
CTAF: 122.700
CTAF: 122.800
CTAF: 122.900
CTAF: 123.000
Emergency/Guard: 121.500

6K5 CTAF
Sisters, Oregon, United States

Feed Status: DOWN
Offline since: 2020-05-22 15:01:39 UTC

K6K5 Airport Info (Airnav.com)

Sisters CTAF: 122.900

KMTC Area CTAF (Archives)
Marine City, Michigan, United States

Feed Status: UP
Listen in your browser - HTML5 player(in browser, HTML5)
Click here to listen with your own player(launches your MP3 player)

KMTC 040055Z 25004KT 10SM FEW080 SCT190 BKN230 25/15 A2973 RMK AO2A SLP068 T02540145 $

KMTC Airport Info (Airnav.com)

KMTC Flight Activity (Flightaware)

Listeners: 0 out of 914 total

Air to Air: 123.450
Marine City CTAF (76G): 123.000
Port Huron CTAF: 123.050
Ray CTAF: 122.700
Romeo CTAF: 122.800
St Clair CTAF: 122.800
Troy CTAF: 123.050

77S CTAF (Archives)
Creswell, Oregon, United States

Feed Status: UP
Listen in your browser - HTML5 player(in browser, HTML5)
Click here to listen with your own player(launches your MP3 player)


Listeners: 0 out of 914 total

Creswell CTAF: 122.700

7B2 CTAF (Archives)
Northampton, Massachusetts, United States

Feed Status: UP
Listen in your browser - HTML5 player(in browser, HTML5)
Click here to listen with your own player(launches your MP3 player)


Listeners: 0 out of 914 total

Northampton CTAF: 122.700

7FL6 CTAF (Archives)
Daytona Beach, Florida, United States

Feed Status: UP
Listen in your browser - HTML5 player(in browser, HTML5)
Click here to listen with your own player(launches your MP3 player)


Listeners: 0 out of 914 total

Spruce Creek CTAF/UNICOM: 122.725

KMTC Area CTAF (Archives)
Romeo, Michigan, United States

Feed Status: UP
Listen in your browser - HTML5 player(in browser, HTML5)
Click here to listen with your own player(launches your MP3 player)

KMTC 040055Z 25004KT 10SM FEW080 SCT190 BKN230 25/15 A2973 RMK AO2A SLP068 T02540145 $

KMTC Airport Info (Airnav.com)

KMTC Flight Activity (Flightaware)

Listeners: 0 out of 914 total

Air to Air: 123.450
Marine City CTAF (76G): 123.000
Port Huron CTAF: 123.050
Ray CTAF: 122.700
Romeo CTAF: 122.800
St Clair CTAF: 122.800
Troy CTAF: 123.050

KGIF/F57 CTAF (Archives)
Winter Haven, Florida, United States

Feed Status: UP
Listen in your browser - HTML5 player(in browser, HTML5)
Click here to listen with your own player(launches your MP3 player)

KGIF 040053Z AUTO 00000KT 10SM -RA SCT120 24/23 A3001 RMK AO2 SLP160 P0001 T02440228

KGIF Airport Info (Airnav.com)

KGIF Flight Activity (Flightaware)

Listeners: 0 out of 914 total

Winter Haven CTAF: 123.050

F70 CTAF (Archives)
Murrieta/Temecula, California, United States

Feed Status: UP
Listen in your browser - HTML5 player(in browser, HTML5)
Click here to listen with your own player(launches your MP3 player)

KF70 040055Z AUTO 19010G14KT 10SM CLR 29/14 A2985 RMK AO1

KF70 Airport Info (Airnav.com)

KF70 Flight Activity (Flightaware)

Listeners: 0 out of 914 total

French Valley CTAF: 122.800

FA40 CTAF (Archives)
New Port Richey, Florida, United States

Feed Status: UP
Listen in your browser - HTML5 player(in browser, HTML5)
Click here to listen with your own player(launches your MP3 player)


Listeners: 0 out of 914 total

Hidden Lake CTAF: 123.000

I35 CTAF/ZID (Archives)
Harlan, Kentucky, United States

Feed Status: UP
Listen in your browser - HTML5 player(in browser, HTML5)
Click here to listen with your own player(launches your MP3 player)

KI35 040055Z AUTO 00000KT 10SM CLR 24/19 A2993 RMK AO2 T02390187

KI35 Airport Info (Airnav.com)

KI35 Flight Activity (Flightaware)

Listeners: 0 out of 914 total

Harlan CTAF: 122.800
Indy Center (Sector 21 London Low): 121.325
Indy Center (Sector 21 London Low): 124.625
Indy Center (Sector 25 AZQ Low): 126.575

I40 AWOS (Archives)
Coshocton, Ohio, United States

Feed Status: UP
Listen in your browser - HTML5 player(in browser, HTML5)
Click here to listen with your own player(launches your MP3 player)


Listeners: 0 out of 914 total

Coshocton AWOS: 118.875

I40 CTAF (Archives)
Coshocton, Ohio, United States

Feed Status: UP
Listen in your browser - HTML5 player(in browser, HTML5)
Click here to listen with your own player(launches your MP3 player)


Listeners: 0 out of 914 total

Coshocton CTAF: 123.000

K1H0 CTAF/Unicom (Archives)
St. Louis, Missouri, United States

Feed Status: UP
Listen in your browser - HTML5 player(in browser, HTML5)
Click here to listen with your own player(launches your MP3 player)

K1H0 Airport Info (Airnav.com)

K1H0 Flight Activity (Flightaware)

Listeners: 1 out of 914 total

Creve Coeur CTAF: 122.800

KIXD Ground/Tower/K34 (Archives)
Gardner, Kansas, United States

Feed Status: UP
Listen in your browser - HTML5 player(in browser, HTML5)
Click here to listen with your own player(launches your MP3 player)

KIXD 040053Z 20007KT 10SM FEW001 SCT055 31/21 A2978 RMK AO2 SLP071 T03110211

KIXD Airport Info (Airnav.com)

KIXD Flight Activity (Flightaware)

Listeners: 0 out of 914 total

K34 CTAF: 122.800
New Century Ground: 124.300
New Century Tower: 133.000

KACK App/Dep (Archives)
Nantucket, Massachusetts, United States

Feed Status: UP
Listen in your browser - HTML5 player(in browser, HTML5)
Click here to listen with your own player(launches your MP3 player)

KACK 040053Z AUTO 24011KT 6SM BR SCT007 BKN090 16/14 A2963 RMK AO2 SLP034 T01560144

KACK Airport Info (Airnav.com)

KACK Flight Activity (Flightaware)

Listeners: 0 out of 914 total

Cape Approach (Nantucket Sector): 126.100

KACK ATIS (Archives)
Nantucket, Massachusetts, United States

Feed Status: UP
Listen in your browser - HTML5 player(in browser, HTML5)
Click here to listen with your own player(launches your MP3 player)

KACK 040053Z AUTO 24011KT 6SM BR SCT007 BKN090 16/14 A2963 RMK AO2 SLP034 T01560144

KACK Airport Info (Airnav.com)

KACK Flight Activity (Flightaware)

Listeners: 0 out of 914 total

Nantucket ATIS: 127.500

KACK Ground (Archives)
Nantucket, Massachusetts, United States

Feed Status: UP
Listen in your browser - HTML5 player(in browser, HTML5)
Click here to listen with your own player(launches your MP3 player)

KACK 040053Z AUTO 24011KT 6SM BR SCT007 BKN090 16/14 A2963 RMK AO2 SLP034 T01560144

KACK Airport Info (Airnav.com)

KACK Flight Activity (Flightaware)

Listeners: 0 out of 914 total

Nantucket Clearance Delivery: 119.375
Nantucket Ground: 132.500

KACK Tower (Archives)
Nantucket, Massachusetts, United States

Feed Status: UP
Listen in your browser - HTML5 player(in browser, HTML5)
Click here to listen with your own player(launches your MP3 player)

KACK 040053Z AUTO 24011KT 6SM BR SCT007 BKN090 16/14 A2963 RMK AO2 SLP034 T01560144

KACK Airport Info (Airnav.com)

KACK Flight Activity (Flightaware)

Listeners: 0 out of 914 total

Nantucket Tower: 118.300

KADS ATIS (Archives)
Dallas, Texas, United States

Feed Status: UP
Listen in your browser - HTML5 player(in browser, HTML5)
Click here to listen with your own player(launches your MP3 player)

KADS 040053Z 18006KT 10SM SKC 32/16 A2986

KADS Airport Info (Airnav.com)

KADS Flight Activity (Flightaware)

Listeners: 1 out of 914 total

Addison ATIS: 133.400
Addison ATIS/AWOS: 133.400

KADS Ground (Archives)
Dallas, Texas, United States

Feed Status: UP
Listen in your browser - HTML5 player(in browser, HTML5)
Click here to listen with your own player(launches your MP3 player)

KADS 040053Z 18006KT 10SM SKC 32/16 A2986

KADS Airport Info (Airnav.com)

KADS Flight Activity (Flightaware)

Listeners: 1 out of 914 total

Addison Ground: 121.600

KADS Tower (Archives)
Dallas, Texas, United States

Feed Status: UP
Listen in your browser - HTML5 player(in browser, HTML5)
Click here to listen with your own player(launches your MP3 player)

KADS 040053Z 18006KT 10SM SKC 32/16 A2986

KADS Airport Info (Airnav.com)

KADS Flight Activity (Flightaware)

Listeners: 7 out of 914 total

Addison Tower: 126.000

KDAA/KADW Tower (Archives)
Camp Springs, Maryland, United States

Feed Status: UP
Listen in your browser - HTML5 player(in browser, HTML5)
Click here to listen with your own player(launches your MP3 player)

KDAA 040056Z AUTO 00000KT 10SM CLR 25/20 A2972 RMK AO2 SLP066 T02510199 TSNO $

KDAA Airport Info (Airnav.com)

KDAA Flight Activity (Flightaware)

Listeners: 1 out of 914 total

Andrews Tower: 118.400
Andrews Tower: 349.000
Davison Tower: 241.000
Davison Tower: 126.300
Davison Tower: 229.400

KAEG Twr/App (Archives)
Albuquerque, New Mexico, United States

Feed Status: UP
Listen in your browser - HTML5 player(in browser, HTML5)
Click here to listen with your own player(launches your MP3 player)

KABQ 040052Z 00000KT 10SM SCT100 BKN200 32/00 A3002 RMK AO2 LTG DSNT SW SLP076 CB DSNT SW-W SHRA DSNT SW T03220000

KABQ Airport Info (Airnav.com)

KABQ Flight Activity (Flightaware)

Listeners: 0 out of 914 total

Double Eagle II Ground: 121.625
Double Eagle II Tower: 120.150
Double Eagle II Tower Clearance: 124.800

KAFW Regional App (North) (Archives)
Fort Worth, Texas, United States

Feed Status: UP
Listen in your browser - HTML5 player(in browser, HTML5)
Click here to listen with your own player(launches your MP3 player)

KAFW 040053Z 16011KT 10SM FEW250 31/19 A2984 RMK AO2 SLP090 T03110189

KAFW Airport Info (Airnav.com)

KAFW Flight Activity (Flightaware)

Listeners: 0 out of 914 total

Regional Approach (North): 118.100

KAFW Tower/Heli (Archives)
Fort Worth, Texas, United States

Feed Status: UP
Listen in your browser - HTML5 player(in browser, HTML5)
Click here to listen with your own player(launches your MP3 player)

KAFW 040053Z 16011KT 10SM FEW250 31/19 A2984 RMK AO2 SLP090 T03110189

KAFW Airport Info (Airnav.com)

KAFW Flight Activity (Flightaware)

Listeners: 0 out of 914 total

Alliance Tower: 135.150
Alliance Tower (Helicopters): 120.850

KAFW Tower/Heli/App (Archives)
Fort Worth, Texas, United States

Feed Status: UP
Listen in your browser - HTML5 player(in browser, HTML5)
Click here to listen with your own player(launches your MP3 player)

KAFW 040053Z 16011KT 10SM FEW250 31/19 A2984 RMK AO2 SLP090 T03110189

KAFW Airport Info (Airnav.com)

KAFW Flight Activity (Flightaware)

Listeners: 0 out of 914 total

Alliance Tower: 135.150
Alliance Tower (Helicopters): 120.850
Regional Approach (North): 118.100

KAHN Tower (Archives)
Athens, Georgia, United States

Feed Status: UP
Listen in your browser - HTML5 player(in browser, HTML5)
Click here to listen with your own player(launches your MP3 player)

KAHN 040051Z AUTO 00000KT 10SM CLR 26/20 A2996 RMK AO2 SLP137 T02610200

KAHN Airport Info (Airnav.com)

KAHN Flight Activity (Flightaware)

Listeners: 0 out of 914 total

Athens Tower: 126.300

KAMW CTAF (Archives)
Ames, Iowa, United States

Feed Status: UP
Listen in your browser - HTML5 player(in browser, HTML5)
Click here to listen with your own player(launches your MP3 player)

KAMW 040053Z AUTO 34006KT 10SM CLR 29/12 A2976 RMK AO2 SLP067 T02940122

KAMW Airport Info (Airnav.com)

KAMW Flight Activity (Flightaware)

Listeners: 0 out of 914 total

Ames CTAF: 122.700

KANE Twr/CTAF (Archives)
Minneapolis, Minnesota, United States

Feed Status: UP
Listen in your browser - HTML5 player(in browser, HTML5)
Click here to listen with your own player(launches your MP3 player)

KANE 040045Z 36004KT 10SM SCT100 BKN250 25/11 A2979

KANE Airport Info (Airnav.com)

KANE Flight Activity (Flightaware)

Listeners: 0 out of 914 total

Anoka Tower/CTAF: 132.400

KAPA App/Dep
Denver, Colorado, United States

Feed Status: DOWN
Offline since: 2020-06-02 19:06:39 UTC

KAPA 040053Z 02008G15KT 10SM SCT090 BKN120 BKN200 25/03 A3008 RMK AO2 PK WND 36031/0011 WSHFT 0007 LTG DSNT W SLP114 VIRGA OHD T02500033

KAPA Airport Info (Airnav.com)

Denver Approach/Departure: 132.750

KAPA Del/Gnd
Denver, Colorado, United States

Feed Status: DOWN
Offline since: 2020-06-02 19:06:39 UTC

KAPA 040053Z 02008G15KT 10SM SCT090 BKN120 BKN200 25/03 A3008 RMK AO2 PK WND 36031/0011 WSHFT 0007 LTG DSNT W SLP114 VIRGA OHD T02500033

KAPA Airport Info (Airnav.com)

Centennial Clearance Delivery: 128.600
Centennial Ground: 121.800

KAPA Tower (Primary)
Denver, Colorado, United States

Feed Status: DOWN
Offline since: 2020-06-02 19:06:39 UTC

KAPA 040053Z 02008G15KT 10SM SCT090 BKN120 BKN200 25/03 A3008 RMK AO2 PK WND 36031/0011 WSHFT 0007 LTG DSNT W SLP114 VIRGA OHD T02500033

KAPA Airport Info (Airnav.com)

Centennial Tower: 118.900

KAPA Tower (Secondary #1)
Denver, Colorado, United States

Feed Status: DOWN
Offline since: 2020-06-02 19:06:39 UTC

KAPA 040053Z 02008G15KT 10SM SCT090 BKN120 BKN200 25/03 A3008 RMK AO2 PK WND 36031/0011 WSHFT 0007 LTG DSNT W SLP114 VIRGA OHD T02500033

KAPA Airport Info (Airnav.com)

Centennial Tower (Rwy 17R/35L or Rwy 28): 123.700

KAPA Tower (Secondary #2)
Denver, Colorado, United States

Feed Status: DOWN
Offline since: 2020-06-02 19:06:39 UTC

KAPA 040053Z 02008G15KT 10SM SCT090 BKN120 BKN200 25/03 A3008 RMK AO2 PK WND 36031/0011 WSHFT 0007 LTG DSNT W SLP114 VIRGA OHD T02500033

KAPA Airport Info (Airnav.com)

Centennial Tower (Rwy 17R/35L or Rwy 28): 124.600

KAPC Del/Gnd (Archives)
Napa, California, United States

Feed Status: UP
Listen in your browser - HTML5 player(in browser, HTML5)
Click here to listen with your own player(launches your MP3 player)

KAPC 040054Z 27013KT 10SM CLR 34/09 A2985 RMK AO2 SLP099 T03440089

KAPC Airport Info (Airnav.com)

KAPC Flight Activity (Flightaware)

Listeners: 0 out of 914 total

Napa Clearance Delivery: 127.850
Napa Ground: 121.700

KAPC Tower (Archives)
Napa, California, United States

Feed Status: UP
Listen in your browser - HTML5 player(in browser, HTML5)
Click here to listen with your own player(launches your MP3 player)

KAPC 040054Z 27013KT 10SM CLR 34/09 A2985 RMK AO2 SLP099 T03440089

KAPC Airport Info (Airnav.com)

KAPC Flight Activity (Flightaware)

Listeners: 0 out of 914 total

Napa Tower: 118.700

KAPF ATIS (Archives)
Naples, Florida, United States

Feed Status: UP
Listen in your browser - HTML5 player(in browser, HTML5)
Click here to listen with your own player(launches your MP3 player)

KAPF 040053Z 09004KT 10SM CLR 25/24 A2997 RMK AO2 RAE2358 SLP149 P0000 T02500244 $

KAPF Airport Info (Airnav.com)

KAPF Flight Activity (Flightaware)

Listeners: 0 out of 914 total

Naples ATIS: 134.225

KAPF Del/Gnd (Archives)
Naples, Florida, United States

Feed Status: UP
Listen in your browser - HTML5 player(in browser, HTML5)
Click here to listen with your own player(launches your MP3 player)

KAPF 040053Z 09004KT 10SM CLR 25/24 A2997 RMK AO2 RAE2358 SLP149 P0000 T02500244 $

KAPF Airport Info (Airnav.com)

KAPF Flight Activity (Flightaware)

Listeners: 1 out of 914 total

Naples Clearance Delivery: 118.000
Naples Ground: 121.600

KAPF Del/Gnd/Twr (Archives)
Naples, Florida, United States

Feed Status: UP
Listen in your browser - HTML5 player(in browser, HTML5)
Click here to listen with your own player(launches your MP3 player)

KAPF 040053Z 09004KT 10SM CLR 25/24 A2997 RMK AO2 RAE2358 SLP149 P0000 T02500244 $

KAPF Airport Info (Airnav.com)

KAPF Flight Activity (Flightaware)

Listeners: 1 out of 914 total

Naples Clearance Delivery: 118.000
Naples Ground: 121.600
Naples Tower: 128.500

KAPF Ft Myers App/Dep (Archives)
Naples, Florida, United States

Feed Status: UP
Listen in your browser - HTML5 player(in browser, HTML5)
Click here to listen with your own player(launches your MP3 player)

KAPF 040053Z 09004KT 10SM CLR 25/24 A2997 RMK AO2 RAE2358 SLP149 P0000 T02500244 $

KAPF Airport Info (Airnav.com)

KAPF Flight Activity (Flightaware)

Listeners: 0 out of 914 total

Fort Myers Approach/Departure: 124.125
Fort Myers Approach/Departure: 126.800

KAPF Tower (Archives)
Naples, Florida, United States

Feed Status: UP
Listen in your browser - HTML5 player(in browser, HTML5)
Click here to listen with your own player(launches your MP3 player)

KAPF 040053Z 09004KT 10SM CLR 25/24 A2997 RMK AO2 RAE2358 SLP149 P0000 T02500244 $

KAPF Airport Info (Airnav.com)

KAPF Flight Activity (Flightaware)

Listeners: 0 out of 914 total

Naples Tower: 128.500

KAPN App/Dep/ZMP (Archives)
Alpena, Michigan, United States

Feed Status: UP
Listen in your browser - HTML5 player(in browser, HTML5)
Click here to listen with your own player(launches your MP3 player)

KAPN 040054Z AUTO 04004KT 10SM OVC090 22/14 A2971 RMK AO2 SLP058 T02220139

KAPN Airport Info (Airnav.com)

KAPN Flight Activity (Flightaware)

Listeners: 0 out of 914 total

Alpena Approach/Departure: 128.425
Minneapolis Center (Sector 01 Low): 125.475

KAPN Tower (Archives)
Alpena, Michigan, United States

Feed Status: UP
Listen in your browser - HTML5 player(in browser, HTML5)
Click here to listen with your own player(launches your MP3 player)

KAPN 040054Z AUTO 04004KT 10SM OVC090 22/14 A2971 RMK AO2 SLP058 T02220139

KAPN Airport Info (Airnav.com)

KAPN Flight Activity (Flightaware)

Listeners: 0 out of 914 total

Alpena Tower: 121.350

KARB Gnd/Twr (Archives)
Ann Arbor, Michigan, United States

Feed Status: UP
Listen in your browser - HTML5 player(in browser, HTML5)
Click here to listen with your own player(launches your MP3 player)

KARB 040053Z AUTO 24005KT 10SM CLR 21/15 A2978 RMK AO2 SLP078 T02110150

KARB Airport Info (Airnav.com)

KARB Flight Activity (Flightaware)

Listeners: 0 out of 914 total

Ann Arbor Ground: 121.600
Ann Arbor Tower: 120.300

KARR Tower (Archives)
Chicago/Aurora, Illinois, United States

Feed Status: UP
Listen in your browser - HTML5 player(in browser, HTML5)
Click here to listen with your own player(launches your MP3 player)

KARR 040052Z AUTO 27005KT 10SM BKN055 BKN070 25/19 A2977 RMK AO2 SLP075 T02500194

KARR Airport Info (Airnav.com)

KARR Flight Activity (Flightaware)

Listeners: 0 out of 914 total

Aurora Tower: 120.600

KASE ATIS (Archives)
Aspen, Colorado, United States

Feed Status: UP
Listen in your browser - HTML5 player(in browser, HTML5)
Click here to listen with your own player(launches your MP3 player)

KASE 040053Z 23004KT 10SM CLR 22/03 A3023 RMK AO2 SLP117 T02170028

KASE Airport Info (Airnav.com)

KASE Flight Activity (Flightaware)

Listeners: 0 out of 914 total

Aspen ATIS: 120.400

KASE Gnd/Twr/App/Center (Archives)
Aspen, Colorado, United States

Feed Status: UP
Listen in your browser - HTML5 player(in browser, HTML5)
Click here to listen with your own player(launches your MP3 player)

KASE 040053Z 23004KT 10SM CLR 22/03 A3023 RMK AO2 SLP117 T02170028

KASE Airport Info (Airnav.com)

KASE Flight Activity (Flightaware)

Listeners: 0 out of 914 total

Aspen Approach/Departure: 123.800
Aspen Ground: 121.900
Aspen Tower/CTAF: 118.850
Denver Center (Sector 26 POWDR Low): 119.850

KASE Ground/Tower (Archives)
Aspen, Colorado, United States

Feed Status: UP
Listen in your browser - HTML5 player(in browser, HTML5)
Click here to listen with your own player(launches your MP3 player)

KASE 040053Z 23004KT 10SM CLR 22/03 A3023 RMK AO2 SLP117 T02170028

KASE Airport Info (Airnav.com)

KASE Flight Activity (Flightaware)

Listeners: 0 out of 914 total

Aspen Ground: 121.900
Aspen Tower/CTAF: 118.850

KASE Tower (Archives)
Aspen, Colorado, United States

Feed Status: UP
Listen in your browser - HTML5 player(in browser, HTML5)
Click here to listen with your own player(launches your MP3 player)

KASE 040053Z 23004KT 10SM CLR 22/03 A3023 RMK AO2 SLP117 T02170028

KASE Airport Info (Airnav.com)

KASE Flight Activity (Flightaware)

Listeners: 0 out of 914 total

Aspen Tower/CTAF: 118.850

KASG App/Dep (Archives)
Springdale, Arkansas, United States

Feed Status: UP
Listen in your browser - HTML5 player(in browser, HTML5)
Click here to listen with your own player(launches your MP3 player)

KASG 040048Z 20008KT 10SM FEW047 28/22 A2991

KASG Airport Info (Airnav.com)

KASG Flight Activity (Flightaware)

Listeners: 0 out of 914 total

Razorback Approach/Departure: 126.600

KASG Gnd/Twr (Archives)
Springdale, Arkansas, United States

Feed Status: UP
Listen in your browser - HTML5 player(in browser, HTML5)
Click here to listen with your own player(launches your MP3 player)

KASG 040048Z 20008KT 10SM FEW047 28/22 A2991

KASG Airport Info (Airnav.com)

KASG Flight Activity (Flightaware)

Listeners: 0 out of 914 total

Springdale Ground: 121.600
Springdale Tower: 118.200

KASG Gnd/Twr/App (Archives)
Springdale, Arkansas, United States

Feed Status: UP
Listen in your browser - HTML5 player(in browser, HTML5)
Click here to listen with your own player(launches your MP3 player)

KASG 040048Z 20008KT 10SM FEW047 28/22 A2991

KASG Airport Info (Airnav.com)

KASG Flight Activity (Flightaware)

Listeners: 0 out of 914 total

Razorback Approach/Departure: 126.600
Springdale Ground: 121.600
Springdale Tower: 118.200

KASH ATIS #1 (Archives)
Nashua, New Hampshire, United States

Feed Status: UP
Listen in your browser - HTML5 player(in browser, HTML5)
Click here to listen with your own player(launches your MP3 player)

KASH 040056Z 30005KT 10SM BKN065 21/19 A2960 RMK AO2 SLP026 T02110189 PNO $

KASH Airport Info (Airnav.com)

KASH Flight Activity (Flightaware)

Listeners: 0 out of 914 total

Nashua ATIS: 125.100

KASH ATIS #2 (Archives)
Nashua, New Hampshire, United States

Feed Status: UP
Listen in your browser - HTML5 player(in browser, HTML5)
Click here to listen with your own player(launches your MP3 player)

KASH 040056Z 30005KT 10SM BKN065 21/19 A2960 RMK AO2 SLP026 T02110189 PNO $

KASH Airport Info (Airnav.com)

KASH Flight Activity (Flightaware)

Listeners: 0 out of 914 total

Nashua ATIS: 125.100

KASH Ground/FBO (Archives)
Nashua, New Hampshire, United States

Feed Status: UP
Listen in your browser - HTML5 player(in browser, HTML5)
Click here to listen with your own player(launches your MP3 player)

KASH 040056Z 30005KT 10SM BKN065 21/19 A2960 RMK AO2 SLP026 T02110189 PNO $

KASH Airport Info (Airnav.com)

KASH Flight Activity (Flightaware)

Listeners: 0 out of 914 total

Infinity Aviation: 129.750
Nashua Ground: 121.800

KASH Ground/FBO/Twr (Archives)
Nashua, New Hampshire, United States

Feed Status: UP
Listen in your browser - HTML5 player(in browser, HTML5)
Click here to listen with your own player(launches your MP3 player)

KASH 040056Z 30005KT 10SM BKN065 21/19 A2960 RMK AO2 SLP026 T02110189 PNO $

KASH Airport Info (Airnav.com)

KASH Flight Activity (Flightaware)

Listeners: 0 out of 914 total

Infinity Aviation: 129.750
Nashua Ground: 121.800
Nashua Tower: 133.200

KASH Tower (Archives)
Nashua, New Hampshire, United States

Feed Status: UP
Listen in your browser - HTML5 player(in browser, HTML5)
Click here to listen with your own player(launches your MP3 player)

KASH 040056Z 30005KT 10SM BKN065 21/19 A2960 RMK AO2 SLP026 T02110189 PNO $

KASH Airport Info (Airnav.com)

KASH Flight Activity (Flightaware)

Listeners: 0 out of 914 total

Nashua Tower: 133.200

Atlanta Approach (N. Sat) (Archives)
Atlanta, Georgia, United States

Feed Status: UP
Listen in your browser - HTML5 player(in browser, HTML5)
Click here to listen with your own player(launches your MP3 player)

KRYY 040050Z 23004KT 10SM CLR 26/21 A2997 RMK AO2 SLP869 T02610211 PNO $

KRYY Airport Info (Airnav.com)

KRYY Flight Activity (Flightaware)

Listeners: 3 out of 914 total

Atlanta Approach (North Satellite): 121.000

KATW Gnd/Twr/App (Archives)
Appleton, Wisconsin, United States

Feed Status: UP
Listen in your browser - HTML5 player(in browser, HTML5)
Click here to listen with your own player(launches your MP3 player)

KATW 040045Z 25004KT 10SM SCT040 26/10 A2973

KATW Airport Info (Airnav.com)

KATW Flight Activity (Flightaware)

Listeners: 0 out of 914 total

Appleton Ground: 121.700
Appleton Tower: 119.600
Green Bay Approach/Departure: 126.300

KATW Tower (Archives)
Appleton, Wisconsin, United States

Feed Status: UP
Listen in your browser - HTML5 player(in browser, HTML5)
Click here to listen with your own player(launches your MP3 player)

KATW 040045Z 25004KT 10SM SCT040 26/10 A2973

KATW Airport Info (Airnav.com)

KATW Flight Activity (Flightaware)

Listeners: 0 out of 914 total

Appleton Tower: 119.600

KAUG Del/CTAF (Archives)
Augusta, Maine, United States

Feed Status: UP
Listen in your browser - HTML5 player(in browser, HTML5)
Click here to listen with your own player(launches your MP3 player)

KAUG 040053Z AUTO 00000KT 10SM FEW011 BKN050 BKN060 14/14 A2960 RMK AO2 SLP024 T01440139

KAUG Airport Info (Airnav.com)

KAUG Flight Activity (Flightaware)

Listeners: 0 out of 914 total

Augusta Clearance Delivery: 119.950
Augusta CTAF/UNICOM: 123.000

NORCAL Approach (Elk Horn)
Auburn, California, United States

Feed Status: DOWN
Offline since: 2020-05-28 17:54:39 UTC

KAUN 040055Z AUTO 00000KT 10SM CLR 33/09 A2994 RMK A01

KAUN Airport Info (Airnav.com)

NORCAL Approach (Elk Horn Sector): 125.100

NORCAL Approach (Expo)
Auburn, California, United States

Feed Status: DOWN
Offline since: 2020-05-28 20:27:05 UTC

KAUN 040055Z AUTO 00000KT 10SM CLR 33/09 A2994 RMK A01

KAUN Airport Info (Airnav.com)

NORCAL Approach (EXPO Sector): 127.400

KAUW CTAF (Air Race Classic)
Wausau, Wisconsin, United States

Feed Status: DOWN
Offline since: 2019-06-24 16:01:03 UTC

Wausau CTAF: 122.700

KAVO CTAF (Archives)
Avon Park, Florida, United States

Feed Status: UP
Listen in your browser - HTML5 player(in browser, HTML5)
Click here to listen with your own player(launches your MP3 player)

KAVO Airport Info (Airnav.com)

KAVO Flight Activity (Flightaware)

Listeners: 0 out of 914 total

Avon Park CTAF: 122.800

KAVP Gnd/Twr/App (Archives)
Wilkes-Barre/Scranton, Pennsylvania, United States

Feed Status: UP
Listen in your browser - HTML5 player(in browser, HTML5)
Click here to listen with your own player(launches your MP3 player)

KAVP 040054Z 24003KT 10SM BKN038 BKN045 22/15 A2971 RMK AO2 SLP052 T02170150

KAVP Airport Info (Airnav.com)

KAVP Flight Activity (Flightaware)

Listeners: 0 out of 914 total

Wilkes-Barre Approach: 124.500
Wilkes-Barre Approach: 126.300
Wilkes-Barre Ground: 121.900
Wilkes-Barre Tower: 120.100

KAVQ CTAF (Archives)
Marana, Arizona, United States

Feed Status: UP
Listen in your browser - HTML5 player(in browser, HTML5)
Click here to listen with your own player(launches your MP3 player)

KAVQ 040055Z AUTO 30007KT 10SM CLR 38/00 A2978 RMK AO2 T03820003

KAVQ Airport Info (Airnav.com)

KAVQ Flight Activity (Flightaware)

Listeners: 0 out of 914 total

Marana CTAF: 123.000

Arlington Fly-In Radio
Arlington, Washington, United States

Feed Status: DOWN
Offline since: 2019-08-18 20:46:39 UTC

KAWO 040056Z AUTO 29010KT 10SM BKN080 17/08 A3013 RMK AO2 SLP208 T01670083

KAWO Airport Info (Airnav.com)

Arlington Fly-In Radio: 89.9

KAWO Arlington Fly-In ATC
Arlington, Washington, United States

Feed Status: DOWN
Offline since: 2019-08-18 20:46:39 UTC

KAWO 040056Z AUTO 29010KT 10SM BKN080 17/08 A3013 RMK AO2 SLP208 T01670083

KAWO Airport Info (Airnav.com)

Arlington CTAF: 122.725
Arlington Tower (Air Show): 127.200

KAWO CTAF/Clearance (Archives)
Arlington, Washington, United States

Feed Status: UP
Listen in your browser - HTML5 player(in browser, HTML5)
Click here to listen with your own player(launches your MP3 player)

KAWO 040056Z AUTO 29010KT 10SM BKN080 17/08 A3013 RMK AO2 SLP208 T01670083

KAWO Airport Info (Airnav.com)

KAWO Flight Activity (Flightaware)

Listeners: 0 out of 914 total

Arlington Clearance Delivery (Seattle): 121.725
Arlington CTAF: 122.725

KBTL/KAZO Gnd/Twr/App (Archives)
Kalamazoo, Michigan, United States

Feed Status: UP
Listen in your browser - HTML5 player(in browser, HTML5)
Click here to listen with your own player(launches your MP3 player)

KBTL Airport Info (Airnav.com)

KBTL Flight Activity (Flightaware)

Listeners: 0 out of 914 total

Battle Creek Ground: 121.700
Battle Creek Tower: 126.825
Kalamazoo Approach/Departure: 119.200
Kalamazoo Ground: 121.900
Kalamazoo Tower: 118.300

KBAF Ground (Archives)
Westfield/Springfield, Massachusetts, United States

Feed Status: UP
Listen in your browser - HTML5 player(in browser, HTML5)
Click here to listen with your own player(launches your MP3 player)

KBAF 040053Z VRB03KT 10SM CLR 23/14 A2962 RMK AO2 SLP028 T02280144

KBAF Airport Info (Airnav.com)

KBAF Flight Activity (Flightaware)

Listeners: 0 out of 914 total

Westfield Ground: 121.700

KBAF Ground/Tower (Archives)
Westfield/Springfield, Massachusetts, United States

Feed Status: UP
Listen in your browser - HTML5 player(in browser, HTML5)
Click here to listen with your own player(launches your MP3 player)

KBAF 040053Z VRB03KT 10SM CLR 23/14 A2962 RMK AO2 SLP028 T02280144

KBAF Airport Info (Airnav.com)

KBAF Flight Activity (Flightaware)

Listeners: 1 out of 914 total

Westfield Ground: 121.700
Westfield Tower: 118.900

KBAF Tower (Archives)
Westfield/Springfield, Massachusetts, United States

Feed Status: UP
Listen in your browser - HTML5 player(in browser, HTML5)
Click here to listen with your own player(launches your MP3 player)

KBAF 040053Z VRB03KT 10SM CLR 23/14 A2962 RMK AO2 SLP028 T02280144

KBAF Airport Info (Airnav.com)

KBAF Flight Activity (Flightaware)

Listeners: 0 out of 914 total

Westfield Tower: 118.900

KBAZ Tower (Archives)
New Braunfels, Texas, United States

Feed Status: UP
Listen in your browser - HTML5 player(in browser, HTML5)
Click here to listen with your own player(launches your MP3 player)

KBAZ 040051Z AUTO 18010KT 10SM CLR 29/22 A2988 RMK AO2 SLP110 T02940222

KBAZ Airport Info (Airnav.com)

KBAZ Flight Activity (Flightaware)

Listeners: 0 out of 914 total

New Braunfels Tower: 127.050

KBCT ATIS (Archives)
Boca Raton, Florida, United States

Feed Status: UP
Listen in your browser - HTML5 player(in browser, HTML5)
Click here to listen with your own player(launches your MP3 player)

KBCT 032347Z 00000KT 10SM SCT030 27/24 A2998

KBCT Airport Info (Airnav.com)

KBCT Flight Activity (Flightaware)

Listeners: 0 out of 914 total

Boca Raton ATIS/AWOS: 121.125

KBCT Emergency/Guard (Archives)
Boca Raton, Florida, United States

Feed Status: UP
Listen in your browser - HTML5 player(in browser, HTML5)
Click here to listen with your own player(launches your MP3 player)

KBCT 032347Z 00000KT 10SM SCT030 27/24 A2998

KBCT Airport Info (Airnav.com)

KBCT Flight Activity (Flightaware)

Listeners: 0 out of 914 total

Emergency/Guard: 121.500

KBCT Ground (Archives)
Boca Raton, Florida, United States

Feed Status: UP
Listen in your browser - HTML5 player(in browser, HTML5)
Click here to listen with your own player(launches your MP3 player)

KBCT 032347Z 00000KT 10SM SCT030 27/24 A2998

KBCT Airport Info (Airnav.com)

KBCT Flight Activity (Flightaware)

Listeners: 0 out of 914 total

Boca Raton Ground: 121.800

KBCT Ground/Tower (Archives)
Boca Raton, Florida, United States

Feed Status: UP
Listen in your browser - HTML5 player(in browser, HTML5)
Click here to listen with your own player(launches your MP3 player)

KBCT 032347Z 00000KT 10SM SCT030 27/24 A2998

KBCT Airport Info (Airnav.com)

KBCT Flight Activity (Flightaware)

Listeners: 0 out of 914 total

Boca Raton Ground: 121.800
Boca Raton Tower: 118.425

KBCT Tower (Archives)
Boca Raton, Florida, United States

Feed Status: UP
Listen in your browser - HTML5 player(in browser, HTML5)
Click here to listen with your own player(launches your MP3 player)

KBCT 032347Z 00000KT 10SM SCT030 27/24 A2998

KBCT Airport Info (Airnav.com)

KBCT Flight Activity (Flightaware)

Listeners: 0 out of 914 total

Boca Raton Tower: 118.425

KBDN CTAF (Archives)
Bend, Oregon, United States

Feed Status: UP
Listen in your browser - HTML5 player(in browser, HTML5)
Click here to listen with your own player(launches your MP3 player)

KBDN 040055Z AUTO 33014KT 10SM CLR 26/04 A3002 RMK AO2

KBDN Airport Info (Airnav.com)

KBDN Flight Activity (Flightaware)

Listeners: 0 out of 914 total

Bend CTAF: 123.000

KBDR Del/Gnd/Twr (Archives)
Bridgeport, Connecticut, United States

Feed Status: UP
Listen in your browser - HTML5 player(in browser, HTML5)
Click here to listen with your own player(launches your MP3 player)

KBDR 040052Z 24007KT 10SM BKN110 22/17 A2964 RMK AO2 LTG DSNT W AND NW SLP036 TS NW MOVG SE T02170167

KBDR Airport Info (Airnav.com)

KBDR Flight Activity (Flightaware)

Listeners: 1 out of 914 total

Bridgeport Clearance/Ground: 121.750
Bridgeport Tower: 120.900
Sikorsky Heliport: 133.600

KBDR Del/Gnd/Twr/App (Archives)
Bridgeport, Connecticut, United States

Feed Status: UP
Listen in your browser - HTML5 player(in browser, HTML5)
Click here to listen with your own player(launches your MP3 player)

KBDR 040052Z 24007KT 10SM BKN110 22/17 A2964 RMK AO2 LTG DSNT W AND NW SLP036 TS NW MOVG SE T02170167

KBDR Airport Info (Airnav.com)

KBDR Flight Activity (Flightaware)

Listeners: 0 out of 914 total

Bridgeport Clearance/Ground: 121.750
Bridgeport Tower: 120.900
New York Approach (LOVES Sector): 124.075
Sikorsky Heliport: 133.600

New York Approach (LOVES Sector) (Archives)
Bridgeport, Connecticut, United States

Feed Status: UP
Listen in your browser - HTML5 player(in browser, HTML5)
Click here to listen with your own player(launches your MP3 player)

KBDR 040052Z 24007KT 10SM BKN110 22/17 A2964 RMK AO2 LTG DSNT W AND NW SLP036 TS NW MOVG SE T02170167

KBDR Airport Info (Airnav.com)

KBDR Flight Activity (Flightaware)

Listeners: 0 out of 914 total

New York Approach (LOVES Sector): 124.075

KFTG/KEIK/KBDU/KLMO/Misc (Archives)
Boulder, Colorado, United States

Feed Status: UP
Listen in your browser - HTML5 player(in browser, HTML5)
Click here to listen with your own player(launches your MP3 player)

KDEN 040053Z 06010KT 10SM FEW100 BKN130 BKN220 26/05 A3005 RMK AO2 LTG DSNT W SLP097 VIRGA T02560050

KDEN Airport Info (Airnav.com)

KDEN Flight Activity (Flightaware)

Listeners: 1 out of 914 total

Air-to-Air Fixed Wing: 122.750
Air-to-Air Informal: 123.450
Boulder CTAF: 122.725
Erie CTAF: 123.000
Front Range Tower: 120.200
KBKF Tower: 121.000
Longmont CTAF: 122.975
MULTICOM: 122.900
UNICOM: 122.950

Boston App/Dep (North Sat) #1 (Archives)
Bedford, Massachusetts, United States

Feed Status: UP
Listen in your browser - HTML5 player(in browser, HTML5)
Click here to listen with your own player(launches your MP3 player)

KBED 040051Z 27003KT 10SM SCT080 21/17 A2958 RMK AO2 SLP027 T02060172 PNO

KBED Airport Info (Airnav.com)

KBED Flight Activity (Flightaware)

Listeners: 0 out of 914 total

Boston Approach (North Satellites, SFC-3500'): 124.400

KBED ATIS #1 (Archives)
Bedford, Massachusetts, United States

Feed Status: UP
Listen in your browser - HTML5 player(in browser, HTML5)
Click here to listen with your own player(launches your MP3 player)

KBED 040051Z 27003KT 10SM SCT080 21/17 A2958 RMK AO2 SLP027 T02060172 PNO

KBED Airport Info (Airnav.com)

KBED Flight Activity (Flightaware)

Listeners: 0 out of 914 total

Hanscom ATIS: 124.600

KBED ATIS #2 (Archives)
Bedford, Massachusetts, United States

Feed Status: UP
Listen in your browser - HTML5 player(in browser, HTML5)
Click here to listen with your own player(launches your MP3 player)

KBED 040051Z 27003KT 10SM SCT080 21/17 A2958 RMK AO2 SLP027 T02060172 PNO

KBED Airport Info (Airnav.com)

KBED Flight Activity (Flightaware)

Listeners: 0 out of 914 total

Hanscom ATIS: 124.600

KBED Clearance Delivery (Archives)
Bedford, Massachusetts, United States

Feed Status: UP
Listen in your browser - HTML5 player(in browser, HTML5)
Click here to listen with your own player(launches your MP3 player)

KBED 040051Z 27003KT 10SM SCT080 21/17 A2958 RMK AO2 SLP027 T02060172 PNO

KBED Airport Info (Airnav.com)

KBED Flight Activity (Flightaware)

Listeners: 0 out of 914 total

Hanscom Clearance Delivery: 121.850

KBED Del/Gnd (Archives)
Bedford, Massachusetts, United States

Feed Status: UP
Listen in your browser - HTML5 player(in browser, HTML5)
Click here to listen with your own player(launches your MP3 player)

KBED 040051Z 27003KT 10SM SCT080 21/17 A2958 RMK AO2 SLP027 T02060172 PNO

KBED Airport Info (Airnav.com)

KBED Flight Activity (Flightaware)

Listeners: 0 out of 914 total

Hanscom Clearance Delivery: 121.850
Hanscom Ground: 121.700

KBED Gnd/Twr (Archives)
Bedford, Massachusetts, United States

Feed Status: UP
Listen in your browser - HTML5 player(in browser, HTML5)
Click here to listen with your own player(launches your MP3 player)

KBED 040051Z 27003KT 10SM SCT080 21/17 A2958 RMK AO2 SLP027 T02060172 PNO

KBED Airport Info (Airnav.com)

KBED Flight Activity (Flightaware)

Listeners: 1 out of 914 total

Hanscom Ground: 121.700
Hanscom Tower: 118.500

KBED Ground (Archives)
Bedford, Massachusetts, United States

Feed Status: UP
Listen in your browser - HTML5 player(in browser, HTML5)
Click here to listen with your own player(launches your MP3 player)

KBED 040051Z 27003KT 10SM SCT080 21/17 A2958 RMK AO2 SLP027 T02060172 PNO

KBED Airport Info (Airnav.com)

KBED Flight Activity (Flightaware)

Listeners: 0 out of 914 total

Hanscom Ground: 121.700

KBED Tower (Archives)
Bedford, Massachusetts, United States

Feed Status: UP
Listen in your browser - HTML5 player(in browser, HTML5)
Click here to listen with your own player(launches your MP3 player)

KBED 040051Z 27003KT 10SM SCT080 21/17 A2958 RMK AO2 SLP027 T02060172 PNO

KBED Airport Info (Airnav.com)

KBED Flight Activity (Flightaware)

Listeners: 0 out of 914 total

Hanscom Tower: 118.500

KBFI ATIS (Archives)
Seattle, Washington, United States

Feed Status: UP
Listen in your browser - HTML5 player(in browser, HTML5)
Click here to listen with your own player(launches your MP3 player)

KBFI 040053Z VRB06KT 10SM SCT030 BKN200 18/07 A3012 RMK AO2 SLP200 T01780067

KBFI Airport Info (Airnav.com)

KBFI Flight Activity (Flightaware)

Listeners: 0 out of 914 total

Boeing ATIS: 127.750

KBFI Clearance Delivery (Archives)
Seattle, Washington, United States

Feed Status: UP
Listen in your browser - HTML5 player(in browser, HTML5)
Click here to listen with your own player(launches your MP3 player)

KBFI 040053Z VRB06KT 10SM SCT030 BKN200 18/07 A3012 RMK AO2 SLP200 T01780067

KBFI Airport Info (Airnav.com)

KBFI Flight Activity (Flightaware)

Listeners: 0 out of 914 total

Boeing Clearance Delivery: 132.400

KBFI Ground (Archives)
Seattle, Washington, United States

Feed Status: UP
Listen in your browser - HTML5 player(in browser, HTML5)
Click here to listen with your own player(launches your MP3 player)

KBFI 040053Z VRB06KT 10SM SCT030 BKN200 18/07 A3012 RMK AO2 SLP200 T01780067

KBFI Airport Info (Airnav.com)

KBFI Flight Activity (Flightaware)

Listeners: 0 out of 914 total

Boeing Ground: 121.900

KBFI Ground/Tower (Archives)
Seattle, Washington, United States

Feed Status: UP
Listen in your browser - HTML5 player(in browser, HTML5)
Click here to listen with your own player(launches your MP3 player)

KBFI 040053Z VRB06KT 10SM SCT030 BKN200 18/07 A3012 RMK AO2 SLP200 T01780067

KBFI Airport Info (Airnav.com)

KBFI Flight Activity (Flightaware)

Listeners: 1 out of 914 total

Boeing Ground: 121.900
Boeing Tower (Rwy 13L & 31R/VFR): 118.300
Boeing Tower (Rwy 13R/31L/IFR): 120.600
Emergency: 121.500

KBFI Guard (Archives)
Seattle, Washington, United States

Feed Status: UP
Listen in your browser - HTML5 player(in browser, HTML5)
Click here to listen with your own player(launches your MP3 player)

KBFI 040053Z VRB06KT 10SM SCT030 BKN200 18/07 A3012 RMK AO2 SLP200 T01780067

KBFI Airport Info (Airnav.com)

KBFI Flight Activity (Flightaware)

Listeners: 0 out of 914 total

Emergency/Guard: 121.500

KBFI Tower (IFR) (Archives)
Seattle, Washington, United States

Feed Status: UP
Listen in your browser - HTML5 player(in browser, HTML5)
Click here to listen with your own player(launches your MP3 player)

KBFI 040053Z VRB06KT 10SM SCT030 BKN200 18/07 A3012 RMK AO2 SLP200 T01780067

KBFI Airport Info (Airnav.com)

KBFI Flight Activity (Flightaware)

Listeners: 0 out of 914 total

Boeing Tower (Rwy 13R/31L/IFR): 120.600

KBFI Tower (VFR) (Archives)
Seattle, Washington, United States

Feed Status: UP
Listen in your browser - HTML5 player(in browser, HTML5)
Click here to listen with your own player(launches your MP3 player)

KBFI 040053Z VRB06KT 10SM SCT030 BKN200 18/07 A3012 RMK AO2 SLP200 T01780067

KBFI Airport Info (Airnav.com)

KBFI Flight Activity (Flightaware)

Listeners: 0 out of 914 total

Boeing Tower (Rwy 13L & 31R/VFR): 118.300

KBFI Tower (VFR/IFR) (Archives)
Seattle, Washington, United States

Feed Status: UP
Listen in your browser - HTML5 player(in browser, HTML5)
Click here to listen with your own player(launches your MP3 player)

KBFI 040053Z VRB06KT 10SM SCT030 BKN200 18/07 A3012 RMK AO2 SLP200 T01780067

KBFI Airport Info (Airnav.com)

KBFI Flight Activity (Flightaware)

Listeners: 2 out of 914 total

Boeing Tower (Rwy 13L & 31R/VFR): 118.300
Boeing Tower (Rwy 13R/31L/IFR): 120.600

KBFL Twr/App/ZLA (Archives)
Bakersfield, California, United States

Feed Status: UP
Listen in your browser - HTML5 player(in browser, HTML5)
Click here to listen with your own player(launches your MP3 player)

KBFL 040054Z AUTO 32009KT 10SM CLR 37/13 A2981 RMK AO2 SLP086 T03720133

KBFL Airport Info (Airnav.com)

KBFL Flight Activity (Flightaware)

Listeners: 1 out of 914 total

Bakersfield Approach: 118.800
Bakersfield Departure: 126.450
Los Angeles Center (Sector 3 Low): 127.100
Meadows Tower: 118.100

KBFM Ground/Tower (Archives)
Mobile, Alabama, United States

Feed Status: UP
Listen in your browser - HTML5 player(in browser, HTML5)
Click here to listen with your own player(launches your MP3 player)

KBFM 040053Z 00000KT 10SM FEW030 26/22 A2999 RMK AO2 SLP155 T02610222

KBFM Airport Info (Airnav.com)

KBFM Flight Activity (Flightaware)

Listeners: 0 out of 914 total

Downtown Ground: 121.700
Downtown Tower: 118.800

KBFM Tower (Archives)
Mobile, Alabama, United States

Feed Status: UP
Listen in your browser - HTML5 player(in browser, HTML5)
Click here to listen with your own player(launches your MP3 player)

KBFM 040053Z 00000KT 10SM FEW030 26/22 A2999 RMK AO2 SLP155 T02610222

KBFM Airport Info (Airnav.com)

KBFM Flight Activity (Flightaware)

Listeners: 0 out of 914 total

Downtown Tower: 118.800

KBGM Del/Gnd/Twr/App (Archives)
Binghamton, New York, United States

Feed Status: UP
Listen in your browser - HTML5 player(in browser, HTML5)
Click here to listen with your own player(launches your MP3 player)

KBGM 040053Z AUTO 27006KT 10SM FEW075 18/16 A2971 RMK AO2 SLP054 T01780161

KBGM Airport Info (Airnav.com)

KBGM Flight Activity (Flightaware)

Listeners: 0 out of 914 total

Binghamton Approach/Departure: 118.600
Binghamton Approach/Departure: 127.550
Binghamton Clearance Delivery: 125.050
Binghamton Ground: 121.900
Binghamton Tower: 119.300

KBID CTAF (Archives)
Block Island, Rhode Island, United States

Feed Status: UP
Listen in your browser - HTML5 player(in browser, HTML5)
Click here to listen with your own player(launches your MP3 player)

KBID 040056Z AUTO 24014KT 10SM FEW120 16/15 A2965 RMK AO2 SLP040 T01610150

KBID Airport Info (Airnav.com)

KBID Flight Activity (Flightaware)

Listeners: 0 out of 914 total

Block Island CTAF: 123.000

KBIS Twr/App (Archives)
Bismarck, North Dakota, United States

Feed Status: UP
Listen in your browser - HTML5 player(in browser, HTML5)
Click here to listen with your own player(launches your MP3 player)

KBIS 040052Z AUTO 31012KT 10SM FEW100 28/07 A2976 RMK AO2 SLP072 T02780067

KBIS Airport Info (Airnav.com)

KBIS Flight Activity (Flightaware)

Listeners: 0 out of 914 total

Bismarck Approach/Departure: 126.300
Bismarck Tower: 118.300

KBJC Ground/Tower (Archives)
Denver, Colorado, United States

Feed Status: UP
Listen in your browser - HTML5 player(in browser, HTML5)
Click here to listen with your own player(launches your MP3 player)

KBJC 032353Z 02013G20KT 10SM SCT080 BKN120 25/03 A3005

KBJC Airport Info (Airnav.com)

KBJC Flight Activity (Flightaware)

Listeners: 5 out of 914 total

Metro Ground: 121.700
Metro Tower: 118.600

KBJI CTAF/ZMP (Archives)
Bemidji, Minnesota, United States

Feed Status: UP
Listen in your browser - HTML5 player(in browser, HTML5)
Click here to listen with your own player(launches your MP3 player)

KBJI 040055Z AUTO 15004KT 10SM CLR 22/07 A2979 RMK AO2 T02180070

KBJI Airport Info (Airnav.com)

KBJI Flight Activity (Flightaware)

Listeners: 0 out of 914 total

Bemidji CTAF: 122.800
Minneapolis Center (Sector 25 Low/High): 134.750

KBKF Tower (UHF) (Archives)
Aurora, Colorado, United States

Feed Status: UP
Listen in your browser - HTML5 player(in browser, HTML5)
Click here to listen with your own player(launches your MP3 player)

KBKF 040027Z 36011KT 10SM VCTS BKN070 BKN120 BKN220 25/05 A3008 RMK AO2A PRESRR SLP115

KBKF Airport Info (Airnav.com)

KBKF Flight Activity (Flightaware)

Listeners: 0 out of 914 total

Buckley Tower: 291.675

KBKF Tower (VHF) (Archives)
Aurora, Colorado, United States

Feed Status: UP
Listen in your browser - HTML5 player(in browser, HTML5)
Click here to listen with your own player(launches your MP3 player)

KBKF 040027Z 36011KT 10SM VCTS BKN070 BKN120 BKN220 25/05 A3008 RMK AO2A PRESRR SLP115

KBKF Airport Info (Airnav.com)

KBKF Flight Activity (Flightaware)

Listeners: 0 out of 914 total

Buckley Tower: 121.000

KBKF Tower (VHF/UHF) (Archives)
Aurora, Colorado, United States

Feed Status: UP
Listen in your browser - HTML5 player(in browser, HTML5)
Click here to listen with your own player(launches your MP3 player)

KBKF 040027Z 36011KT 10SM VCTS BKN070 BKN120 BKN220 25/05 A3008 RMK AO2A PRESRR SLP115

KBKF Airport Info (Airnav.com)

KBKF Flight Activity (Flightaware)

Listeners: 0 out of 914 total

Buckley Tower: 121.000
Buckley Tower: 291.675

KBLI Tower (Archives)
Bellingham, Washington, United States

Feed Status: UP
Listen in your browser - HTML5 player(in browser, HTML5)
Click here to listen with your own player(launches your MP3 player)

KBLI 040053Z VRB05KT 10SM CLR 17/07 A3012 RMK AO2 SLP207 T01670067

KBLI Airport Info (Airnav.com)

KBLI Flight Activity (Flightaware)

Listeners: 0 out of 914 total

Bellingham Tower: 124.900

KBLM/N12/3N6/KMJX (Archives)
Belmar/Farmingdale, New Jersey, United States

Feed Status: UP
Listen in your browser - HTML5 player(in browser, HTML5)
Click here to listen with your own player(launches your MP3 player)

KBLM 040056Z AUTO 18005KT 10SM FEW050 SCT065 SCT080 23/23 A2969 RMK AO2 RAB00E45 SLP054 P0001 T02280228

KBLM Airport Info (Airnav.com)

KBLM Flight Activity (Flightaware)

Listeners: 0 out of 914 total

3N6 Old Bridge CTAF: 123.075
Emergency/Guard: 121.500
Monmouth Clearance: 120.950
Monmouth Clearance: 126.150
Monmouth CTAF: 123.000
N12 Lakewood CTAF: 122.800
Ocean County KMJX CTAF: 122.700

KBMG Approach/Departure (Archives)
Bloomington, Indiana, United States

Feed Status: UP
Listen in your browser - HTML5 player(in browser, HTML5)
Click here to listen with your own player(launches your MP3 player)

KBMG 040053Z 19004KT 10SM FEW060 27/17 A2984 RMK AO2 SLP095 T02670172

KBMG Airport Info (Airnav.com)

KBMG Flight Activity (Flightaware)

Listeners: 0 out of 914 total

Emergency/Guard: 121.500
Emergency/Guard: 243.000
Hulman Approach: 128.025

KBMG Tower (Archives)
Bloomington, Indiana, United States

Feed Status: UP
Listen in your browser - HTML5 player(in browser, HTML5)
Click here to listen with your own player(launches your MP3 player)

KBMG 040053Z 19004KT 10SM FEW060 27/17 A2984 RMK AO2 SLP095 T02670172

KBMG Airport Info (Airnav.com)

KBMG Flight Activity (Flightaware)

Listeners: 1 out of 914 total

Bloomington Tower: 120.775

KBMG Twr/App (Archives)
Bloomington, Indiana, United States

Feed Status: UP
Listen in your browser - HTML5 player(in browser, HTML5)
Click here to listen with your own player(launches your MP3 player)

KBMG 040053Z 19004KT 10SM FEW060 27/17 A2984 RMK AO2 SLP095 T02670172

KBMG Airport Info (Airnav.com)

KBMG Flight Activity (Flightaware)

Listeners: 0 out of 914 total

Bloomington Tower: 120.775
Emergency/Guard: 121.500
Emergency/Guard: 243.000
Hulman Approach: 128.025

KBMI Gnd/Twr/App/Dep (Archives)
Bloomington/Normal, Illinois, United States

Feed Status: UP
Listen in your browser - HTML5 player(in browser, HTML5)
Click here to listen with your own player(launches your MP3 player)

KBMI 040056Z 06007KT 10SM OVC080 25/18 A2981 RMK AO2 SLP085 T02500178

KBMI Airport Info (Airnav.com)

KBMI Flight Activity (Flightaware)

Listeners: 0 out of 914 total

Bloomington Ground: 121.650
Bloomington Tower: 124.600
Peoria Approach/Departure: 128.725

KBNW CTAF
Boone, Iowa, United States

Feed Status: DOWN
Offline since: 2020-06-03 13:45:21 UTC

KBNW 040055Z AUTO 01007KT 10SM CLR 28/12 A2977 RMK AO2

KBNW Airport Info (Airnav.com)

Boone CTAF/UNICOM: 123.000

KBOK CTAF
Brookings, Oregon, United States

Feed Status: DOWN
Offline since: 2019-07-30 22:57:39 UTC

KBOK 040056Z AUTO 15007KT 10SM CLR 17/11 A3004 RMK AO2 SLP173 T01720111

KBOK Airport Info (Airnav.com)

Brookings CTAF: 122.800

KBOW AWOS (Archives)
Bartow, Florida, United States

Feed Status: UP
Listen in your browser - HTML5 player(in browser, HTML5)
Click here to listen with your own player(launches your MP3 player)

KBOW 040055Z AUTO 00000KT 10SM -RA FEW008 SCT060 BKN110 23/22 A3000 RMK AO2

KBOW Airport Info (Airnav.com)

KBOW Flight Activity (Flightaware)

Listeners: 0 out of 914 total

Bartow AWOS: 123.775

KBOW Emergency/Guard (Archives)
Bartow, Florida, United States

Feed Status: UP
Listen in your browser - HTML5 player(in browser, HTML5)
Click here to listen with your own player(launches your MP3 player)

KBOW 040055Z AUTO 00000KT 10SM -RA FEW008 SCT060 BKN110 23/22 A3000 RMK AO2

KBOW Airport Info (Airnav.com)

KBOW Flight Activity (Flightaware)

Listeners: 0 out of 914 total

Emergency/Guard: 121.500

KBOW Ground (Archives)
Bartow, Florida, United States

Feed Status: UP
Listen in your browser - HTML5 player(in browser, HTML5)
Click here to listen with your own player(launches your MP3 player)

KBOW 040055Z AUTO 00000KT 10SM -RA FEW008 SCT060 BKN110 23/22 A3000 RMK AO2

KBOW Airport Info (Airnav.com)

KBOW Flight Activity (Flightaware)

Listeners: 0 out of 914 total

Bartow Ground: 121.900

KBOW Tower/CTAF (Archives)
Bartow, Florida, United States

Feed Status: UP
Listen in your browser - HTML5 player(in browser, HTML5)
Click here to listen with your own player(launches your MP3 player)

KBOW 040055Z AUTO 00000KT 10SM -RA FEW008 SCT060 BKN110 23/22 A3000 RMK AO2

KBOW Airport Info (Airnav.com)

KBOW Flight Activity (Flightaware)

Listeners: 0 out of 914 total

Bartow Tower: 121.200

KBOW UNICOM (Archives)
Bartow, Florida, United States

Feed Status: UP
Listen in your browser - HTML5 player(in browser, HTML5)
Click here to listen with your own player(launches your MP3 player)

KBOW 040055Z AUTO 00000KT 10SM -RA FEW008 SCT060 BKN110 23/22 A3000 RMK AO2

KBOW Airport Info (Airnav.com)

KBOW Flight Activity (Flightaware)

Listeners: 0 out of 914 total

Bartow UNICOM: 122.950

KBPK CTAF (Archives)
Mountain Home, Arkansas, United States

Feed Status: UP
Listen in your browser - HTML5 player(in browser, HTML5)
Click here to listen with your own player(launches your MP3 player)

KBPK 040053Z AUTO 23004KT 10SM CLR 22/21 A2989 RMK AO2 SLP112 T02170211

KBPK Airport Info (Airnav.com)

KBPK Flight Activity (Flightaware)

Listeners: 0 out of 914 total

Baxter County CTAF: 123.000

KBTL/KAZO Gnd/Twr/App (Archives)
Battle Creek, Michigan, United States

Feed Status: UP
Listen in your browser - HTML5 player(in browser, HTML5)
Click here to listen with your own player(launches your MP3 player)

KBTL Airport Info (Airnav.com)

KBTL Flight Activity (Flightaware)

Listeners: 0 out of 914 total

Battle Creek Ground: 121.700
Battle Creek Tower: 126.825
Kalamazoo Approach/Departure: 119.200
Kalamazoo Ground: 121.900
Kalamazoo Tower: 118.300

3CK/KBUU CTAF (Archives)
Burlington, Wisconsin, United States

Feed Status: UP
Listen in your browser - HTML5 player(in browser, HTML5)
Click here to listen with your own player(launches your MP3 player)

K3CK Airport Info (Airnav.com)

K3CK Flight Activity (Flightaware)

Listeners: 1 out of 914 total

Lake in the Hills CTAF: 123.050

KBVI Ground (Archives)
Beaver Falls, Pennsylvania, United States

Feed Status: UP
Listen in your browser - HTML5 player(in browser, HTML5)
Click here to listen with your own player(launches your MP3 player)

KBVI 040056Z AUTO 30003KT 10SM BKN120 24/16 A2981 RMK AO2 T02420156

KBVI Airport Info (Airnav.com)

KBVI Flight Activity (Flightaware)

Listeners: 0 out of 914 total

Beaver County Clearance (when Tower closed): 124.850
Beaver County Ground: 121.800

KBVI Ground/Tower (Archives)
Beaver Falls, Pennsylvania, United States

Feed Status: UP
Listen in your browser - HTML5 player(in browser, HTML5)
Click here to listen with your own player(launches your MP3 player)

KBVI 040056Z AUTO 30003KT 10SM BKN120 24/16 A2981 RMK AO2 T02420156

KBVI Airport Info (Airnav.com)

KBVI Flight Activity (Flightaware)

Listeners: 0 out of 914 total

Beaver County Clearance (when Tower closed): 124.850
Beaver County Ground: 121.800
Beaver County Tower: 120.300

KBVI Tower (Archives)
Beaver Falls, Pennsylvania, United States

Feed Status: UP
Listen in your browser - HTML5 player(in browser, HTML5)
Click here to listen with your own player(launches your MP3 player)

KBVI 040056Z AUTO 30003KT 10SM BKN120 24/16 A2981 RMK AO2 T02420156

KBVI Airport Info (Airnav.com)

KBVI Flight Activity (Flightaware)

Listeners: 0 out of 914 total

Beaver County Tower: 120.300

KBVI Tower (Archives)
Beaver Falls, Pennsylvania, United States

Feed Status: UP
Listen in your browser - HTML5 player(in browser, HTML5)
Click here to listen with your own player(launches your MP3 player)

KBVI 040056Z AUTO 30003KT 10SM BKN120 24/16 A2981 RMK AO2 T02420156

KBVI Airport Info (Airnav.com)

KBVI Flight Activity (Flightaware)

Listeners: 0 out of 914 total

Beaver County Tower: 120.300

KBVY ATIS (Archives)
Beverly, Massachusetts, United States

Feed Status: UP
Listen in your browser - HTML5 player(in browser, HTML5)
Click here to listen with your own player(launches your MP3 player)

KBVY 040053Z 28006KT 10SM SCT075 BKN100 21/17 A2957 RMK AO2 RAB17E30 SLP007 P0000 T02110172

KBVY Airport Info (Airnav.com)

KBVY Flight Activity (Flightaware)

Listeners: 0 out of 914 total

Beverly ATIS: 119.200

KBVY Ground (Archives)
Beverly, Massachusetts, United States

Feed Status: UP
Listen in your browser - HTML5 player(in browser, HTML5)
Click here to listen with your own player(launches your MP3 player)

KBVY 040053Z 28006KT 10SM SCT075 BKN100 21/17 A2957 RMK AO2 RAB17E30 SLP007 P0000 T02110172

KBVY Airport Info (Airnav.com)

KBVY Flight Activity (Flightaware)

Listeners: 0 out of 914 total

Beverly Ground: 121.600

KBVY Tower #1 (Archives)
Beverly, Massachusetts, United States

Feed Status: UP
Listen in your browser - HTML5 player(in browser, HTML5)
Click here to listen with your own player(launches your MP3 player)

KBVY 040053Z 28006KT 10SM SCT075 BKN100 21/17 A2957 RMK AO2 RAB17E30 SLP007 P0000 T02110172

KBVY Airport Info (Airnav.com)

KBVY Flight Activity (Flightaware)

Listeners: 2 out of 914 total

Beverly Tower: 125.200

KBVY Tower #2 (Archives)
Beverly, Massachusetts, United States

Feed Status: UP
Listen in your browser - HTML5 player(in browser, HTML5)
Click here to listen with your own player(launches your MP3 player)

KBVY 040053Z 28006KT 10SM SCT075 BKN100 21/17 A2957 RMK AO2 RAB17E30 SLP007 P0000 T02110172

KBVY Airport Info (Airnav.com)

KBVY Flight Activity (Flightaware)

Listeners: 0 out of 914 total

Beverly Tower: 125.200

KBXM CTAF/AWOS (Archives)
Brunswick, Maine, United States

Feed Status: UP
Listen in your browser - HTML5 player(in browser, HTML5)
Click here to listen with your own player(launches your MP3 player)

KBXM Airport Info (Airnav.com)

KBXM Flight Activity (Flightaware)

Listeners: 0 out of 914 total

Brunswick CTAF/UNICOM: 122.725
Clearance (GCO): 121.725
KBXM AWOS: 134.875

KBZN App/Dep (Archives)
Bozeman, Montana, United States

Feed Status: UP
Listen in your browser - HTML5 player(in browser, HTML5)
Click here to listen with your own player(launches your MP3 player)

KBZN 040056Z 35009KT 10SM SCT110 21/06 A2990 RMK AO2 SLP097 T02110061

KBZN Airport Info (Airnav.com)

KBZN Flight Activity (Flightaware)

Listeners: 0 out of 914 total

Big Sky Approach/Departure: 118.975

KBZN ATIS (Archives)
Bozeman, Montana, United States

Feed Status: UP
Listen in your browser - HTML5 player(in browser, HTML5)
Click here to listen with your own player(launches your MP3 player)

KBZN 040056Z 35009KT 10SM SCT110 21/06 A2990 RMK AO2 SLP097 T02110061

KBZN Airport Info (Airnav.com)

KBZN Flight Activity (Flightaware)

Listeners: 0 out of 914 total

Bozeman ATIS: 135.425

KBZN Ground (Archives)
Bozeman, Montana, United States

Feed Status: UP
Listen in your browser - HTML5 player(in browser, HTML5)
Click here to listen with your own player(launches your MP3 player)

KBZN 040056Z 35009KT 10SM SCT110 21/06 A2990 RMK AO2 SLP097 T02110061

KBZN Airport Info (Airnav.com)

KBZN Flight Activity (Flightaware)

Listeners: 0 out of 914 total

Bozeman Ground: 121.800

KBZN Tower #1
Bozeman, Montana, United States

Feed Status: DOWN
Offline since: 2019-12-19 20:24:05 UTC

KBZN 040056Z 35009KT 10SM SCT110 21/06 A2990 RMK AO2 SLP097 T02110061

KBZN Airport Info (Airnav.com)

Bozeman Tower/CTAF: 118.200

KBZN Tower #2 (Archives)
Bozeman, Montana, United States

Feed Status: UP
Listen in your browser - HTML5 player(in browser, HTML5)
Click here to listen with your own player(launches your MP3 player)

KBZN 040056Z 35009KT 10SM SCT110 21/06 A2990 RMK AO2 SLP097 T02110061

KBZN Airport Info (Airnav.com)

KBZN Flight Activity (Flightaware)

Listeners: 1 out of 914 total

Bozeman Tower/CTAF: 118.200

KCCB CTAF (Archives)
Upland, California, United States

Feed Status: UP
Listen in your browser - HTML5 player(in browser, HTML5)
Click here to listen with your own player(launches your MP3 player)

KCCB Airport Info (Airnav.com)

KCCB Flight Activity (Flightaware)

Listeners: 0 out of 914 total

Upland CTAF: 123.000

KCCO Area Air-to-Air (Archives)
Atlanta, Georgia, United States

Feed Status: UP
Listen in your browser - HTML5 player(in browser, HTML5)
Click here to listen with your own player(launches your MP3 player)

KCCO 040055Z AUTO 00000KT 10SM CLR 27/22 A2998 RMK AO2 T02680221

KCCO Airport Info (Airnav.com)

KCCO Flight Activity (Flightaware)

Listeners: 0 out of 914 total

Newnan Area Air to Air: 123.450

KCCO AWOS (Archives)
Atlanta, Georgia, United States

Feed Status: UP
Listen in your browser - HTML5 player(in browser, HTML5)
Click here to listen with your own player(launches your MP3 player)

KCCO 040055Z AUTO 00000KT 10SM CLR 27/22 A2998 RMK AO2 T02680221

KCCO Airport Info (Airnav.com)

KCCO Flight Activity (Flightaware)

Listeners: 0 out of 914 total

Newnan AWOS: 118.975

KCCO CTAF (Archives)
Atlanta, Georgia, United States

Feed Status: UP
Listen in your browser - HTML5 player(in browser, HTML5)
Click here to listen with your own player(launches your MP3 player)

KCCO 040055Z AUTO 00000KT 10SM CLR 27/22 A2998 RMK AO2 T02680221

KCCO Airport Info (Airnav.com)

KCCO Flight Activity (Flightaware)

Listeners: 0 out of 914 total

Emergency/Guard: 121.500
Flight School Company Channel: 123.300
Newnan CTAF: 122.700

KCCO Emergency/Guard (Archives)
Atlanta, Georgia, United States

Feed Status: UP
Listen in your browser - HTML5 player(in browser, HTML5)
Click here to listen with your own player(launches your MP3 player)

KCCO 040055Z AUTO 00000KT 10SM CLR 27/22 A2998 RMK AO2 T02680221

KCCO Airport Info (Airnav.com)

KCCO Flight Activity (Flightaware)

Listeners: 0 out of 914 total

Emergency/Guard: 121.500

KCCR Gnd/Twr (Archives)
Concord, California, United States

Feed Status: UP
Listen in your browser - HTML5 player(in browser, HTML5)
Click here to listen with your own player(launches your MP3 player)

KCCR 040053Z 29012KT 10SM CLR 36/12 A2984 RMK AO2 SLP092 T03610122

KCCR Airport Info (Airnav.com)

KCCR Flight Activity (Flightaware)

Listeners: 0 out of 914 total

Concord Ground: 121.900
Concord Tower: 119.700

51FL/KCDK/KCTY/X60 CTAF (Archives)
Cedar Key, Florida, United States

Feed Status: UP
Listen in your browser - HTML5 player(in browser, HTML5)
Click here to listen with your own player(launches your MP3 player)


Listeners: 0 out of 914 total

Cedar Key CTAF: 122.900
Cross City CTAF: 122.800
Emergency/Guard: 121.500
Jacksonville Approach/Departure: 118.600
Jacksonville Center: 127.800
Williston CTAF: 122.975

KCDW Del/Gnd/Twr (Archives)
Caldwell, New Jersey, United States

Feed Status: UP
Listen in your browser - HTML5 player(in browser, HTML5)
Click here to listen with your own player(launches your MP3 player)

KCDW 040053Z AUTO 30006G16KT 4SM RA SCT032 SCT049 OVC095 23/19 A2968 RMK AO2 LTG DSNT NE RAB41 SLP055 P0012 T02280194

KCDW Airport Info (Airnav.com)

KCDW Flight Activity (Flightaware)

Listeners: 1 out of 914 total

Caldwell Clearance: 121.100
Caldwell Ground: 121.900
Caldwell Tower: 119.800

KCEU CTAF/App
Clemson, South Carolina, United States

Feed Status: DOWN
Offline since: 2019-10-13 21:53:39 UTC

KCEU Airport Info (Airnav.com)

CTAF: 122.700
Greer Approach/Departure: 118.800

KCEZ CTAF/ZDV
Cortez, Colorado, United States

Feed Status: DOWN
Offline since: 2020-02-08 02:53:39 UTC

KCEZ 040053Z AUTO 28011G18KT 10SM CLR 31/M01 A3008 RMK AO2 SLP106 T03111011

KCEZ Airport Info (Airnav.com)

Cortez CTAF: 122.800
Denver Center (Sector 36 Farmington Low): 118.575
Emergency/Guard: 121.500

KCFD CTAF/App
Bryan, Texas, United States

Feed Status: DOWN
Offline since: 2020-06-03 23:47:39 UTC

KCFD 040055Z AUTO 15005KT 10SM CLR 27/23 A2992 RMK AO2 T02650225

KCFD Airport Info (Airnav.com)

Bryan CTAF/UNICOM: 123.000
Houston Approach/Departure: 134.300

KCGZ AWOS (Archives)
Casa Grande, Arizona, United States

Feed Status: UP
Listen in your browser - HTML5 player(in browser, HTML5)
Click here to listen with your own player(launches your MP3 player)

KCGZ 040056Z AUTO 24004KT 10SM CLR 41/06 A2974 RMK AO2 SLP053 T04110056

KCGZ Airport Info (Airnav.com)

KCGZ Flight Activity (Flightaware)

Listeners: 0 out of 914 total

Casa Grande AWOS: 132.175

KCGZ CTAF (Archives)
Casa Grande, Arizona, United States

Feed Status: UP
Listen in your browser - HTML5 player(in browser, HTML5)
Click here to listen with your own player(launches your MP3 player)

KCGZ 040056Z AUTO 24004KT 10SM CLR 41/06 A2974 RMK AO2 SLP053 T04110056

KCGZ Airport Info (Airnav.com)

KCGZ Flight Activity (Flightaware)

Listeners: 0 out of 914 total

Casa Grande CTAF: 122.700

KCGZ SE/SW Practice Area (Archives)
Casa Grande, Arizona, United States

Feed Status: UP
Listen in your browser - HTML5 player(in browser, HTML5)
Click here to listen with your own player(launches your MP3 player)

KCGZ 040056Z AUTO 24004KT 10SM CLR 41/06 A2974 RMK AO2 SLP053 T04110056

KCGZ Airport Info (Airnav.com)

KCGZ Flight Activity (Flightaware)

Listeners: 0 out of 914 total

Casa Grande SE Practice Area: 122.850

KCHD Tower (North) (Archives)
Chandler, Arizona, United States

Feed Status: UP
Listen in your browser - HTML5 player(in browser, HTML5)
Click here to listen with your own player(launches your MP3 player)

KCHD 040047Z 22006KT 10SM CLR 42/03 A2972

KCHD Airport Info (Airnav.com)

KCHD Flight Activity (Flightaware)

Listeners: 0 out of 914 total

Chandler Tower (North): 126.100

KCHD Tower (South) (Archives)
Chandler, Arizona, United States

Feed Status: UP
Listen in your browser - HTML5 player(in browser, HTML5)
Click here to listen with your own player(launches your MP3 player)

KCHD 040047Z 22006KT 10SM CLR 42/03 A2972

KCHD Airport Info (Airnav.com)

KCHD Flight Activity (Flightaware)

Listeners: 0 out of 914 total

Chandler Tower (South): 133.100

KCHK CTAF (Archives)
Chickasha, Oklahoma, United States

Feed Status: UP
Listen in your browser - HTML5 player(in browser, HTML5)
Click here to listen with your own player(launches your MP3 player)

KCHK 040035Z AUTO 17012KT 10SM CLR 32/21 A2980 RMK AO2 T03170205

KCHK Airport Info (Airnav.com)

KCHK Flight Activity (Flightaware)

Listeners: 0 out of 914 total

Chickasha CTAF: 123.000

KCHO Tower (Archives)
Charlottesville, Virginia, United States

Feed Status: UP
Listen in your browser - HTML5 player(in browser, HTML5)
Click here to listen with your own player(launches your MP3 player)

KCHO 040053Z 22003KT 10SM CLR 29/16 A2978 RMK AO2 SLP075 T02940156

KCHO Airport Info (Airnav.com)

KCHO Flight Activity (Flightaware)

Listeners: 0 out of 914 total

Charlottesville Tower: 124.500

KCHO Tower/App (Archives)
Charlottesville, Virginia, United States

Feed Status: UP
Listen in your browser - HTML5 player(in browser, HTML5)
Click here to listen with your own player(launches your MP3 player)

KCHO 040053Z 22003KT 10SM CLR 29/16 A2978 RMK AO2 SLP075 T02940156

KCHO Airport Info (Airnav.com)

KCHO Flight Activity (Flightaware)

Listeners: 0 out of 914 total

Charlottesville Tower: 124.500
Potomac Approach/Departure: 132.850

KCIC Tower/ZOA42 (Archives)
Chico, California, United States

Feed Status: UP
Listen in your browser - HTML5 player(in browser, HTML5)
Click here to listen with your own player(launches your MP3 player)

KCIC 040054Z 15011KT 80SM SCT200 36/03 A2983

KCIC Airport Info (Airnav.com)

KCIC Flight Activity (Flightaware)

Listeners: 1 out of 914 total

Chico CTAF/Tower: 121.000
Oakland Center (Sector 42 Low): 132.200

KCID Gnd/Twr/App/KIOW (Archives)
Cedar Rapids, Iowa, United States

Feed Status: UP
Listen in your browser - HTML5 player(in browser, HTML5)
Click here to listen with your own player(launches your MP3 player)

KCID 040052Z 02005KT 10SM CLR 27/21 A2975 RMK AO2 SLP068 T02720206

KCID Airport Info (Airnav.com)

KCID Flight Activity (Flightaware)

Listeners: 0 out of 914 total

Cedar Rapids Approach (091-269): 119.700
Cedar Rapids Approach (270-090): 134.050
Cedar Rapids Clearance Delivery: 125.450
Cedar Rapids Ground (0500-2330): 121.600
Cedar Rapids Tower (0500-2330): 118.700
UNICOM C17 (Marion) and surrounding area: 122.700
UNICOM IA24 Green Castle: 122.900
UNICOM KIOW (Iowa City) and surrounding area: 122.800

KCIU CTAF (Air Race Classic)
Sault Ste Marie, Michigan, United States

Feed Status: DOWN
Offline since: 2019-06-24 17:12:02 UTC

Chippewa CTAF: 123.000

KCKB App/Dep (Archives)
Clarksburg, West Virginia, United States

Feed Status: UP
Listen in your browser - HTML5 player(in browser, HTML5)
Click here to listen with your own player(launches your MP3 player)

KCKB 040053Z 18003KT 10SM OVC090 20/17 A2986 RMK AO2 LTG DSNT W SLP097 T02000167

KCKB Airport Info (Airnav.com)

KCKB Flight Activity (Flightaware)

Listeners: 0 out of 914 total

Clarksburg Approach (East): 121.150
Clarksburg Approach (West): 119.600

KCKB App/Dep (East) (Archives)
Clarksburg, West Virginia, United States

Feed Status: UP
Listen in your browser - HTML5 player(in browser, HTML5)
Click here to listen with your own player(launches your MP3 player)

KCKB 040053Z 18003KT 10SM OVC090 20/17 A2986 RMK AO2 LTG DSNT W SLP097 T02000167

KCKB Airport Info (Airnav.com)

KCKB Flight Activity (Flightaware)

Listeners: 0 out of 914 total

Clarksburg Approach (East): 121.150

KCKB App/Dep (West) (Archives)
Clarksburg, West Virginia, United States

Feed Status: UP
Listen in your browser - HTML5 player(in browser, HTML5)
Click here to listen with your own player(launches your MP3 player)

KCKB 040053Z 18003KT 10SM OVC090 20/17 A2986 RMK AO2 LTG DSNT W SLP097 T02000167

KCKB Airport Info (Airnav.com)

KCKB Flight Activity (Flightaware)

Listeners: 0 out of 914 total

Clarksburg Approach (West): 119.600

KCKB Emergency/Guard (Archives)
Clarksburg, West Virginia, United States

Feed Status: UP
Listen in your browser - HTML5 player(in browser, HTML5)
Click here to listen with your own player(launches your MP3 player)

KCKB 040053Z 18003KT 10SM OVC090 20/17 A2986 RMK AO2 LTG DSNT W SLP097 T02000167

KCKB Airport Info (Airnav.com)

KCKB Flight Activity (Flightaware)

Listeners: 0 out of 914 total

Emergency/Guard: 121.500

KCKB Ground (Archives)
Clarksburg, West Virginia, United States

Feed Status: UP
Listen in your browser - HTML5 player(in browser, HTML5)
Click here to listen with your own player(launches your MP3 player)

KCKB 040053Z 18003KT 10SM OVC090 20/17 A2986 RMK AO2 LTG DSNT W SLP097 T02000167

KCKB Airport Info (Airnav.com)

KCKB Flight Activity (Flightaware)

Listeners: 0 out of 914 total

Clarksburg Ground: 121.900

KCKB Ground/Tower (Archives)
Clarksburg, West Virginia, United States

Feed Status: UP
Listen in your browser - HTML5 player(in browser, HTML5)
Click here to listen with your own player(launches your MP3 player)

KCKB 040053Z 18003KT 10SM OVC090 20/17 A2986 RMK AO2 LTG DSNT W SLP097 T02000167

KCKB Airport Info (Airnav.com)

KCKB Flight Activity (Flightaware)

Listeners: 0 out of 914 total

Clarksburg Ground: 121.900
Clarksburg Tower: 126.700

KCKB Tower (Archives)
Clarksburg, West Virginia, United States

Feed Status: UP
Listen in your browser - HTML5 player(in browser, HTML5)
Click here to listen with your own player(launches your MP3 player)

KCKB 040053Z 18003KT 10SM OVC090 20/17 A2986 RMK AO2 LTG DSNT W SLP097 T02000167

KCKB Airport Info (Airnav.com)

KCKB Flight Activity (Flightaware)

Listeners: 0 out of 914 total

Clarksburg Tower: 126.700

KCLL Gnd/Twr/App
College Station, Texas, United States

Feed Status: DOWN
Offline since: 2019-05-20 16:40:02 UTC

KCLL 040053Z 16007KT 10SM CLR 26/22 A2990 RMK AO2 SLP120 T02610217

KCLL Airport Info (Airnav.com)

Easterwood Ground: 128.700
Easterwood Tower: 118.500
Houston Approach (NW/below 8000): 134.300

KCLM Del/CTAF/App (Archives)
Port Angeles, Washington, United States

Feed Status: UP
Listen in your browser - HTML5 player(in browser, HTML5)
Click here to listen with your own player(launches your MP3 player)

KCLM 040053Z AUTO 29007KT 260V320 10SM BKN047 14/09 A3017 RMK AO2 SLP217 T01390089

KCLM Airport Info (Airnav.com)

KCLM Flight Activity (Flightaware)

Listeners: 0 out of 914 total

Clearance Delivery: 124.150
Fairchild CTAF: 122.975
Seattle Radio (Port Angeles RCO): 122.600
Whidbey Approach: 118.200

KCMA ATIS (Archives)
Camarillo, California, United States

Feed Status: UP
Listen in your browser - HTML5 player(in browser, HTML5)
Click here to listen with your own player(launches your MP3 player)

KCMA 040055Z 24003KT 10SM CLR 27/13 A2978 RMK AO2 SLP093 T02670133

KCMA Airport Info (Airnav.com)

KCMA Flight Activity (Flightaware)

Listeners: 0 out of 914 total

Camarillo ATIS: 126.025

KCMA Gnd/Twr/App (Archives)
Camarillo, California, United States

Feed Status: UP
Listen in your browser - HTML5 player(in browser, HTML5)
Click here to listen with your own player(launches your MP3 player)

KCMA 040055Z 24003KT 10SM CLR 27/13 A2978 RMK AO2 SLP093 T02670133

KCMA Airport Info (Airnav.com)

KCMA Flight Activity (Flightaware)

Listeners: 0 out of 914 total

Camarillo Ground: 121.800
Camarillo Tower: 128.200
Point Mugu Approach: 124.700

KCNO Ground (Archives)
Chino, California, United States

Feed Status: UP
Listen in your browser - HTML5 player(in browser, HTML5)
Click here to listen with your own player(launches your MP3 player)

KCNO 040053Z AUTO 24014KT 10SM CLR 34/10 A2980 RMK AO2 SLP083 T03390100 $

KCNO Airport Info (Airnav.com)

KCNO Flight Activity (Flightaware)

Listeners: 0 out of 914 total

Chino Ground: 121.600

KCNO Ground/Tower (Archives)
Chino, California, United States

Feed Status: UP
Listen in your browser - HTML5 player(in browser, HTML5)
Click here to listen with your own player(launches your MP3 player)

KCNO 040053Z AUTO 24014KT 10SM CLR 34/10 A2980 RMK AO2 SLP083 T03390100 $

KCNO Airport Info (Airnav.com)

KCNO Flight Activity (Flightaware)

Listeners: 0 out of 914 total

Chino Ground: 121.600
Chino Tower: 118.500

KCNO Tower (Archives)
Chino, California, United States

Feed Status: UP
Listen in your browser - HTML5 player(in browser, HTML5)
Click here to listen with your own player(launches your MP3 player)

KCNO 040053Z AUTO 24014KT 10SM CLR 34/10 A2980 RMK AO2 SLP083 T03390100 $

KCNO Airport Info (Airnav.com)

KCNO Flight Activity (Flightaware)

Listeners: 0 out of 914 total

Chino Tower: 118.500

MA/NH/RI/CT Area CTAF (Archives)
Concord, New Hampshire, United States

Feed Status: UP
Listen in your browser - HTML5 player(in browser, HTML5)
Click here to listen with your own player(launches your MP3 player)

KBOS 040054Z 31010KT 10SM FEW008 SCT045 BKN065 BKN200 23/16 A2959 RMK AO2 SLP019 SHRA NE-E T02280156

KBOS Airport Info (Airnav.com)

KBOS Flight Activity (Flightaware)

Listeners: 0 out of 914 total

Air-to-Air: 122.750
Bridgeport Flight Service: 122.200
CTAF: 122.700
CTAF: 122.800
CTAF: 122.900
CTAF: 123.000
Emergency/Guard: 121.500

MA/NH/RI/CT Area CTAF (Archives)
Concord, New Hampshire, United States

Feed Status: UP
Listen in your browser - HTML5 player(in browser, HTML5)
Click here to listen with your own player(launches your MP3 player)

KBOS 040054Z 31010KT 10SM FEW008 SCT045 BKN065 BKN200 23/16 A2959 RMK AO2 SLP019 SHRA NE-E T02280156

KBOS Airport Info (Airnav.com)

KBOS Flight Activity (Flightaware)

Listeners: 0 out of 914 total

Air-to-Air: 122.750
Bridgeport Flight Service: 122.200
CTAF: 122.700
CTAF: 122.800
CTAF: 122.900
CTAF: 123.000
Emergency/Guard: 121.500

MA/NH/RI/CT Area CTAF (Archives)
Concord, New Hampshire, United States

Feed Status: UP
Listen in your browser - HTML5 player(in browser, HTML5)
Click here to listen with your own player(launches your MP3 player)

KBOS 040054Z 31010KT 10SM FEW008 SCT045 BKN065 BKN200 23/16 A2959 RMK AO2 SLP019 SHRA NE-E T02280156

KBOS Airport Info (Airnav.com)

KBOS Flight Activity (Flightaware)

Listeners: 0 out of 914 total

Air-to-Air: 122.750
Bridgeport Flight Service: 122.200
CTAF: 122.700
CTAF: 122.800
CTAF: 122.900
CTAF: 123.000
Emergency/Guard: 121.500

KCOU CTAF/Gnd/App (Archives)
Columbia, Missouri, United States

Feed Status: UP
Listen in your browser - HTML5 player(in browser, HTML5)
Click here to listen with your own player(launches your MP3 player)

KCOU 040054Z 18006KT 10SM CLR 28/22 A2980 RMK AO2 LTG DSNT N AND NE SLP080 T02830217

KCOU Airport Info (Airnav.com)

KCOU Flight Activity (Flightaware)

Listeners: 0 out of 914 total

Columbia CTAF: 119.300
Columbia Ground: 121.600
Columbia UNICOM: 122.950
Mizzou Approach/Departure: 124.375

KCPM CTAF (Archives)
Compton, California, United States

Feed Status: UP
Listen in your browser - HTML5 player(in browser, HTML5)
Click here to listen with your own player(launches your MP3 player)

KCPM Airport Info (Airnav.com)

KCPM Flight Activity (Flightaware)

Listeners: 0 out of 914 total

Compton CTAF: 123.050

KCPR Tower/App (Archives)
Casper, Wyoming, United States

Feed Status: UP
Listen in your browser - HTML5 player(in browser, HTML5)
Click here to listen with your own player(launches your MP3 player)

KCPR 040053Z 28011G20KT 10SM CLR 24/01 A2997 RMK AO2 SLP084 T02440006

KCPR Airport Info (Airnav.com)

KCPR Flight Activity (Flightaware)

Listeners: 0 out of 914 total

Casper Approach: 120.650
Casper Tower: 118.300

KCPS Del/Gnd/Twr/App (Archives)
Cahokia/St Louis, Illinois, United States

Feed Status: UP
Listen in your browser - HTML5 player(in browser, HTML5)
Click here to listen with your own player(launches your MP3 player)

KCPS 040053Z AUTO 19008G16KT 10SM CLR 30/22 A2978 RMK AO2 LTG DSNT SW AND W SLP080 T03000217

KCPS Airport Info (Airnav.com)

KCPS Flight Activity (Flightaware)

Listeners: 2 out of 914 total

Downtown Clearance Delivery: 118.275
Downtown Ground: 121.800
Downtown Tower: 119.925
St. Louis Approach/Departure: 123.700

KCQF CTAF/Misc (Archives)
Fairhope, Alabama, United States

Feed Status: UP
Listen in your browser - HTML5 player(in browser, HTML5)
Click here to listen with your own player(launches your MP3 player)

KCQF 040055Z AUTO 00000KT 10SM CLR 24/21 A2998 RMK AO2

KCQF Airport Info (Airnav.com)

KCQF Flight Activity (Flightaware)

Listeners: 0 out of 914 total

Emergency/Guard: 121.500
Fairhope CTAF: 123.000

KCRE Ground/Tower (Archives)
North Myrtle Beach, South Carolina, United States

Feed Status: UP
Listen in your browser - HTML5 player(in browser, HTML5)
Click here to listen with your own player(launches your MP3 player)

KCRE 040053Z AUTO 22013KT 10SM CLR 25/19 A2996 RMK AO1 SLP145 T02500194

KCRE Airport Info (Airnav.com)

KCRE Flight Activity (Flightaware)

Listeners: 0 out of 914 total

Strand Ground: 121.800
Strand Tower: 124.600

KCRG Gnd/Twr/App (Archives)
Jacksonville, Florida, United States

Feed Status: UP
Listen in your browser - HTML5 player(in browser, HTML5)
Click here to listen with your own player(launches your MP3 player)

KCRG 040053Z 16006KT 10SM FEW110 24/20 A3001 RMK AO2 SLP161 T02440200

KCRG Airport Info (Airnav.com)

KCRG Flight Activity (Flightaware)

Listeners: 0 out of 914 total

Craig Clearance: 118.350
Craig Ground: 121.800
Craig Tower: 132.100
Jacksonville Approach: 118.000
Jacksonville Approach: 124.900

KCRQ Tower (Archives)
Carlsbad, California, United States

Feed Status: UP
Listen in your browser - HTML5 player(in browser, HTML5)
Click here to listen with your own player(launches your MP3 player)

KCRQ 040053Z AUTO 22009KT 10SM R24/3500VP6000FT CLR 22/16 A2985 RMK AO2 SLP105 T02220161

KCRQ Airport Info (Airnav.com)

KCRQ Flight Activity (Flightaware)

Listeners: 2 out of 914 total

Palomar Tower: 118.600

KCTJ/KLGC CTAF (Archives)
Carrollton, Georgia, United States

Feed Status: UP
Listen in your browser - HTML5 player(in browser, HTML5)
Click here to listen with your own player(launches your MP3 player)

KCCO 040055Z AUTO 00000KT 10SM CLR 27/22 A2998 RMK AO2 T02680221

KCCO Airport Info (Airnav.com)

KCCO Flight Activity (Flightaware)

Listeners: 0 out of 914 total

KCTJ/KLGC CTAF: 122.975

51FL/KCDK/KCTY/X60 CTAF (Archives)
Cross City, Florida, United States

Feed Status: UP
Listen in your browser - HTML5 player(in browser, HTML5)
Click here to listen with your own player(launches your MP3 player)


Listeners: 0 out of 914 total

Cedar Key CTAF: 122.900
Cross City CTAF: 122.800
Emergency/Guard: 121.500
Jacksonville Approach/Departure: 118.600
Jacksonville Center: 127.800
Williston CTAF: 122.975

KCUB CTAF (Archives)
Columbia, South Carolina, United States

Feed Status: UP
Listen in your browser - HTML5 player(in browser, HTML5)
Click here to listen with your own player(launches your MP3 player)

KCUB 040053Z AUTO 19004KT 10SM CLR 27/20 A2995 RMK AO2 SLP138 T02720200

KCUB Airport Info (Airnav.com)

KCUB Flight Activity (Flightaware)

Listeners: 0 out of 914 total

Columbia CTAF: 123.075

KCVO CTAF/Misc (Archives)
Corvallis, Oregon, United States

Feed Status: UP
Listen in your browser - HTML5 player(in browser, HTML5)
Click here to listen with your own player(launches your MP3 player)

KCVO 040056Z AUTO 32014G17KT 10SM CLR 22/07 A3007 RMK AO2 SLP184 T02170072

KCVO Airport Info (Airnav.com)

KCVO Flight Activity (Flightaware)

Listeners: 0 out of 914 total

Cascade Approach: 127.500
Cascade Approach: 119.600
Corvallis CTAF: 123.075
Seattle Center (Sector 6 Low): 125.800

KCXY Ground (Archives)
Harrisburg, Pennsylvania, United States

Feed Status: UP
Listen in your browser - HTML5 player(in browser, HTML5)
Click here to listen with your own player(launches your MP3 player)

KMDT 040056Z 00000KT 5SM -RA SCT047 SCT070 BKN110 22/19 A2970 RMK AO2 RAE13B40 SLP056 P0003 T02220194

KMDT Airport Info (Airnav.com)

KMDT Flight Activity (Flightaware)

Listeners: 0 out of 914 total

Capital City Ground: 121.900

KCXY Ground/Tower (Archives)
Harrisburg, Pennsylvania, United States

Feed Status: UP
Listen in your browser - HTML5 player(in browser, HTML5)
Click here to listen with your own player(launches your MP3 player)

KMDT 040056Z 00000KT 5SM -RA SCT047 SCT070 BKN110 22/19 A2970 RMK AO2 RAE13B40 SLP056 P0003 T02220194

KMDT Airport Info (Airnav.com)

KMDT Flight Activity (Flightaware)

Listeners: 0 out of 914 total

Capital City Ground: 121.900
Capital City Tower: 119.500

KCXY Tower (Archives)
Harrisburg, Pennsylvania, United States

Feed Status: UP
Listen in your browser - HTML5 player(in browser, HTML5)
Click here to listen with your own player(launches your MP3 player)

KMDT 040056Z 00000KT 5SM -RA SCT047 SCT070 BKN110 22/19 A2970 RMK AO2 RAE13B40 SLP056 P0003 T02220194

KMDT Airport Info (Airnav.com)

KMDT Flight Activity (Flightaware)

Listeners: 0 out of 914 total

Capital City Tower: 119.500

KCYS Gnd/Twr/App/Center (Archives)
Cheyenne, Wyoming, United States

Feed Status: UP
Listen in your browser - HTML5 player(in browser, HTML5)
Click here to listen with your own player(launches your MP3 player)

KCYS 040053Z 34011G22KT 10SM FEW110 23/03 A3008 RMK AO2 PK WND 31037/0030 LTG DSNT NE SLP103 T02330028

KCYS Airport Info (Airnav.com)

KCYS Flight Activity (Flightaware)

Listeners: 0 out of 914 total

Cheyenne Approach: 124.550
Cheyenne Ground: 121.900
Cheyenne Tower: 118.700
Denver Center (Sector 21 Cheyenne Low): 125.900
Emergency/Guard: 121.500

KDAA/KADW Tower (Archives)
Fort Belvoir, Virginia, United States

Feed Status: UP
Listen in your browser - HTML5 player(in browser, HTML5)
Click here to listen with your own player(launches your MP3 player)

KDAA 040056Z AUTO 00000KT 10SM CLR 25/20 A2972 RMK AO2 SLP066 T02510199 TSNO $

KDAA Airport Info (Airnav.com)

KDAA Flight Activity (Flightaware)

Listeners: 1 out of 914 total

Andrews Tower: 118.400
Andrews Tower: 349.000
Davison Tower: 241.000
Davison Tower: 126.300
Davison Tower: 229.400

KDCU CTAF (Archives)
Decatur, Alabama, United States

Feed Status: UP
Listen in your browser - HTML5 player(in browser, HTML5)
Click here to listen with your own player(launches your MP3 player)

KDCU 040053Z AUTO 21003KT 10SM CLR 26/23 A2995 RMK AO2 SLP133 T02610228

KDCU Airport Info (Airnav.com)

KDCU Flight Activity (Flightaware)

Listeners: 0 out of 914 total

Decatur CTAF: 123.075

KDED CTAF/Misc (Archives)
DeLand, Florida, United States

Feed Status: UP
Listen in your browser - HTML5 player(in browser, HTML5)
Click here to listen with your own player(launches your MP3 player)

KDED 040055Z AUTO 10SM A3000 RMK AO2

KDED Airport Info (Airnav.com)

KDED Flight Activity (Flightaware)

Listeners: 0 out of 914 total

DeLand CTAF/UNICOM: 123.075
Skydive DeLand: 122.850

KDED/1J6 CTAF/UNICOM (Archives)
DeLand, Florida, United States

Feed Status: UP
Listen in your browser - HTML5 player(in browser, HTML5)
Click here to listen with your own player(launches your MP3 player)

KDED 040055Z AUTO 10SM A3000 RMK AO2

KDED Airport Info (Airnav.com)

KDED Flight Activity (Flightaware)

Listeners: 0 out of 914 total

DeLand CTAF/UNICOM: 123.075

Regional Approach (Feeder 2/East)
Dallas, Texas, United States

Feed Status: DOWN
Offline since: 2020-03-29 19:10:05 UTC

KRBD 040053Z 18007KT 10SM CLR 31/17 A2985 RMK AO2 SLP099 T03110172

KRBD Airport Info (Airnav.com)

Regional Approach (Feeder 2/East): 133.525

KDLH Gnd/Twr/App (Archives)
Duluth, Minnesota, United States

Feed Status: UP
Listen in your browser - HTML5 player(in browser, HTML5)
Click here to listen with your own player(launches your MP3 player)

KDLH 040055Z 30007KT 10SM CLR 22/06 A2980 RMK AO2 SLP088 T02220061

KDLH Airport Info (Airnav.com)

KDLH Flight Activity (Flightaware)

Listeners: 1 out of 914 total

Duluth Approach/Departure: 125.450
Duluth Ground: 121.900
Duluth Tower: 118.300

KDOV Approach/Departure
Dover, Delaware, United States

Feed Status: DOWN
Offline since: 2020-05-25 22:23:05 UTC

KDOV 040056Z AUTO 22012KT 10SM CLR 28/18 A2968 RMK AO2 SLP054 T02830175 $

KDOV Airport Info (Airnav.com)

Dover Approach/Departure: 132.425
Dover Approach/Departure: 257.875

KDPA ATIS (Archives)
Chicago, Illinois, United States

Feed Status: UP
Listen in your browser - HTML5 player(in browser, HTML5)
Click here to listen with your own player(launches your MP3 player)

KDPA 040052Z 00000KT 10SM SCT075 26/18 A2976 RMK AO2 SLP073 T02610178

KDPA Airport Info (Airnav.com)

KDPA Flight Activity (Flightaware)

Listeners: 0 out of 914 total

DuPage ATIS: 132.075

KDPA Chicago Approach (Archives)
Chicago, Illinois, United States

Feed Status: UP
Listen in your browser - HTML5 player(in browser, HTML5)
Click here to listen with your own player(launches your MP3 player)

KORD 040051Z 14007KT 10SM SCT070 BKN250 26/12 A2977 RMK AO2 SLP075 T02610117 $

KORD Airport Info (Airnav.com)

KORD Flight Activity (Flightaware)

Listeners: 1 out of 914 total

Chicago Approach/Departure: 133.500

KDPA Del/Gnd/Twr/Misc (Archives)
Chicago, Illinois, United States

Feed Status: UP
Listen in your browser - HTML5 player(in browser, HTML5)
Click here to listen with your own player(launches your MP3 player)

KDPA 040052Z 00000KT 10SM SCT075 26/18 A2976 RMK AO2 SLP073 T02610178

KDPA Airport Info (Airnav.com)

KDPA Flight Activity (Flightaware)

Listeners: 1 out of 914 total

DuPage Clearance Delivery: 119.750
DuPage Flight Center (FBO): 464.375
DuPage Ground: 121.800
DuPage Ground Operations: 469.5875
DuPage Ground Operations: 453.225
DuPage Ground Operations (Airport Authority): 453.500
DuPage Tower: 120.900
DuPage UNICOM ("Flight Center"): 122.950
Flight Service Station (FSS) RCO: 122.550

KDTO ASOS (Archives)
Denton, Texas, United States

Feed Status: UP
Listen in your browser - HTML5 player(in browser, HTML5)
Click here to listen with your own player(launches your MP3 player)

KDTO 040053Z 16008KT 10SM CLR 32/18 A2985 RMK AO2 SLP097 T03170178

KDTO Airport Info (Airnav.com)

KDTO Flight Activity (Flightaware)

Listeners: 0 out of 914 total

Denton ASOS: 119.325

KDTO Gnd/Twr (Archives)
Denton, Texas, United States

Feed Status: UP
Listen in your browser - HTML5 player(in browser, HTML5)
Click here to listen with your own player(launches your MP3 player)

KDTO 040053Z 16008KT 10SM CLR 32/18 A2985 RMK AO2 SLP097 T03170178

KDTO Airport Info (Airnav.com)

KDTO Flight Activity (Flightaware)

Listeners: 0 out of 914 total

Denton Ground: 123.950
Denton Tower: 119.950

KDTO Tower (Archives)
Denton, Texas, United States

Feed Status: UP
Listen in your browser - HTML5 player(in browser, HTML5)
Click here to listen with your own player(launches your MP3 player)

KDTO 040053Z 16008KT 10SM CLR 32/18 A2985 RMK AO2 SLP097 T03170178

KDTO Airport Info (Airnav.com)

KDTO Flight Activity (Flightaware)

Listeners: 0 out of 914 total

Denton Tower: 119.950

KDVO CTAF (Archives)
Novato, California, United States

Feed Status: UP
Listen in your browser - HTML5 player(in browser, HTML5)
Click here to listen with your own player(launches your MP3 player)

KDVO 040055Z AUTO 27008G14KT 230V300 10SM CLR 34/07 A2986 RMK AO2

KDVO Airport Info (Airnav.com)

KDVO Flight Activity (Flightaware)

Listeners: 0 out of 914 total

Novato CTAF: 123.075

KDVT ATIS (Archives)
Phoenix, Arizona, United States

Feed Status: UP
Listen in your browser - HTML5 player(in browser, HTML5)
Click here to listen with your own player(launches your MP3 player)

KDVT 040053Z 21007KT 10SM CLR 41/05 A2973 RMK AO2 SLP039 T04060050

KDVT Airport Info (Airnav.com)

KDVT Flight Activity (Flightaware)

Listeners: 0 out of 914 total

Deer Valley ATIS: 126.500

KDVT Clearance Delivery (Archives)
Phoenix, Arizona, United States

Feed Status: UP
Listen in your browser - HTML5 player(in browser, HTML5)
Click here to listen with your own player(launches your MP3 player)

KDVT 040053Z 21007KT 10SM CLR 41/05 A2973 RMK AO2 SLP039 T04060050

KDVT Airport Info (Airnav.com)

KDVT Flight Activity (Flightaware)

Listeners: 0 out of 914 total

Deer Valley Clearance Delivery: 123.900

KDVT Delivery/Ground (Archives)
Phoenix, Arizona, United States

Feed Status: UP
Listen in your browser - HTML5 player(in browser, HTML5)
Click here to listen with your own player(launches your MP3 player)

KDVT 040053Z 21007KT 10SM CLR 41/05 A2973 RMK AO2 SLP039 T04060050

KDVT Airport Info (Airnav.com)

KDVT Flight Activity (Flightaware)

Listeners: 0 out of 914 total

Deer Valley Clearance Delivery: 123.900
Deer Valley Ground: 121.800

KDVT Ground (Archives)
Phoenix, Arizona, United States

Feed Status: UP
Listen in your browser - HTML5 player(in browser, HTML5)
Click here to listen with your own player(launches your MP3 player)

KDVT 040053Z 21007KT 10SM CLR 41/05 A2973 RMK AO2 SLP039 T04060050

KDVT Airport Info (Airnav.com)

KDVT Flight Activity (Flightaware)

Listeners: 0 out of 914 total

Deer Valley Ground: 121.800

KDVT Tower (Both) (Archives)
Phoenix, Arizona, United States

Feed Status: UP
Listen in your browser - HTML5 player(in browser, HTML5)
Click here to listen with your own player(launches your MP3 player)

KDVT 040053Z 21007KT 10SM CLR 41/05 A2973 RMK AO2 SLP039 T04060050

KDVT Airport Info (Airnav.com)

KDVT Flight Activity (Flightaware)

Listeners: 0 out of 914 total

Deer Valley Tower (North): 120.200
Deer Valley Tower (South): 118.400

KDVT Tower (North) (Archives)
Phoenix, Arizona, United States

Feed Status: UP
Listen in your browser - HTML5 player(in browser, HTML5)
Click here to listen with your own player(launches your MP3 player)

KDVT 040053Z 21007KT 10SM CLR 41/05 A2973 RMK AO2 SLP039 T04060050

KDVT Airport Info (Airnav.com)

KDVT Flight Activity (Flightaware)

Listeners: 0 out of 914 total

Deer Valley Tower (North): 120.200

KDVT Tower (South) (Archives)
Phoenix, Arizona, United States

Feed Status: UP
Listen in your browser - HTML5 player(in browser, HTML5)
Click here to listen with your own player(launches your MP3 player)

KDVT 040053Z 21007KT 10SM CLR 41/05 A2973 RMK AO2 SLP039 T04060050

KDVT Airport Info (Airnav.com)

KDVT Flight Activity (Flightaware)

Listeners: 0 out of 914 total

Deer Valley Tower (South): 118.400

KDWH Del/ Gnd/Twr
Houston, Texas, United States

Feed Status: DOWN
Offline since: 2020-06-04 01:24:05 UTC

KDWH 040053Z AUTO 00000KT 10SM CLR 26/23 A2991 RMK AO2 SLP124 T02610228

KDWH Airport Info (Airnav.com)

Hooks Clearance Delivery: 119.450
Hooks Ground: 121.800
Hooks Tower (E): 127.400
Hooks Tower (W): 118.400
Hooks UNICOM: 122.950

KDXR ATIS (Archives)
Danbury, Connecticut, United States

Feed Status: UP
Listen in your browser - HTML5 player(in browser, HTML5)
Click here to listen with your own player(launches your MP3 player)

KDXR 040053Z 22009KT 9SM -RA BKN100 OVC110 21/19 A2968 RMK AO2 LTG DSNT SW RAB2357 TSB35E42 SLP046 P0002 T02060189

KDXR Airport Info (Airnav.com)

KDXR Flight Activity (Flightaware)

Listeners: 0 out of 914 total

Danbury ATIS: 127.750

KDXR Ground/Tower (Archives)
Danbury, Connecticut, United States

Feed Status: UP
Listen in your browser - HTML5 player(in browser, HTML5)
Click here to listen with your own player(launches your MP3 player)

KDXR 040053Z 22009KT 9SM -RA BKN100 OVC110 21/19 A2968 RMK AO2 LTG DSNT SW RAB2357 TSB35E42 SLP046 P0002 T02060189

KDXR Airport Info (Airnav.com)

KDXR Flight Activity (Flightaware)

Listeners: 0 out of 914 total

Danbury Ground: 121.600
Danbury Tower: 119.400

KDYL CTAF #1 (Archives)
Doylestown, Pennsylvania, United States

Feed Status: UP
Listen in your browser - HTML5 player(in browser, HTML5)
Click here to listen with your own player(launches your MP3 player)

KDYL 040054Z AUTO 23004KT 10SM -RA BKN075 23/18 A2968 RMK AO2 LTG DSNT SE AND S RAB53 SLP044 P0000 T02280183

KDYL Airport Info (Airnav.com)

KDYL Flight Activity (Flightaware)

Listeners: 0 out of 914 total

Doylestown CTAF/UNICOM: 122.975

KDYL CTAF #2
Doylestown, Pennsylvania, United States

Feed Status: DOWN
Offline since: 2020-03-10 12:00:22 UTC

KDYL 040054Z AUTO 23004KT 10SM -RA BKN075 23/18 A2968 RMK AO2 LTG DSNT SE AND S RAB53 SLP044 P0000 T02280183

KDYL Airport Info (Airnav.com)

Doylestown CTAF/UNICOM: 122.975

KEAR AWOS (Archives)
Kearney, Nebraska, United States

Feed Status: UP
Listen in your browser - HTML5 player(in browser, HTML5)
Click here to listen with your own player(launches your MP3 player)

KEAR 040056Z AUTO 21005KT 10SM CLR 29/16 A2980 RMK AO2 SLP071 T02940161

KEAR Airport Info (Airnav.com)

KEAR Flight Activity (Flightaware)

Listeners: 0 out of 914 total

Kearney AWOS: 123.875

KEAR Columbus Radio (Archives)
Kearney, Nebraska, United States

Feed Status: UP
Listen in your browser - HTML5 player(in browser, HTML5)
Click here to listen with your own player(launches your MP3 player)

KEAR 040056Z AUTO 21005KT 10SM CLR 29/16 A2980 RMK AO2 SLP071 T02940161

KEAR Airport Info (Airnav.com)

KEAR Flight Activity (Flightaware)

Listeners: 0 out of 914 total

Columbus Radio: 122.550

KEAR CTAF (Archives)
Kearney, Nebraska, United States

Feed Status: UP
Listen in your browser - HTML5 player(in browser, HTML5)
Click here to listen with your own player(launches your MP3 player)

KEAR 040056Z AUTO 21005KT 10SM CLR 29/16 A2980 RMK AO2 SLP071 T02940161

KEAR Airport Info (Airnav.com)

KEAR Flight Activity (Flightaware)

Listeners: 1 out of 914 total

Kearney CTAF: 123.000

KEAU Tower (Archives)
Eau Claire, Wisconsin, United States

Feed Status: UP
Listen in your browser - HTML5 player(in browser, HTML5)
Click here to listen with your own player(launches your MP3 player)

KEAU 040056Z 32006KT 10SM CLR 24/08 A2978 RMK AO2 SLP080 T02390078

KEAU Airport Info (Airnav.com)

KEAU Flight Activity (Flightaware)

Listeners: 0 out of 914 total

Eau Claire Tower: 118.575

KEDC ATIS (Archives)
Austin, Texas, United States

Feed Status: UP
Listen in your browser - HTML5 player(in browser, HTML5)
Click here to listen with your own player(launches your MP3 player)

KEDC 040055Z AUTO 15009KT 10SM CLR 28/22 A2990 RMK AO2

KEDC Airport Info (Airnav.com)

KEDC Flight Activity (Flightaware)

Listeners: 0 out of 914 total

Executive ATIS/AWOS: 118.825

KEDC Austin App/Dep (Archives)
Austin, Texas, United States

Feed Status: UP
Listen in your browser - HTML5 player(in browser, HTML5)
Click here to listen with your own player(launches your MP3 player)

KEDC 040055Z AUTO 15009KT 10SM CLR 28/22 A2990 RMK AO2

KEDC Airport Info (Airnav.com)

KEDC Flight Activity (Flightaware)

Listeners: 0 out of 914 total

Auston Approach/Departure: 127.225

KEDC Clearance Delivery (Archives)
Austin, Texas, United States

Feed Status: UP
Listen in your browser - HTML5 player(in browser, HTML5)
Click here to listen with your own player(launches your MP3 player)

KEDC 040055Z AUTO 15009KT 10SM CLR 28/22 A2990 RMK AO2

KEDC Airport Info (Airnav.com)

KEDC Flight Activity (Flightaware)

Listeners: 0 out of 914 total

Executive Clearance Delivery (when Tower is closed): 126.025

KEDC Clearance/Ground (Archives)
Austin, Texas, United States

Feed Status: UP
Listen in your browser - HTML5 player(in browser, HTML5)
Click here to listen with your own player(launches your MP3 player)

KEDC 040055Z AUTO 15009KT 10SM CLR 28/22 A2990 RMK AO2

KEDC Airport Info (Airnav.com)

KEDC Flight Activity (Flightaware)

Listeners: 0 out of 914 total

Executive Clearance Delivery (when Tower is closed): 126.025
Executive Ground: 119.450

KEDC Del/Gnd/Twr (Archives)
Austin, Texas, United States

Feed Status: UP
Listen in your browser - HTML5 player(in browser, HTML5)
Click here to listen with your own player(launches your MP3 player)

KEDC 040055Z AUTO 15009KT 10SM CLR 28/22 A2990 RMK AO2

KEDC Airport Info (Airnav.com)

KEDC Flight Activity (Flightaware)

Listeners: 0 out of 914 total

Executive Ground: 119.450
Executive Tower: 120.300

KEDC Ground (Archives)
Austin, Texas, United States

Feed Status: UP
Listen in your browser - HTML5 player(in browser, HTML5)
Click here to listen with your own player(launches your MP3 player)

KEDC 040055Z AUTO 15009KT 10SM CLR 28/22 A2990 RMK AO2

KEDC Airport Info (Airnav.com)

KEDC Flight Activity (Flightaware)

Listeners: 0 out of 914 total

Executive Ground: 119.450

KEDC Ground/Tower (Archives)
Austin, Texas, United States

Feed Status: UP
Listen in your browser - HTML5 player(in browser, HTML5)
Click here to listen with your own player(launches your MP3 player)

KEDC 040055Z AUTO 15009KT 10SM CLR 28/22 A2990 RMK AO2

KEDC Airport Info (Airnav.com)

KEDC Flight Activity (Flightaware)

Listeners: 0 out of 914 total

Executive Ground: 119.450
Executive Tower: 120.300

KEDC Tower (Archives)
Austin, Texas, United States

Feed Status: UP
Listen in your browser - HTML5 player(in browser, HTML5)
Click here to listen with your own player(launches your MP3 player)

KEDC 040055Z AUTO 15009KT 10SM CLR 28/22 A2990 RMK AO2

KEDC Airport Info (Airnav.com)

KEDC Flight Activity (Flightaware)

Listeners: 0 out of 914 total

Executive Tower: 120.300

KEDU CTAF (Archives)
Davis, California, United States

Feed Status: UP
Listen in your browser - HTML5 player(in browser, HTML5)
Click here to listen with your own player(launches your MP3 player)

KEDU 040055Z AUTO 20006KT 10SM CLR 38/08 A2983 RMK AO1

KEDU Airport Info (Airnav.com)

KEDU Flight Activity (Flightaware)

Listeners: 0 out of 914 total

University CTAF: 123.075

KEEN CTAF (Archives)
Keene, New Hampshire, United States

Feed Status: UP
Listen in your browser - HTML5 player(in browser, HTML5)
Click here to listen with your own player(launches your MP3 player)

KEEN 040056Z AUTO 00000KT 8SM FEW043 18/17 A2962 RMK AO2 SLP031 T01780172 $

KEEN Airport Info (Airnav.com)

KEEN Flight Activity (Flightaware)

Listeners: 0 out of 914 total

Keene CTAF: 123.000

MA/NH/RI/CT Area CTAF (Archives)
Keene, New Hampshire, United States

Feed Status: UP
Listen in your browser - HTML5 player(in browser, HTML5)
Click here to listen with your own player(launches your MP3 player)

KBOS 040054Z 31010KT 10SM FEW008 SCT045 BKN065 BKN200 23/16 A2959 RMK AO2 SLP019 SHRA NE-E T02280156

KBOS Airport Info (Airnav.com)

KBOS Flight Activity (Flightaware)

Listeners: 0 out of 914 total

Air-to-Air: 122.750
Bridgeport Flight Service: 122.200
CTAF: 122.700
CTAF: 122.800
CTAF: 122.900
CTAF: 123.000
Emergency/Guard: 121.500

MA/NH/RI/CT Area CTAF (Archives)
Keene, New Hampshire, United States

Feed Status: UP
Listen in your browser - HTML5 player(in browser, HTML5)
Click here to listen with your own player(launches your MP3 player)

KBOS 040054Z 31010KT 10SM FEW008 SCT045 BKN065 BKN200 23/16 A2959 RMK AO2 SLP019 SHRA NE-E T02280156

KBOS Airport Info (Airnav.com)

KBOS Flight Activity (Flightaware)

Listeners: 0 out of 914 total

Air-to-Air: 122.750
Bridgeport Flight Service: 122.200
CTAF: 122.700
CTAF: 122.800
CTAF: 122.900
CTAF: 123.000
Emergency/Guard: 121.500

MA/NH/RI/CT Area CTAF (Archives)
Keene, New Hampshire, United States

Feed Status: UP
Listen in your browser - HTML5 player(in browser, HTML5)
Click here to listen with your own player(launches your MP3 player)

KBOS 040054Z 31010KT 10SM FEW008 SCT045 BKN065 BKN200 23/16 A2959 RMK AO2 SLP019 SHRA NE-E T02280156

KBOS Airport Info (Airnav.com)

KBOS Flight Activity (Flightaware)

Listeners: 0 out of 914 total

Air-to-Air: 122.750
Bridgeport Flight Service: 122.200
CTAF: 122.700
CTAF: 122.800
CTAF: 122.900
CTAF: 123.000
Emergency/Guard: 121.500

KFTG/KEIK/KBDU/KLMO/Misc (Archives)
Erie, Colorado, United States

Feed Status: UP
Listen in your browser - HTML5 player(in browser, HTML5)
Click here to listen with your own player(launches your MP3 player)

KDEN 040053Z 06010KT 10SM FEW100 BKN130 BKN220 26/05 A3005 RMK AO2 LTG DSNT W SLP097 VIRGA T02560050

KDEN Airport Info (Airnav.com)

KDEN Flight Activity (Flightaware)

Listeners: 1 out of 914 total

Air-to-Air Fixed Wing: 122.750
Air-to-Air Informal: 123.450
Boulder CTAF: 122.725
Erie CTAF: 123.000
Front Range Tower: 120.200
KBKF Tower: 121.000
Longmont CTAF: 122.975
MULTICOM: 122.900
UNICOM: 122.950

KEMT Gnd/Twr (Archives)
El Monte, California, United States

Feed Status: UP
Listen in your browser - HTML5 player(in browser, HTML5)
Click here to listen with your own player(launches your MP3 player)

KEMT 040045Z 22006KT 10SM FEW065 30/13 A2979

KEMT Airport Info (Airnav.com)

KEMT Flight Activity (Flightaware)

Listeners: 0 out of 914 total

El Monte Ground: 125.900
El Monte Tower: 121.200
Santa Fe Dam Practice Area: 123.300

KEND Tower
Enid, Oklahoma, United States

Feed Status: DOWN
Offline since: 2020-04-07 20:40:22 UTC

KEND 032356Z 17012KT 10SM SCT150 35/20 A2977 RMK AO2A SLP067 T03520195 10373 20342 57018

KEND Airport Info (Airnav.com)

Vance Tower: 124.050

KENW Ground/Tower (Archives)
Kenosha, Wisconsin, United States

Feed Status: UP
Listen in your browser - HTML5 player(in browser, HTML5)
Click here to listen with your own player(launches your MP3 player)

KENW 040053Z 16006KT 10SM CLR 25/12 A2977 RMK AO2 SLP077 T02500117

KENW Airport Info (Airnav.com)

KENW Flight Activity (Flightaware)

Listeners: 1 out of 914 total

Kenosha Ground: 121.875
Kenosha Tower: 118.600

KEST CTAF (Archives)
Estherville, Iowa, United States

Feed Status: UP
Listen in your browser - HTML5 player(in browser, HTML5)
Click here to listen with your own player(launches your MP3 player)

KEST 040052Z AUTO 31004KT 10SM CLR 26/09 A2979 RMK AO2 SLP080 T02610094

KEST Airport Info (Airnav.com)

KEST Flight Activity (Flightaware)

Listeners: 0 out of 914 total

Estherville CTAF: 122.800

KEUG App/Dep
Eugene, Oregon, United States

Feed Status: DOWN
Offline since: 2019-03-29 08:26:04 UTC

KEUG 040054Z VRB06KT 10SM FEW060 FEW250 24/11 A3006 RMK AO2 SLP178 T02390106

KEUG Airport Info (Airnav.com)

Cascade Approach/Departure: 119.600
Cascade Approach/Departure: 120.250

KEUG App/Dep 119.6
Eugene, Oregon, United States

Feed Status: DOWN
Offline since: 2020-03-28 03:36:22 UTC

KEUG 040054Z VRB06KT 10SM FEW060 FEW250 24/11 A3006 RMK AO2 SLP178 T02390106

KEUG Airport Info (Airnav.com)

Cascade Approach/Departure: 119.600

KEUG App/Dep 120.25
Eugene, Oregon, United States

Feed Status: DOWN
Offline since: 2020-03-28 03:36:22 UTC

KEUG 040054Z VRB06KT 10SM FEW060 FEW250 24/11 A3006 RMK AO2 SLP178 T02390106

KEUG Airport Info (Airnav.com)

Cascade Approach/Departure: 120.250

KEUG ATIS
Eugene, Oregon, United States

Feed Status: DOWN
Offline since: 2020-03-28 03:36:22 UTC

KEUG 040054Z VRB06KT 10SM FEW060 FEW250 24/11 A3006 RMK AO2 SLP178 T02390106

KEUG Airport Info (Airnav.com)

Eugene ATIS: 125.225

KEUG Emergency/Guard
Eugene, Oregon, United States

Feed Status: DOWN
Offline since: 2020-03-28 03:36:22 UTC

KEUG 040054Z VRB06KT 10SM FEW060 FEW250 24/11 A3006 RMK AO2 SLP178 T02390106

KEUG Airport Info (Airnav.com)

Emergency/Guard: 121.500

KEUG Ground
Eugene, Oregon, United States

Feed Status: DOWN
Offline since: 2020-03-28 03:36:22 UTC

KEUG 040054Z VRB06KT 10SM FEW060 FEW250 24/11 A3006 RMK AO2 SLP178 T02390106

KEUG Airport Info (Airnav.com)

Eugene Ground: 121.700

KEUG Ground/Tower
Eugene, Oregon, United States

Feed Status: DOWN
Offline since: 2019-03-29 09:35:03 UTC

KEUG 040054Z VRB06KT 10SM FEW060 FEW250 24/11 A3006 RMK AO2 SLP178 T02390106

KEUG Airport Info (Airnav.com)

Eugene Ground: 121.700
Eugene Tower (Rwy 16L/34R): 124.150
Eugene Tower (Rwy 16R/34L): 118.900

KEUG Tower (Both)
Eugene, Oregon, United States

Feed Status: DOWN
Offline since: 2019-03-29 08:26:04 UTC

KEUG 040054Z VRB06KT 10SM FEW060 FEW250 24/11 A3006 RMK AO2 SLP178 T02390106

KEUG Airport Info (Airnav.com)

Eugene Tower (Rwy 16L/34R): 124.150
Eugene Tower (Rwy 16R/34L): 118.900

KEUG Tower (Rwy 16L/34R)
Eugene, Oregon, United States

Feed Status: DOWN
Offline since: 2020-03-28 03:36:22 UTC

KEUG 040054Z VRB06KT 10SM FEW060 FEW250 24/11 A3006 RMK AO2 SLP178 T02390106

KEUG Airport Info (Airnav.com)

Eugene Tower (Rwy 16L/34R): 124.150

KEUG Tower (Rwy 16R/34L) (Archives)
Eugene, Oregon, United States

Feed Status: UP
Listen in your browser - HTML5 player(in browser, HTML5)
Click here to listen with your own player(launches your MP3 player)

KEUG 040054Z VRB06KT 10SM FEW060 FEW250 24/11 A3006 RMK AO2 SLP178 T02390106

KEUG Airport Info (Airnav.com)

KEUG Flight Activity (Flightaware)

Listeners: 1 out of 914 total

Eugene Tower (Rwy 16R/34L): 118.900

KMAN/KEUL CTAF (Archives)
Nampa, Idaho, United States

Feed Status: UP
Listen in your browser - HTML5 player(in browser, HTML5)
Click here to listen with your own player(launches your MP3 player)

KMAN 040055Z AUTO 01008KT 10SM CLR 29/04 A2988 RMK A01

KMAN Airport Info (Airnav.com)

KMAN Flight Activity (Flightaware)

Listeners: 0 out of 914 total

Nampa/Caldwell CTAF/UNICOM: 122.700

KEVB ATIS (Archives)
New Smyrna Beach, Florida, United States

Feed Status: UP
Listen in your browser - HTML5 player(in browser, HTML5)
Click here to listen with your own player(launches your MP3 player)

KEVB 040047Z 15005KT 10SM SCT020 25/22 A3002

KEVB Airport Info (Airnav.com)

KEVB Flight Activity (Flightaware)

Listeners: 0 out of 914 total

New Smyrna ATIS: 124.625

KEVB Gnd/Twr (Archives)
New Smyrna Beach, Florida, United States

Feed Status: UP
Listen in your browser - HTML5 player(in browser, HTML5)
Click here to listen with your own player(launches your MP3 player)

KEVB 040047Z 15005KT 10SM SCT020 25/22 A3002

KEVB Airport Info (Airnav.com)

KEVB Flight Activity (Flightaware)

Listeners: 0 out of 914 total

New Smyrna Ground: 121.325
New Smyrna Tower: 119.675

KFAR Tower (Archives)
Fargo, North Dakota, United States

Feed Status: UP
Listen in your browser - HTML5 player(in browser, HTML5)
Click here to listen with your own player(launches your MP3 player)

KFAR 040053Z 18009KT 10SM CLR 27/08 A2972 RMK AO2 SLP062 T02670078

KFAR Airport Info (Airnav.com)

KFAR Flight Activity (Flightaware)

Listeners: 0 out of 914 total

Fargo Tower: 133.800

KFBG/KPOB Gnd/Twr (Archives)
Fort Bragg, North Carolina, United States

Feed Status: UP
Listen in your browser - HTML5 player(in browser, HTML5)
Click here to listen with your own player(launches your MP3 player)

KFAY 040053Z 20009KT 10SM CLR 27/20 A2990 RMK AO2 SLP120 T02720200

KFAY Airport Info (Airnav.com)

KFAY Flight Activity (Flightaware)

Listeners: 0 out of 914 total

Pope Ground: 124.550
Pope Tower: 135.025
Simmons Base Ops: 142.350
Simmons Ground: 121.900
Simmons PAR Radar: 124.200
Simmons Radar: 120.800
Simmons Tower: 125.900

KFCM Tower (Archives)
Minneapolis, Minnesota, United States

Feed Status: UP
Listen in your browser - HTML5 player(in browser, HTML5)
Click here to listen with your own player(launches your MP3 player)

KFCM 040053Z 01003KT 10SM CLR 26/10 A2978 RMK AO2 SLP078 T02610100

KFCM Airport Info (Airnav.com)

KFCM Flight Activity (Flightaware)

Listeners: 0 out of 914 total

Flying Cloud Tower: 119.150

KFDK ATIS (Archives)
Frederick, Maryland, United States

Feed Status: UP
Listen in your browser - HTML5 player(in browser, HTML5)
Click here to listen with your own player(launches your MP3 player)

KFDK 040047Z 27011G15KT 10SM BKN150 30/18 A2973

KFDK Airport Info (Airnav.com)

KFDK Flight Activity (Flightaware)

Listeners: 0 out of 914 total

Frederick ATIS: 124.875

KFDK Del/Gnd/Twr/CTAF (Archives)
Frederick, Maryland, United States

Feed Status: UP
Listen in your browser - HTML5 player(in browser, HTML5)
Click here to listen with your own player(launches your MP3 player)

KFDK 040047Z 27011G15KT 10SM BKN150 30/18 A2973

KFDK Airport Info (Airnav.com)

KFDK Flight Activity (Flightaware)

Listeners: 2 out of 914 total

Clearance Delivery (Potomac Approach): 126.900
Frederick Ground: 121.975
Frederick Tower/CTAF: 132.400

KFFC CTAF (Archives)
Atlanta, Georgia, United States

Feed Status: UP
Listen in your browser - HTML5 player(in browser, HTML5)
Click here to listen with your own player(launches your MP3 player)

KCCO 040055Z AUTO 00000KT 10SM CLR 27/22 A2998 RMK AO2 T02680221

KCCO Airport Info (Airnav.com)

KCCO Flight Activity (Flightaware)

Listeners: 0 out of 914 total

Falcon CTAF: 123.050

KFFZ ATIS (Archives)
Mesa, Arizona, United States

Feed Status: UP
Listen in your browser - HTML5 player(in browser, HTML5)
Click here to listen with your own player(launches your MP3 player)

KFFZ Airport Info (Airnav.com)

KFFZ Flight Activity (Flightaware)

Listeners: 0 out of 914 total

Falcon ATIS: 118.250

KFFZ Ground (Archives)
Mesa, Arizona, United States

Feed Status: UP
Listen in your browser - HTML5 player(in browser, HTML5)
Click here to listen with your own player(launches your MP3 player)

KFFZ Airport Info (Airnav.com)

KFFZ Flight Activity (Flightaware)

Listeners: 0 out of 914 total

Falcon Ground: 121.300

KFFZ Twr #1 (Archives)
Mesa, Arizona, United States

Feed Status: UP
Listen in your browser - HTML5 player(in browser, HTML5)
Click here to listen with your own player(launches your MP3 player)

KFFZ Airport Info (Airnav.com)

KFFZ Flight Activity (Flightaware)

Listeners: 0 out of 914 total

Falcon Tower (North, 4L/22R): 119.700
Falcon Tower (South)/CTAF: 124.600

KFFZ Twr #2 (Archives)
Mesa, Arizona, United States

Feed Status: UP
Listen in your browser - HTML5 player(in browser, HTML5)
Click here to listen with your own player(launches your MP3 player)

KFFZ Airport Info (Airnav.com)

KFFZ Flight Activity (Flightaware)

Listeners: 0 out of 914 total

Falcon Tower (North, 4L/22R): 119.700
Falcon Tower (South)/CTAF: 124.600

KFFZ Twr (North) (Archives)
Mesa, Arizona, United States

Feed Status: UP
Listen in your browser - HTML5 player(in browser, HTML5)
Click here to listen with your own player(launches your MP3 player)

KFFZ Airport Info (Airnav.com)

KFFZ Flight Activity (Flightaware)

Listeners: 0 out of 914 total

Falcon Tower (North, 4L/22R): 119.700

KFFZ Twr (South)/CTAF (Archives)
Mesa, Arizona, United States

Feed Status: UP
Listen in your browser - HTML5 player(in browser, HTML5)
Click here to listen with your own player(launches your MP3 player)

KFFZ Airport Info (Airnav.com)

KFFZ Flight Activity (Flightaware)

Listeners: 0 out of 914 total

Falcon Tower (South)/CTAF: 124.600

KFHR CTAF (Archives)
Friday Harbor, Washington, United States

Feed Status: UP
Listen in your browser - HTML5 player(in browser, HTML5)
Click here to listen with your own player(launches your MP3 player)

KFHR 040053Z AUTO 24006KT 10SM CLR 14/08 A3015 RMK AO2 SLP208 T01440083

KFHR Airport Info (Airnav.com)

KFHR Flight Activity (Flightaware)

Listeners: 0 out of 914 total

KFHR/San Juan Islands CTAF: 128.250

KFHU Gnd/Twr/Radar (Archives)
Fort Huachuca/Sierra Vista, Arizona, United States

Feed Status: UP
Listen in your browser - HTML5 player(in browser, HTML5)
Click here to listen with your own player(launches your MP3 player)

KFHU 040058Z AUTO 26014KT 10SM CLR 35/03 A3002 RMK AO2 SLP079 T03460028

KFHU Airport Info (Airnav.com)

KFHU Flight Activity (Flightaware)

Listeners: 0 out of 914 total

Libby AAF GCA Radar: 127.050
Libby AAF GCA Radar: 254.350
Libby Ground: 121.700
Libby Ground: 268.700
Libby Tower: 124.950
Libby Tower: 284.750

KFIT CTAF (Archives)
Fitchburg, Massachusetts, United States

Feed Status: UP
Listen in your browser - HTML5 player(in browser, HTML5)
Click here to listen with your own player(launches your MP3 player)

KFIT 040052Z AUTO 36004KT 10SM CLR 21/14 A2960 RMK AO2 SLP024 T02060144

KFIT Airport Info (Airnav.com)

KFIT Flight Activity (Flightaware)

Listeners: 0 out of 914 total

Fitchburg CTAF/UNICOM: 122.700

KFIT CTAF/FSS RCO (Archives)
Fitchburg, Massachusetts, United States

Feed Status: UP
Listen in your browser - HTML5 player(in browser, HTML5)
Click here to listen with your own player(launches your MP3 player)

KFIT 040052Z AUTO 36004KT 10SM CLR 21/14 A2960 RMK AO2 SLP024 T02060144

KFIT Airport Info (Airnav.com)

KFIT Flight Activity (Flightaware)

Listeners: 0 out of 914 total

Bridgeport Radio (FSS via RCO): 119.025
Emergency/Guard: 121.500
Fitchburg CTAF/UNICOM: 122.700

MA/NH/RI/CT Area CTAF (Archives)
Fitchburg, Massachusetts, United States

Feed Status: UP
Listen in your browser - HTML5 player(in browser, HTML5)
Click here to listen with your own player(launches your MP3 player)

KBOS 040054Z 31010KT 10SM FEW008 SCT045 BKN065 BKN200 23/16 A2959 RMK AO2 SLP019 SHRA NE-E T02280156

KBOS Airport Info (Airnav.com)

KBOS Flight Activity (Flightaware)

Listeners: 0 out of 914 total

Air-to-Air: 122.750
Bridgeport Flight Service: 122.200
CTAF: 122.700
CTAF: 122.800
CTAF: 122.900
CTAF: 123.000
Emergency/Guard: 121.500

MA/NH/RI/CT Area CTAF (Archives)
Fitchburg, Massachusetts, United States

Feed Status: UP
Listen in your browser - HTML5 player(in browser, HTML5)
Click here to listen with your own player(launches your MP3 player)

KBOS 040054Z 31010KT 10SM FEW008 SCT045 BKN065 BKN200 23/16 A2959 RMK AO2 SLP019 SHRA NE-E T02280156

KBOS Airport Info (Airnav.com)

KBOS Flight Activity (Flightaware)

Listeners: 0 out of 914 total

Air-to-Air: 122.750
Bridgeport Flight Service: 122.200
CTAF: 122.700
CTAF: 122.800
CTAF: 122.900
CTAF: 123.000
Emergency/Guard: 121.500

MA/NH/RI/CT Area CTAF (Archives)
Fitchburg, Massachusetts, United States

Feed Status: UP
Listen in your browser - HTML5 player(in browser, HTML5)
Click here to listen with your own player(launches your MP3 player)

KBOS 040054Z 31010KT 10SM FEW008 SCT045 BKN065 BKN200 23/16 A2959 RMK AO2 SLP019 SHRA NE-E T02280156

KBOS Airport Info (Airnav.com)

KBOS Flight Activity (Flightaware)

Listeners: 0 out of 914 total

Air-to-Air: 122.750
Bridgeport Flight Service: 122.200
CTAF: 122.700
CTAF: 122.800
CTAF: 122.900
CTAF: 123.000
Emergency/Guard: 121.500

KFKA CTAF (Archives)
Preston, Minnesota, United States

Feed Status: UP
Listen in your browser - HTML5 player(in browser, HTML5)
Click here to listen with your own player(launches your MP3 player)

KFKA 040055Z AUTO 27007KT 10SM CLR 24/13 A2980 RMK AO2 T02410126

KFKA Airport Info (Airnav.com)

KFKA Flight Activity (Flightaware)

Listeners: 0 out of 914 total

Preston CTAF: 122.900

KFLG Ground/Tower (Archives)
Flagstaff, Arizona, United States

Feed Status: UP
Listen in your browser - HTML5 player(in browser, HTML5)
Click here to listen with your own player(launches your MP3 player)

KFLG 040057Z 23011G17KT 10SM CLR 27/00 A3021 RMK AO2 SLP124 T02670000

KFLG Airport Info (Airnav.com)

KFLG Flight Activity (Flightaware)

Listeners: 0 out of 914 total

Flagstaff Ground: 121.900
Flagstaff Tower: 134.550

KFLO App/Dep (Archives)
Florence, South Carolina, United States

Feed Status: UP
Listen in your browser - HTML5 player(in browser, HTML5)
Click here to listen with your own player(launches your MP3 player)

KFLO 040053Z AUTO 20005KT 10SM CLR 27/19 A2995 RMK AO2 SLP137 T02720194

KFLO Airport Info (Airnav.com)

KFLO Flight Activity (Flightaware)

Listeners: 0 out of 914 total

Florence Approach: 135.250
Florence Approach: 118.600

KFLO ATIS (Archives)
Florence, South Carolina, United States

Feed Status: UP
Listen in your browser - HTML5 player(in browser, HTML5)
Click here to listen with your own player(launches your MP3 player)

KFLO 040053Z AUTO 20005KT 10SM CLR 27/19 A2995 RMK AO2 SLP137 T02720194

KFLO Airport Info (Airnav.com)

KFLO Flight Activity (Flightaware)

Listeners: 0 out of 914 total

Florence ATIS: 123.625

KFLO Gnd/Twr/App (Archives)
Florence, South Carolina, United States

Feed Status: UP
Listen in your browser - HTML5 player(in browser, HTML5)
Click here to listen with your own player(launches your MP3 player)

KFLO 040053Z AUTO 20005KT 10SM CLR 27/19 A2995 RMK AO2 SLP137 T02720194

KFLO Airport Info (Airnav.com)

KFLO Flight Activity (Flightaware)

Listeners: 1 out of 914 total

Florence Approach: 118.600
Florence Approach: 135.250
Florence Ground: 121.900
Florence Tower: 125.100

KFLO Ground (Archives)
Florence, South Carolina, United States

Feed Status: UP
Listen in your browser - HTML5 player(in browser, HTML5)
Click here to listen with your own player(launches your MP3 player)

KFLO 040053Z AUTO 20005KT 10SM CLR 27/19 A2995 RMK AO2 SLP137 T02720194

KFLO Airport Info (Airnav.com)

KFLO Flight Activity (Flightaware)

Listeners: 0 out of 914 total

Florence Ground: 121.900

KFLO Tower (Archives)
Florence, South Carolina, United States

Feed Status: UP
Listen in your browser - HTML5 player(in browser, HTML5)
Click here to listen with your own player(launches your MP3 player)

KFLO 040053Z AUTO 20005KT 10SM CLR 27/19 A2995 RMK AO2 SLP137 T02720194

KFLO Airport Info (Airnav.com)

KFLO Flight Activity (Flightaware)

Listeners: 0 out of 914 total

Florence Tower: 125.100

KHYA/KFMH Twr/Cape App
Falmouth, Massachusetts, United States

Feed Status: DOWN
Offline since: 2020-02-05 09:52:22 UTC

KHYA Airport Info (Airnav.com)

Cape Approach: 118.200
Cape Approach: 120.125
Cape Approach: 284.600
Coast Guard Tower: 128.425
Coast Guard Tower: 291.100
Hyannis Tower: 119.500
Hyannis Tower: 257.800

KFMY ATIS (Archives)
Fort Myers, Florida, United States

Feed Status: UP
Listen in your browser - HTML5 player(in browser, HTML5)
Click here to listen with your own player(launches your MP3 player)

KFMY 040053Z 08004KT 10SM -RA SCT021 BKN120 23/23 A2998 RMK AO2 SLP154 P0001 T02280228

KFMY Airport Info (Airnav.com)

KFMY Flight Activity (Flightaware)

Listeners: 0 out of 914 total

Page ATIS: 123.725

KFMY Del/Gnd/Twr (Archives)
Fort Myers, Florida, United States

Feed Status: UP
Listen in your browser - HTML5 player(in browser, HTML5)
Click here to listen with your own player(launches your MP3 player)

KFMY 040053Z 08004KT 10SM -RA SCT021 BKN120 23/23 A2998 RMK AO2 SLP154 P0001 T02280228

KFMY Airport Info (Airnav.com)

KFMY Flight Activity (Flightaware)

Listeners: 0 out of 914 total

Page Clearance/Ground: 121.700
Page Tower: 119.000

KFNL Ground (Archives)
Fort Collins/Loveland, Colorado, United States

Feed Status: UP
Listen in your browser - HTML5 player(in browser, HTML5)
Click here to listen with your own player(launches your MP3 player)

KFNL 040056Z 15005KT 10SM CLR 24/07 A3002 RMK AO2 SLP108 T02440067

KFNL Airport Info (Airnav.com)

KFNL Flight Activity (Flightaware)

Listeners: 0 out of 914 total

Fort Collins Ground: 121.650

KFNL Tower/CTAF (Archives)
Fort Collins/Loveland, Colorado, United States

Feed Status: UP
Listen in your browser - HTML5 player(in browser, HTML5)
Click here to listen with your own player(launches your MP3 player)

KFNL 040056Z 15005KT 10SM CLR 24/07 A3002 RMK AO2 SLP108 T02440067

KFNL Airport Info (Airnav.com)

KFNL Flight Activity (Flightaware)

Listeners: 0 out of 914 total

Fort Collins Tower/CTAF: 118.400

KFNL UNICOM (Archives)
Fort Collins/Loveland, Colorado, United States

Feed Status: UP
Listen in your browser - HTML5 player(in browser, HTML5)
Click here to listen with your own player(launches your MP3 player)

KFNL 040056Z 15005KT 10SM CLR 24/07 A3002 RMK AO2 SLP108 T02440067

KFNL Airport Info (Airnav.com)

KFNL Flight Activity (Flightaware)

Listeners: 0 out of 914 total

Fort Collins UNICOM: 122.950

KFPR ATIS #1 (Archives)
Fort Pierce, Florida, United States

Feed Status: UP
Listen in your browser - HTML5 player(in browser, HTML5)
Click here to listen with your own player(launches your MP3 player)

KFPR 040053Z AUTO 00000KT 10SM -RA FEW024 SCT110 24/24 A3000 RMK AO2 RAB48 SLP157 P0000 T02440239

KFPR Airport Info (Airnav.com)

KFPR Flight Activity (Flightaware)

Listeners: 0 out of 914 total

Fort Pierce ATIS: 134.825

KFPR Gnd/Twr #1 (Archives)
Fort Pierce, Florida, United States

Feed Status: UP
Listen in your browser - HTML5 player(in browser, HTML5)
Click here to listen with your own player(launches your MP3 player)

KFPR 040053Z AUTO 00000KT 10SM -RA FEW024 SCT110 24/24 A3000 RMK AO2 RAB48 SLP157 P0000 T02440239

KFPR Airport Info (Airnav.com)

KFPR Flight Activity (Flightaware)

Listeners: 0 out of 914 total

Ft Pierce Ground: 119.550
Ft Pierce Tower: 128.200

KFPR Ground (Archives)
Fort Pierce, Florida, United States

Feed Status: UP
Listen in your browser - HTML5 player(in browser, HTML5)
Click here to listen with your own player(launches your MP3 player)

KFPR 040053Z AUTO 00000KT 10SM -RA FEW024 SCT110 24/24 A3000 RMK AO2 RAB48 SLP157 P0000 T02440239

KFPR Airport Info (Airnav.com)

KFPR Flight Activity (Flightaware)

Listeners: 1 out of 914 total

Ft Pierce Ground: 119.550

KFPR Tower (Archives)
Fort Pierce, Florida, United States

Feed Status: UP
Listen in your browser - HTML5 player(in browser, HTML5)
Click here to listen with your own player(launches your MP3 player)

KFPR 040053Z AUTO 00000KT 10SM -RA FEW024 SCT110 24/24 A3000 RMK AO2 RAB48 SLP157 P0000 T02440239

KFPR Airport Info (Airnav.com)

KFPR Flight Activity (Flightaware)

Listeners: 1 out of 914 total

Ft Pierce Tower: 128.200

Palm Beach App/Dep (Archives)
Fort Pierce, Florida, United States

Feed Status: UP
Listen in your browser - HTML5 player(in browser, HTML5)
Click here to listen with your own player(launches your MP3 player)

KFPR 040053Z AUTO 00000KT 10SM -RA FEW024 SCT110 24/24 A3000 RMK AO2 RAB48 SLP157 P0000 T02440239

KFPR Airport Info (Airnav.com)

KFPR Flight Activity (Flightaware)

Listeners: 0 out of 914 total

Palm Beach Approach/Departure: 123.625

KFRG ATIS (Archives)
Farmingdale, New York, United States

Feed Status: UP
Listen in your browser - HTML5 player(in browser, HTML5)
Click here to listen with your own player(launches your MP3 player)

KFRG 040053Z AUTO 21009KT 10SM CLR 22/17 A2966 RMK AO2 LTG DSNT NW SLP043 T02220172

KFRG Airport Info (Airnav.com)

KFRG Flight Activity (Flightaware)

Listeners: 0 out of 914 total

Republic ATIS: 126.650

KFRG Delivery/Ground (Archives)
Farmingdale, New York, United States

Feed Status: UP
Listen in your browser - HTML5 player(in browser, HTML5)
Click here to listen with your own player(launches your MP3 player)

KFRG 040053Z AUTO 21009KT 10SM CLR 22/17 A2966 RMK AO2 LTG DSNT NW SLP043 T02220172

KFRG Airport Info (Airnav.com)

KFRG Flight Activity (Flightaware)

Listeners: 0 out of 914 total

Emergency/Guard: 121.500
Republic Clearance Delivery: 128.250
Republic Ground: 121.600

KFRG Tower (Archives)
Farmingdale, New York, United States

Feed Status: UP
Listen in your browser - HTML5 player(in browser, HTML5)
Click here to listen with your own player(launches your MP3 player)

KFRG 040053Z AUTO 21009KT 10SM CLR 22/17 A2966 RMK AO2 LTG DSNT NW SLP043 T02220172

KFRG Airport Info (Airnav.com)

KFRG Flight Activity (Flightaware)

Listeners: 0 out of 914 total

Republic Tower: 118.800

KFRM CTAF (Air Race Classic)
Fairmont, Minnesota, United States

Feed Status: DOWN
Offline since: 2019-06-25 18:58:03 UTC

Fairmont CTAF: 122.800

KFSD Approach/Departure
Sioux Falls, South Dakota, United States

Feed Status: DOWN
Offline since: 2019-11-11 22:35:39 UTC

KFSD 040056Z 32004KT 10SM BKN100 26/13 A2980 RMK AO2 SLP081 VCSH N AND W T02610128

KFSD Airport Info (Airnav.com)

Sioux Falls Approach/Departure: 125.800

KFSD Twr/App/Dep/ZMP (Archives)
Sioux Falls, South Dakota, United States

Feed Status: UP
Listen in your browser - HTML5 player(in browser, HTML5)
Click here to listen with your own player(launches your MP3 player)

KFSD 040056Z 32004KT 10SM BKN100 26/13 A2980 RMK AO2 SLP081 VCSH N AND W T02610128

KFSD Airport Info (Airnav.com)

KFSD Flight Activity (Flightaware)

Listeners: 1 out of 914 total

Minneapolis Center (Sector 33 PIR Low): 132.050
Sioux Falls Approach/Departure: 125.800
Sioux Falls Tower: 118.300

KFTG/KEIK/KBDU/KLMO/Misc (Archives)
Denver, Colorado, United States

Feed Status: UP
Listen in your browser - HTML5 player(in browser, HTML5)
Click here to listen with your own player(launches your MP3 player)

KDEN 040053Z 06010KT 10SM FEW100 BKN130 BKN220 26/05 A3005 RMK AO2 LTG DSNT W SLP097 VIRGA T02560050

KDEN Airport Info (Airnav.com)

KDEN Flight Activity (Flightaware)

Listeners: 1 out of 914 total

Air-to-Air Fixed Wing: 122.750
Air-to-Air Informal: 123.450
Boulder CTAF: 122.725
Erie CTAF: 123.000
Front Range Tower: 120.200
KBKF Tower: 121.000
Longmont CTAF: 122.975
MULTICOM: 122.900
UNICOM: 122.950

KFTW Del/Gnd/Twr (Archives)
Fort Worth, Texas, United States

Feed Status: UP
Listen in your browser - HTML5 player(in browser, HTML5)
Click here to listen with your own player(launches your MP3 player)

KFTW 040053Z 16010KT 10SM CLR 31/19 A2985 RMK AO2 SLP097 T03060194

KFTW Airport Info (Airnav.com)

KFTW Flight Activity (Flightaware)

Listeners: 3 out of 914 total

Meacham Clearance Delivery: 124.650
Meacham Ground: 121.900
Meacham Tower: 118.300

KFTW Del/Ground
Fort Worth, Texas, United States

Feed Status: DOWN
Offline since: 2020-06-04 01:24:39 UTC

KFTW 040053Z 16010KT 10SM CLR 31/19 A2985 RMK AO2 SLP097 T03060194

KFTW Airport Info (Airnav.com)

Meacham Clearance Delivery: 124.650
Meacham Ground: 121.900

KFTW Tower
Fort Worth, Texas, United States

Feed Status: DOWN
Offline since: 2020-06-04 01:24:39 UTC

KFTW 040053Z 16010KT 10SM CLR 31/19 A2985 RMK AO2 SLP097 T03060194

KFTW Airport Info (Airnav.com)

Meacham Tower: 118.300

Regional App (Meacham North) (Archives)
Fort Worth, Texas, United States

Feed Status: UP
Listen in your browser - HTML5 player(in browser, HTML5)
Click here to listen with your own player(launches your MP3 player)

KFTW 040053Z 16010KT 10SM CLR 31/19 A2985 RMK AO2 SLP097 T03060194

KFTW Airport Info (Airnav.com)

KFTW Flight Activity (Flightaware)

Listeners: 0 out of 914 total

Regional Approach (Meacham North): 118.100

Regional App (Meacham South) (Archives)
Fort Worth, Texas, United States

Feed Status: UP
Listen in your browser - HTML5 player(in browser, HTML5)
Click here to listen with your own player(launches your MP3 player)

KDFW 040053Z 18009KT 10SM FEW250 31/18 A2984 RMK AO2 SLP094 T03110178

KDFW Airport Info (Airnav.com)

KDFW Flight Activity (Flightaware)

Listeners: 0 out of 914 total

Regional Approach (Meacham South): 135.975

Regional Approach (Meacham North/South) (Archives)
Fort Worth, Texas, United States

Feed Status: UP
Listen in your browser - HTML5 player(in browser, HTML5)
Click here to listen with your own player(launches your MP3 player)

KFTW 040053Z 16010KT 10SM CLR 31/19 A2985 RMK AO2 SLP097 T03060194

KFTW Airport Info (Airnav.com)

KFTW Flight Activity (Flightaware)

Listeners: 0 out of 914 total

Regional Approach (Meacham North): 118.100
Regional Approach (Meacham South): 135.975

Atlanta Approach (N. Sat) (Archives)
Atlanta, Georgia, United States

Feed Status: UP
Listen in your browser - HTML5 player(in browser, HTML5)
Click here to listen with your own player(launches your MP3 player)

KRYY 040050Z 23004KT 10SM CLR 26/21 A2997 RMK AO2 SLP869 T02610211 PNO $

KRYY Airport Info (Airnav.com)

KRYY Flight Activity (Flightaware)

Listeners: 3 out of 914 total

Atlanta Approach (North Satellite): 121.000

KFTY Ground/Tower (Archives)
Atlanta, Georgia, United States

Feed Status: UP
Listen in your browser - HTML5 player(in browser, HTML5)
Click here to listen with your own player(launches your MP3 player)

KFTY 040053Z 21005KT 10SM CLR 28/18 A2995 RMK AO2 SLP131 T02780178

KFTY Airport Info (Airnav.com)

KFTY Flight Activity (Flightaware)

Listeners: 0 out of 914 total

County Ground: 121.700
County Tower: 118.450

KFWS Ground/Tower (Archives)
Fort Worth, Texas, United States

Feed Status: UP
Listen in your browser - HTML5 player(in browser, HTML5)
Click here to listen with your own player(launches your MP3 player)

KFWS 040055Z AUTO 16005KT 5SM CLR 31/19 A2987 RMK AO2 T03070185 PWINO

KFWS Airport Info (Airnav.com)

KFWS Flight Activity (Flightaware)

Listeners: 0 out of 914 total

Spinks Ground: 119.475
Spinks Tower/CTAF: 124.625

KFXE ATIS (Archives)
Fort Lauderdale, Florida, United States

Feed Status: UP
Listen in your browser - HTML5 player(in browser, HTML5)
Click here to listen with your own player(launches your MP3 player)

KFXE 040053Z 00000KT 10SM TS FEW030 26/24 A2998 RMK AO2 RAE24 SLP155 P0002 T02610244 $

KFXE Airport Info (Airnav.com)

KFXE Flight Activity (Flightaware)

Listeners: 0 out of 914 total

Executive ATIS: 119.850

KFXE Ground (Archives)
Fort Lauderdale, Florida, United States

Feed Status: UP
Listen in your browser - HTML5 player(in browser, HTML5)
Click here to listen with your own player(launches your MP3 player)

KFXE 040053Z 00000KT 10SM TS FEW030 26/24 A2998 RMK AO2 RAE24 SLP155 P0002 T02610244 $

KFXE Airport Info (Airnav.com)

KFXE Flight Activity (Flightaware)

Listeners: 0 out of 914 total

Executive Ground: 121.750

KFXE Practice Area (Archives)
Fort Lauderdale, Florida, United States

Feed Status: UP
Listen in your browser - HTML5 player(in browser, HTML5)
Click here to listen with your own player(launches your MP3 player)

KFXE 040053Z 00000KT 10SM TS FEW030 26/24 A2998 RMK AO2 RAE24 SLP155 P0002 T02610244 $

KFXE Airport Info (Airnav.com)

KFXE Flight Activity (Flightaware)

Listeners: 0 out of 914 total

Coral Springs/Everglades Practice Area: 123.450

KFXE Tower #1 (Archives)
Fort Lauderdale, Florida, United States

Feed Status: UP
Listen in your browser - HTML5 player(in browser, HTML5)
Click here to listen with your own player(launches your MP3 player)

KFXE 040053Z 00000KT 10SM TS FEW030 26/24 A2998 RMK AO2 RAE24 SLP155 P0002 T02610244 $

KFXE Airport Info (Airnav.com)

KFXE Flight Activity (Flightaware)

Listeners: 0 out of 914 total

Ft. Lauderdale Exec Tower: 120.900

KFYV Gnd/Twr/App/ZME (Archives)
Fayetteville, Arkansas, United States

Feed Status: UP
Listen in your browser - HTML5 player(in browser, HTML5)
Click here to listen with your own player(launches your MP3 player)

KFYV 040053Z 18004KT 10SM CLR 28/22 A2989 RMK AO2 LTG DSNT S SLP106 T02830217

KFYV Airport Info (Airnav.com)

KFYV Flight Activity (Flightaware)

Listeners: 1 out of 914 total

Drake Ground: 121.800
Drake Tower: 128.000
Jonesboro Flight Service Station (FSS): 122.300
Memphis Center (High): 132.550
Memphis Center (High): 353.800
Razorback Approach: 121.000

KGAI CTAF/UNICOM (Archives)
Gaithersburg, Maryland, United States

Feed Status: UP
Listen in your browser - HTML5 player(in browser, HTML5)
Click here to listen with your own player(launches your MP3 player)

KGAI 040056Z AUTO 28006KT 10SM CLR 28/17 A2975 RMK AO2 SLP082 T02780172

KGAI Airport Info (Airnav.com)

KGAI Flight Activity (Flightaware)

Listeners: 1 out of 914 total

Gaithersburg CTAF: 123.075

KGBR/20N CTAF
Great Barrington, Massachusetts, United States

Feed Status: DOWN
Offline since: 2019-07-21 23:53:05 UTC

KGBR Airport Info (Airnav.com)

Great Barrington CTAF: 122.800

KGDM/KORE CTAF (Archives)
Gardner, Massachusetts, United States

Feed Status: UP
Listen in your browser - HTML5 player(in browser, HTML5)
Click here to listen with your own player(launches your MP3 player)

KGDM Airport Info (Airnav.com)

KGDM Flight Activity (Flightaware)

Listeners: 0 out of 914 total

Gardner CTAF: 122.800

KGED ASOS
Georgetown, Delaware, United States

Feed Status: DOWN
Offline since: 2020-05-24 16:58:39 UTC

KGED 040054Z AUTO 24009KT CLR 29/18 A2971 RMK AO2 SLP059 T02890183

KGED Airport Info (Airnav.com)

Georgetown ASOS: 118.375

KGED CTAF
Georgetown, Delaware, United States

Feed Status: DOWN
Offline since: 2020-05-25 22:23:05 UTC

KGED 040054Z AUTO 24009KT CLR 29/18 A2971 RMK AO2 SLP059 T02890183

KGED Airport Info (Airnav.com)

Georgetown CTAF: 123.000

KGFK Approach (Archives)
Grand Forks, North Dakota, United States

Feed Status: UP
Listen in your browser - HTML5 player(in browser, HTML5)
Click here to listen with your own player(launches your MP3 player)

KGFK 040053Z 19009KT 10SM BKN095 BKN250 26/08 A2967 RMK AO2 SLP044 T02610078

KGFK Airport Info (Airnav.com)

KGFK Flight Activity (Flightaware)

Listeners: 0 out of 914 total

Grand Forks Approach: 118.100
Grand Forks Approach (VFR): 132.300

KGFK ATIS (Archives)
Grand Forks, North Dakota, United States

Feed Status: UP
Listen in your browser - HTML5 player(in browser, HTML5)
Click here to listen with your own player(launches your MP3 player)

KGFK 040053Z 19009KT 10SM BKN095 BKN250 26/08 A2967 RMK AO2 SLP044 T02610078

KGFK Airport Info (Airnav.com)

KGFK Flight Activity (Flightaware)

Listeners: 0 out of 914 total

Grand Forks ATIS: 119.400

KGFK Ground (Archives)
Grand Forks, North Dakota, United States

Feed Status: UP
Listen in your browser - HTML5 player(in browser, HTML5)
Click here to listen with your own player(launches your MP3 player)

KGFK 040053Z 19009KT 10SM BKN095 BKN250 26/08 A2967 RMK AO2 SLP044 T02610078

KGFK Airport Info (Airnav.com)

KGFK Flight Activity (Flightaware)

Listeners: 0 out of 914 total

Grand Forks Ground: 124.575

KGFK Tower 1 (118.4/IFR/VFR) (Archives)
Grand Forks, North Dakota, United States

Feed Status: UP
Listen in your browser - HTML5 player(in browser, HTML5)
Click here to listen with your own player(launches your MP3 player)

KGFK 040053Z 19009KT 10SM BKN095 BKN250 26/08 A2967 RMK AO2 SLP044 T02610078

KGFK Airport Info (Airnav.com)

KGFK Flight Activity (Flightaware)

Listeners: 0 out of 914 total

Grand Forks Tower (IFR/VFR): 118.400

KGFK Tower 2 (120.55/VFR) (Archives)
Grand Forks, North Dakota, United States

Feed Status: UP
Listen in your browser - HTML5 player(in browser, HTML5)
Click here to listen with your own player(launches your MP3 player)

KGFK 040053Z 19009KT 10SM BKN095 BKN250 26/08 A2967 RMK AO2 SLP044 T02610078

KGFK Airport Info (Airnav.com)

KGFK Flight Activity (Flightaware)

Listeners: 0 out of 914 total

Grand Forks Tower (VFR): 120.550

KGFL CTAF/App (Archives)
Glens Falls, New York, United States

Feed Status: UP
Listen in your browser - HTML5 player(in browser, HTML5)
Click here to listen with your own player(launches your MP3 player)

KGFL 040053Z AUTO 30003KT 10SM CLR 18/15 A2961 RMK AO2 SLP028 T01780150

KGFL Airport Info (Airnav.com)

KGFL Flight Activity (Flightaware)

Listeners: 0 out of 914 total

Albany Approach: 118.050
Albany Approach: 132.825
Glens Falls Unicom: 123.000
Unicom (Granville, Schroon Lake, Argyle, Heber Air: 122.900
Unicom (Saratoga Co., Rutland, Ticonderoga, Round : 122.800

KGIF ASOS (Archives)
Winter Haven, Florida, United States

Feed Status: UP
Listen in your browser - HTML5 player(in browser, HTML5)
Click here to listen with your own player(launches your MP3 player)

KGIF 040053Z AUTO 00000KT 10SM -RA SCT120 24/23 A3001 RMK AO2 SLP160 P0001 T02440228

KGIF Airport Info (Airnav.com)

KGIF Flight Activity (Flightaware)

Listeners: 0 out of 914 total

Winter Haven ASOS: 133.675

KGIF CTAF/GCO/Guard (Archives)
Winter Haven, Florida, United States

Feed Status: UP
Listen in your browser - HTML5 player(in browser, HTML5)
Click here to listen with your own player(launches your MP3 player)

KGIF 040053Z AUTO 00000KT 10SM -RA SCT120 24/23 A3001 RMK AO2 SLP160 P0001 T02440228

KGIF Airport Info (Airnav.com)

KGIF Flight Activity (Flightaware)

Listeners: 0 out of 914 total

Emergency/Guard: 121.500
Winter Haven CTAF: 123.050
Winter Haven GCO (Clearance Delivery): 121.725

KGIF GCO/Guard (Archives)
Winter Haven, Florida, United States

Feed Status: UP
Listen in your browser - HTML5 player(in browser, HTML5)
Click here to listen with your own player(launches your MP3 player)

KGIF 040053Z AUTO 00000KT 10SM -RA SCT120 24/23 A3001 RMK AO2 SLP160 P0001 T02440228

KGIF Airport Info (Airnav.com)

KGIF Flight Activity (Flightaware)

Listeners: 0 out of 914 total

Emergency/Guard: 121.500
Winter Haven GCO (Clearance Delivery): 121.725

KGIF/F57 CTAF (Archives)
Winter Haven, Florida, United States

Feed Status: UP
Listen in your browser - HTML5 player(in browser, HTML5)
Click here to listen with your own player(launches your MP3 player)

KGIF 040053Z AUTO 00000KT 10SM -RA SCT120 24/23 A3001 RMK AO2 SLP160 P0001 T02440228

KGIF Airport Info (Airnav.com)

KGIF Flight Activity (Flightaware)

Listeners: 0 out of 914 total

Winter Haven CTAF: 123.050

KGJT Gnd/Twr/App/ZDV (Archives)
Grand Junction, Colorado, United States

Feed Status: UP
Listen in your browser - HTML5 player(in browser, HTML5)
Click here to listen with your own player(launches your MP3 player)

KGJT 040053Z 29010KT 10SM CLR 32/M01 A2997 RMK AO2 SLP074 T03171011

KGJT Airport Info (Airnav.com)

KGJT Flight Activity (Flightaware)

Listeners: 0 out of 914 total

Denver Approach: 119.700
Denver Center (Sector 11 Grand Junction Low): 134.500
Grand Junction Ground: 121.700
Grand Junction Tower: 118.100

KGKY Ground/Tower (Archives)
Arlington, Texas, United States

Feed Status: UP
Listen in your browser - HTML5 player(in browser, HTML5)
Click here to listen with your own player(launches your MP3 player)

KGKY 040053Z 16008KT 10SM CLR 32/18 A2985 RMK AO2 SLP099 T03220178

KGKY Airport Info (Airnav.com)

KGKY Flight Activity (Flightaware)

Listeners: 0 out of 914 total

Arlington Ground: 121.875
Arlington Tower: 128.625

KGMU ATIS (Archives)
Greenville, South Carolina, United States

Feed Status: UP
Listen in your browser - HTML5 player(in browser, HTML5)
Click here to listen with your own player(launches your MP3 player)

KGMU 040053Z 22003KT 10SM CLR 28/21 A2995 RMK AO2 SLP131 T02830211

KGMU Airport Info (Airnav.com)

KGMU Flight Activity (Flightaware)

Listeners: 0 out of 914 total

Greenville ATIS: 127.075

KGMU Ground (Archives)
Greenville, South Carolina, United States

Feed Status: UP
Listen in your browser - HTML5 player(in browser, HTML5)
Click here to listen with your own player(launches your MP3 player)

KGMU 040053Z 22003KT 10SM CLR 28/21 A2995 RMK AO2 SLP131 T02830211

KGMU Airport Info (Airnav.com)

KGMU Flight Activity (Flightaware)

Listeners: 0 out of 914 total

Greenville Ground: 121.250

KGMU Ground/Tower (Archives)
Greenville, South Carolina, United States

Feed Status: UP
Listen in your browser - HTML5 player(in browser, HTML5)
Click here to listen with your own player(launches your MP3 player)

KGMU 040053Z 22003KT 10SM CLR 28/21 A2995 RMK AO2 SLP131 T02830211

KGMU Airport Info (Airnav.com)

KGMU Flight Activity (Flightaware)

Listeners: 0 out of 914 total

Greenville Ground: 121.250
Greenville Tower: 119.900

KGMU Tower (Archives)
Greenville, South Carolina, United States

Feed Status: UP
Listen in your browser - HTML5 player(in browser, HTML5)
Click here to listen with your own player(launches your MP3 player)

KGMU 040053Z 22003KT 10SM CLR 28/21 A2995 RMK AO2 SLP131 T02830211

KGMU Airport Info (Airnav.com)

KGMU Flight Activity (Flightaware)

Listeners: 0 out of 914 total

Greenville Tower: 119.900

KGNV Ground/Tower (Archives)
Gainesville, Florida, United States

Feed Status: UP
Listen in your browser - HTML5 player(in browser, HTML5)
Click here to listen with your own player(launches your MP3 player)

KGNV 040053Z 15004KT 10SM -RA FEW120 23/22 A3004 RMK AO2 SLP168 P0000 T02330217

KGNV Airport Info (Airnav.com)

KGNV Flight Activity (Flightaware)

Listeners: 0 out of 914 total

Gainesville Ground: 121.700
Gainesville Tower: 119.550

KGPT App/Dep (Archives)
Gulfport, Mississippi, United States

Feed Status: UP
Listen in your browser - HTML5 player(in browser, HTML5)
Click here to listen with your own player(launches your MP3 player)

KGPT 040053Z 00000KT 10SM FEW023 26/22 A2996 RMK AO2 SLP145 T02610217

KGPT Airport Info (Airnav.com)

KGPT Flight Activity (Flightaware)

Listeners: 0 out of 914 total

Gulfport Approach/Departure: 124.600
Gulfport Approach/Departure: 127.500

KGPT App/Dep #1 (Archives)
Gulfport, Mississippi, United States

Feed Status: UP
Listen in your browser - HTML5 player(in browser, HTML5)
Click here to listen with your own player(launches your MP3 player)

KGPT 040053Z 00000KT 10SM FEW023 26/22 A2996 RMK AO2 SLP145 T02610217

KGPT Airport Info (Airnav.com)

KGPT Flight Activity (Flightaware)

Listeners: 0 out of 914 total

Gulfport Approach/Departure: 124.600

KGPT App/Dep #2 (Archives)
Gulfport, Mississippi, United States

Feed Status: UP
Listen in your browser - HTML5 player(in browser, HTML5)
Click here to listen with your own player(launches your MP3 player)

KGPT 040053Z 00000KT 10SM FEW023 26/22 A2996 RMK AO2 SLP145 T02610217

KGPT Airport Info (Airnav.com)

KGPT Flight Activity (Flightaware)

Listeners: 0 out of 914 total

Gulfport Approach/Departure: 127.500

KGPT Approach (Final) (Archives)
Gulfport, Mississippi, United States

Feed Status: UP
Listen in your browser - HTML5 player(in browser, HTML5)
Click here to listen with your own player(launches your MP3 player)

KGPT 040053Z 00000KT 10SM FEW023 26/22 A2996 RMK AO2 SLP145 T02610217

KGPT Airport Info (Airnav.com)

KGPT Flight Activity (Flightaware)

Listeners: 0 out of 914 total

Gulfport Approach (Final): 126.750

KGPT ATIS (Archives)
Gulfport, Mississippi, United States

Feed Status: UP
Listen in your browser - HTML5 player(in browser, HTML5)
Click here to listen with your own player(launches your MP3 player)

KGPT 040053Z 00000KT 10SM FEW023 26/22 A2996 RMK AO2 SLP145 T02610217

KGPT Airport Info (Airnav.com)

KGPT Flight Activity (Flightaware)

Listeners: 0 out of 914 total

Gulfport ATIS: 119.450

KGPT Emergency/Guard (Archives)
Gulfport, Mississippi, United States

Feed Status: UP
Listen in your browser - HTML5 player(in browser, HTML5)
Click here to listen with your own player(launches your MP3 player)

KGPT 040053Z 00000KT 10SM FEW023 26/22 A2996 RMK AO2 SLP145 T02610217

KGPT Airport Info (Airnav.com)

KGPT Flight Activity (Flightaware)

Listeners: 0 out of 914 total

Emergency/Guard: 121.500

KGPT Gnd/Twr (Archives)
Gulfport, Mississippi, United States

Feed Status: UP
Listen in your browser - HTML5 player(in browser, HTML5)
Click here to listen with your own player(launches your MP3 player)

KGPT 040053Z 00000KT 10SM FEW023 26/22 A2996 RMK AO2 SLP145 T02610217

KGPT Airport Info (Airnav.com)

KGPT Flight Activity (Flightaware)

Listeners: 0 out of 914 total

Gulfport Ground: 120.400
Gulfport Tower: 123.700

KGPT Ground (Archives)
Gulfport, Mississippi, United States

Feed Status: UP
Listen in your browser - HTML5 player(in browser, HTML5)
Click here to listen with your own player(launches your MP3 player)

KGPT 040053Z 00000KT 10SM FEW023 26/22 A2996 RMK AO2 SLP145 T02610217

KGPT Airport Info (Airnav.com)

KGPT Flight Activity (Flightaware)

Listeners: 0 out of 914 total

Gulfport Ground: 120.400

KGPT Tower (Archives)
Gulfport, Mississippi, United States

Feed Status: UP
Listen in your browser - HTML5 player(in browser, HTML5)
Click here to listen with your own player(launches your MP3 player)

KGPT 040053Z 00000KT 10SM FEW023 26/22 A2996 RMK AO2 SLP145 T02610217

KGPT Airport Info (Airnav.com)

KGPT Flight Activity (Flightaware)

Listeners: 0 out of 914 total

Gulfport Tower: 123.700

KGQQ CTAF/Del/App (Archives)
Galion, Ohio, United States

Feed Status: UP
Listen in your browser - HTML5 player(in browser, HTML5)
Click here to listen with your own player(launches your MP3 player)

KGQQ Airport Info (Airnav.com)

KGQQ Flight Activity (Flightaware)

Listeners: 0 out of 914 total

Galion Clearance Delivery: 126.800
Galion CTAF/UNICOM: 122.800
Mansfield Approach: 124.200

KGRK Twr/App
Fort Hood (Killeen), Texas, United States

Feed Status: DOWN
Offline since: 2019-11-24 15:09:39 UTC

KGRK 032358Z AUTO 15010KT 10SM CLR 31/19 A2987 RMK AO2 SLP104 T03100189 10323 20292 56013

KGRK Airport Info (Airnav.com)

Gray Tower: 120.750

KGTU Gnd/Twr (Archives)
Georgetown, Texas, United States

Feed Status: UP
Listen in your browser - HTML5 player(in browser, HTML5)
Click here to listen with your own player(launches your MP3 player)

KGTU 040056Z 14009G17KT 10SM BKN055 BKN075 BKN095 29/22 A2991 RMK AO2 SLP121 T02890217

KGTU Airport Info (Airnav.com)

KGTU Flight Activity (Flightaware)

Listeners: 0 out of 914 total

Georgetown Ground: 119.125
Georgetown Tower: 120.225

KGUS Del/Gnd/Twr/App
Peru, Indiana, United States

Feed Status: DOWN
Offline since: 2020-05-03 16:05:22 UTC

KGUS 040056Z AUTO 00000KT 10SM OVC100 25/17 A2980 RMK AO2 SLP089 T02540168 $

KGUS Airport Info (Airnav.com)

Grissom Approach: 121.050
Grissom Approach: 379.300
Grissom Approach (Basic Radar Service): 123.450
Grissom Approach (Basic Radar Service): 126.320
Grissom Approach (Basic Radar Service): 132.150
Grissom Approach (Basic Radar Service): 122.800
Grissom Approach (Basic Radar Service): 379.300
Grissom Approach (Basic Radar Service): 121.050
Grissom Clearance Delivery: 139.900
Grissom Departure: 351.100
Grissom Ground: 275.800
Grissom Ground: 128.425
Grissom Tower: 290.450
Grissom Tower: 133.700
Grisson Clearance Delivery: 324.300

KGVL AWOS (Archives)
Gainesville, Georgia, United States

Feed Status: UP
Listen in your browser - HTML5 player(in browser, HTML5)
Click here to listen with your own player(launches your MP3 player)

KGVL 040053Z AUTO 22003KT 10SM CLR 26/18 A2998 RMK AO2 SLP137 T02560183

KGVL Airport Info (Airnav.com)

KGVL Flight Activity (Flightaware)

Listeners: 0 out of 914 total

Gainesville AWOS: 126.475

KGVL CTAF/Clearance (Archives)
Gainesville, Georgia, United States

Feed Status: UP
Listen in your browser - HTML5 player(in browser, HTML5)
Click here to listen with your own player(launches your MP3 player)

KGVL 040053Z AUTO 22003KT 10SM CLR 26/18 A2998 RMK AO2 SLP137 T02560183

KGVL Airport Info (Airnav.com)

KGVL Flight Activity (Flightaware)

Listeners: 0 out of 914 total

Gainesville Clearance (Atlanta Center or TRACON): 134.800
Gainesville CTAF: 123.075

KGWS CTAF/Guard
Glenwood Springs, Colorado, United States

Feed Status: DOWN
Offline since: 2020-06-03 15:56:39 UTC

KGWS Airport Info (Airnav.com)

Emergency/Guard: 121.500
Glenwood Springs CTAF: 123.000

KGXY CTAF (Archives)
Greeley, Colorado, United States

Feed Status: UP
Listen in your browser - HTML5 player(in browser, HTML5)
Click here to listen with your own player(launches your MP3 player)

KGXY 040056Z 21006KT 10SM SCT095 BKN110 26/07 A3002 RMK AO2 SLP124 T02610067

KGXY Airport Info (Airnav.com)

KGXY Flight Activity (Flightaware)

Listeners: 0 out of 914 total

Greeley CTAF: 122.800

KGXY RCO (Denver Radio) (Archives)
Greeley, Colorado, United States

Feed Status: UP
Listen in your browser - HTML5 player(in browser, HTML5)
Click here to listen with your own player(launches your MP3 player)

KGXY 040056Z 21006KT 10SM SCT095 BKN110 26/07 A3002 RMK AO2 SLP124 T02610067

KGXY Airport Info (Airnav.com)

KGXY Flight Activity (Flightaware)

Listeners: 0 out of 914 total

Greeley RCO (Denver Radio): 122.650

KGYH Tower (Archives)
Greenville, South Carolina, United States

Feed Status: UP
Listen in your browser - HTML5 player(in browser, HTML5)
Click here to listen with your own player(launches your MP3 player)

KGMU 040053Z 22003KT 10SM CLR 28/21 A2995 RMK AO2 SLP131 T02830211

KGMU Airport Info (Airnav.com)

KGMU Flight Activity (Flightaware)

Listeners: 0 out of 914 total

Donaldson Tower: 133.325

KGYI ATIS (Archives)
Sherman/Denison, Texas, United States

Feed Status: UP
Listen in your browser - HTML5 player(in browser, HTML5)
Click here to listen with your own player(launches your MP3 player)

KGYI 040055Z AUTO 17006KT 10SM CLR 30/20 A2987 RMK AO2 T03000200

KGYI Airport Info (Airnav.com)

KGYI Flight Activity (Flightaware)

Listeners: 0 out of 914 total

North Texas ATIS: 118.775

KGYI Ground/Tower (Archives)
Sherman/Denison, Texas, United States

Feed Status: UP
Listen in your browser - HTML5 player(in browser, HTML5)
Click here to listen with your own player(launches your MP3 player)

KGYI 040055Z AUTO 17006KT 10SM CLR 30/20 A2987 RMK AO2 T03000200

KGYI Airport Info (Airnav.com)

KGYI Flight Activity (Flightaware)

Listeners: 0 out of 914 total

North Texas Ground: 124.125
North Texas Tower: 120.575

KGYR Ground (Archives)
Goodyear, Arizona, United States

Feed Status: UP
Listen in your browser - HTML5 player(in browser, HTML5)
Click here to listen with your own player(launches your MP3 player)

KGYR 040047Z 30006KT 10SM SKC 42/06 A2970

KGYR Airport Info (Airnav.com)

KGYR Flight Activity (Flightaware)

Listeners: 0 out of 914 total

Goodyear Ground: 121.700

KGYR Ground/Tower (Archives)
Goodyear, Arizona, United States

Feed Status: UP
Listen in your browser - HTML5 player(in browser, HTML5)
Click here to listen with your own player(launches your MP3 player)

KGYR 040047Z 30006KT 10SM SKC 42/06 A2970

KGYR Airport Info (Airnav.com)

KGYR Flight Activity (Flightaware)

Listeners: 1 out of 914 total

Goodyear Ground: 121.700
Goodyear Tower: 120.100

KGYR Tower (Archives)
Goodyear, Arizona, United States

Feed Status: UP
Listen in your browser - HTML5 player(in browser, HTML5)
Click here to listen with your own player(launches your MP3 player)

KGYR 040047Z 30006KT 10SM SKC 42/06 A2970

KGYR Airport Info (Airnav.com)

KGYR Flight Activity (Flightaware)

Listeners: 1 out of 914 total

Goodyear Tower: 120.100

KHBG CTAF (Air Race Classic)
Hattiesburg, Mississippi, United States

Feed Status: DOWN
Offline since: 2019-07-19 17:38:22 UTC

Hattiesburg CTAF: 122.800

KHBZ CTAF (Archives)
Heber Springs, Arkansas, United States

Feed Status: UP
Listen in your browser - HTML5 player(in browser, HTML5)
Click here to listen with your own player(launches your MP3 player)

KHBZ Airport Info (Airnav.com)

KHBZ Flight Activity (Flightaware)

Listeners: 0 out of 914 total

Heber Springs CTAF/UNICOM: 122.700

KHDC De/Gnd/Twr/App/ZHU (Archives)
Hammond, Louisiana, United States

Feed Status: UP
Listen in your browser - HTML5 player(in browser, HTML5)
Click here to listen with your own player(launches your MP3 player)

KHDC 040055Z AUTO 21004KT 10SM SCT016 25/22 A2996 RMK AO2 LTG DSNT NE

KHDC Airport Info (Airnav.com)

KHDC Flight Activity (Flightaware)

Listeners: 1 out of 914 total

Hammond CTAF: 122.700
Hammond Ground: 119.850
Hammond Tower: 120.575
Houston Center (Low): 126.350
New Orleans Approach (West): 125.500
New Orleans Clearance/Approach: 119.300

KHEF Del/Gnd/Twr (Archives)
Manassas, Virginia, United States

Feed Status: UP
Listen in your browser - HTML5 player(in browser, HTML5)
Click here to listen with your own player(launches your MP3 player)

KHEF 040056Z AUTO 19004KT 10SM CLR 26/20 A2973 RMK AO2 SLP071 T02560200

KHEF Airport Info (Airnav.com)

KHEF Flight Activity (Flightaware)

Listeners: 0 out of 914 total

Manassas Clearance Delivery (after Tower closes): 120.200
Manassas Ground: 121.800
Manassas Tower: 133.100

KHFD Ground/Tower (Archives)
Hartford, Connecticut, United States

Feed Status: UP
Listen in your browser - HTML5 player(in browser, HTML5)
Click here to listen with your own player(launches your MP3 player)

KHFD 040053Z 16005KT 10SM FEW044 BKN060 21/19 A2963 RMK AO2 LTG DSNT SE RAE2358 SLP032 TS SE MOV S P0000 T02110194

KHFD Airport Info (Airnav.com)

KHFD Flight Activity (Flightaware)

Listeners: 1 out of 914 total

Brainard Ground: 121.600
Brainard Tower: 119.600

KHGR Tower
Hagerstown, Maryland, United States

Feed Status: DOWN
Offline since: 2020-06-02 14:14:21 UTC

KMRB 040053Z 25014KT 10SM CLR 28/17 A2974 RMK AO2 SLP064 T02780167

KMRB Airport Info (Airnav.com)

Hagerstown Tower: 120.300

KHHR Ground/Tower (Archives)
Hawthorne, California, United States

Feed Status: UP
Listen in your browser - HTML5 player(in browser, HTML5)
Click here to listen with your own player(launches your MP3 player)

KHHR 040053Z 24007KT 10SM CLR 23/14 A2981 RMK AO2 SLP092 T02280144

KHHR Airport Info (Airnav.com)

KHHR Flight Activity (Flightaware)

Listeners: 0 out of 914 total

Hawthorne Ground: 125.100
Hawthorne Tower: 121.100

KHIO Ground (Archives)
Portland, Oregon, United States

Feed Status: UP
Listen in your browser - HTML5 player(in browser, HTML5)
Click here to listen with your own player(launches your MP3 player)

KHIO 040053Z 06005KT 10SM FEW070 23/10 A3006 RMK AO2 SLP179 T02280100

KHIO Airport Info (Airnav.com)

KHIO Flight Activity (Flightaware)

Listeners: 0 out of 914 total

Hillsboro Ground: 121.700

KHIO Tower (Archives)
Portland, Oregon, United States

Feed Status: UP
Listen in your browser - HTML5 player(in browser, HTML5)
Click here to listen with your own player(launches your MP3 player)

KHIO 040053Z 06005KT 10SM FEW070 23/10 A3006 RMK AO2 SLP179 T02280100

KHIO Airport Info (Airnav.com)

KHIO Flight Activity (Flightaware)

Listeners: 1 out of 914 total

Hillsboro Tower: 119.300
Hillsboro Tower: 132.800

KHKY ASOS (Archives)
Hickory, North Carolina, United States

Feed Status: UP
Listen in your browser - HTML5 player(in browser, HTML5)
Click here to listen with your own player(launches your MP3 player)

KHKY 040053Z AUTO 21006KT 10SM CLR 27/19 A2992 RMK AO2 SLP107 T02720194

KHKY Airport Info (Airnav.com)

KHKY Flight Activity (Flightaware)

Listeners: 0 out of 914 total

Hickory ASOS: 118.325

KHKY Del/Gnd/Twr/ZTL (Archives)
Hickory, North Carolina, United States

Feed Status: UP
Listen in your browser - HTML5 player(in browser, HTML5)
Click here to listen with your own player(launches your MP3 player)

KHKY 040053Z AUTO 21006KT 10SM CLR 27/19 A2992 RMK AO2 SLP107 T02720194

KHKY Airport Info (Airnav.com)

KHKY Flight Activity (Flightaware)

Listeners: 0 out of 914 total

Altanta Center Clearance Delivery: 124.250
Atlanta Center (Sector 47 MOPED Low): 134.550
Atlanta Center (Sector 48 Wilkes Ultra Low): 125.150
Hickory Ground: 121.700
Hickory Tower: 128.150

KHKY Emergency/Guard (Archives)
Hickory, North Carolina, United States

Feed Status: UP
Listen in your browser - HTML5 player(in browser, HTML5)
Click here to listen with your own player(launches your MP3 player)

KHKY 040053Z AUTO 21006KT 10SM CLR 27/19 A2992 RMK AO2 SLP107 T02720194

KHKY Airport Info (Airnav.com)

KHKY Flight Activity (Flightaware)

Listeners: 0 out of 914 total

Emergency/Guard: 121.500

KHKY Ground (Archives)
Hickory, North Carolina, United States

Feed Status: UP
Listen in your browser - HTML5 player(in browser, HTML5)
Click here to listen with your own player(launches your MP3 player)

KHKY 040053Z AUTO 21006KT 10SM CLR 27/19 A2992 RMK AO2 SLP107 T02720194

KHKY Airport Info (Airnav.com)

KHKY Flight Activity (Flightaware)

Listeners: 0 out of 914 total

Hickory Ground: 121.700

KHKY Tower (Archives)
Hickory, North Carolina, United States

Feed Status: UP
Listen in your browser - HTML5 player(in browser, HTML5)
Click here to listen with your own player(launches your MP3 player)

KHKY 040053Z AUTO 21006KT 10SM CLR 27/19 A2992 RMK AO2 SLP107 T02720194

KHKY Airport Info (Airnav.com)

KHKY Flight Activity (Flightaware)

Listeners: 0 out of 914 total

Hickory Tower: 128.150

KHMT CTAF (Archives)
Hemet, California, United States

Feed Status: UP
Listen in your browser - HTML5 player(in browser, HTML5)
Click here to listen with your own player(launches your MP3 player)

KHMT 040055Z AUTO 23013KT 10SM CLR 32/14 A2984 RMK AO2 T03220138

KHMT Airport Info (Airnav.com)

KHMT Flight Activity (Flightaware)

Listeners: 0 out of 914 total

Hemet CTAF: 123.000

KHNB CTAF
Huntingburg, Indiana, United States

Feed Status: DOWN
Offline since: 2019-12-20 05:10:40 UTC

KHNB 040056Z AUTO 22006KT 10SM CLR 27/18 A2985 RMK AO2 SLP103 T02670183

KHNB Airport Info (Airnav.com)

Huntingburg CTAF: 122.800

KHND Ground/Tower (Archives)
Las Vegas, Nevada, United States

Feed Status: UP
Listen in your browser - HTML5 player(in browser, HTML5)
Click here to listen with your own player(launches your MP3 player)

KHND 040056Z AUTO RMK AO2 SLPNO PWINO FZRANO $

KHND Airport Info (Airnav.com)

KHND Flight Activity (Flightaware)

Listeners: 0 out of 914 total

Henderson Ground: 127.800
Henderson Tower: 125.100

KHPN ATIS (Archives)
White Plains, New York, United States

Feed Status: UP
Listen in your browser - HTML5 player(in browser, HTML5)
Click here to listen with your own player(launches your MP3 player)

KHPN 040056Z 35015G41KT 1SM R16/2000VP6000FT -TSRA BR BKN024 BKN060 18/17 A2970 RMK AO2 PK WND 33049/0046 LTG DSNT N AND NE RAB40 TSB40 SLP052 FRQ LTGICCCCG TS OHD MOV SE P0045 T01780167

KHPN Airport Info (Airnav.com)

KHPN Flight Activity (Flightaware)

Listeners: 0 out of 914 total

Westchester County ATIS: 133.800

KHPN Del/Gnd/Tower #1 (Archives)
White Plains, New York, United States

Feed Status: UP
Listen in your browser - HTML5 player(in browser, HTML5)
Click here to listen with your own player(launches your MP3 player)

KHPN 040056Z 35015G41KT 1SM R16/2000VP6000FT -TSRA BR BKN024 BKN060 18/17 A2970 RMK AO2 PK WND 33049/0046 LTG DSNT N AND NE RAB40 TSB40 SLP052 FRQ LTGICCCCG TS OHD MOV SE P0045 T01780167

KHPN Airport Info (Airnav.com)

KHPN Flight Activity (Flightaware)

Listeners: 1 out of 914 total

Westchester Clearance Delivery: 127.250
Westchester Ground: 121.825
Westchester Tower: 118.575

KHPN Del/Gnd/Tower #2 (Archives)
White Plains, New York, United States

Feed Status: UP
Listen in your browser - HTML5 player(in browser, HTML5)
Click here to listen with your own player(launches your MP3 player)

KHPN 040056Z 35015G41KT 1SM R16/2000VP6000FT -TSRA BR BKN024 BKN060 18/17 A2970 RMK AO2 PK WND 33049/0046 LTG DSNT N AND NE RAB40 TSB40 SLP052 FRQ LTGICCCCG TS OHD MOV SE P0045 T01780167

KHPN Airport Info (Airnav.com)

KHPN Flight Activity (Flightaware)

Listeners: 1 out of 914 total

Westchester Clearance Delivery: 127.250
Westchester Ground: 121.825
Westchester Tower: 118.575

KHPN Delivery/Ground (Archives)
White Plains, New York, United States

Feed Status: UP
Listen in your browser - HTML5 player(in browser, HTML5)
Click here to listen with your own player(launches your MP3 player)

KHPN 040056Z 35015G41KT 1SM R16/2000VP6000FT -TSRA BR BKN024 BKN060 18/17 A2970 RMK AO2 PK WND 33049/0046 LTG DSNT N AND NE RAB40 TSB40 SLP052 FRQ LTGICCCCG TS OHD MOV SE P0045 T01780167

KHPN Airport Info (Airnav.com)

KHPN Flight Activity (Flightaware)

Listeners: 0 out of 914 total

Westchester Clearance Delivery: 127.250
Westchester Ground: 121.825

KHPN Tower (Archives)
New York, New York, United States

Feed Status: UP
Listen in your browser - HTML5 player(in browser, HTML5)
Click here to listen with your own player(launches your MP3 player)

KHPN 040056Z 35015G41KT 1SM R16/2000VP6000FT -TSRA BR BKN024 BKN060 18/17 A2970 RMK AO2 PK WND 33049/0046 LTG DSNT N AND NE RAB40 TSB40 SLP052 FRQ LTGICCCCG TS OHD MOV SE P0045 T01780167

KHPN Airport Info (Airnav.com)

KHPN Flight Activity (Flightaware)

Listeners: 0 out of 914 total

Westchester Tower: 118.575

KHPN Tower (Archives)
New York, New York, United States

Feed Status: UP
Listen in your browser - HTML5 player(in browser, HTML5)
Click here to listen with your own player(launches your MP3 player)

KHPN 040056Z 35015G41KT 1SM R16/2000VP6000FT -TSRA BR BKN024 BKN060 18/17 A2970 RMK AO2 PK WND 33049/0046 LTG DSNT N AND NE RAB40 TSB40 SLP052 FRQ LTGICCCCG TS OHD MOV SE P0045 T01780167

KHPN Airport Info (Airnav.com)

KHPN Flight Activity (Flightaware)

Listeners: 0 out of 914 total

Westchester Tower: 118.575

NY Approach (NOBBI/NYACK/HAARP) (Archives)
New York, New York, United States

Feed Status: UP
Listen in your browser - HTML5 player(in browser, HTML5)
Click here to listen with your own player(launches your MP3 player)

KHPN 040056Z 35015G41KT 1SM R16/2000VP6000FT -TSRA BR BKN024 BKN060 18/17 A2970 RMK AO2 PK WND 33049/0046 LTG DSNT N AND NE RAB40 TSB40 SLP052 FRQ LTGICCCCG TS OHD MOV SE P0045 T01780167

KHPN Airport Info (Airnav.com)

KHPN Flight Activity (Flightaware)

Listeners: 1 out of 914 total

New York Approach (HAARP Sector): 135.350
New York Approach (HAARP Sector): 120.800
New York Approach (NOBBI Sector): 126.400
New York Approach (NYACK Sector): 120.550

KHQZ Gnd/Twr
Mesquite, Texas, United States

Feed Status: DOWN
Offline since: 2020-01-15 14:56:39 UTC

KHQZ 040050Z 14006KT 10SM CLR 31/19 A2986

KHQZ Airport Info (Airnav.com)

Mesquite Ground: 118.850
Mesquite Tower: 120.300

KHQZ Tower (Archives)
Mesquite, Texas, United States

Feed Status: UP
Listen in your browser - HTML5 player(in browser, HTML5)
Click here to listen with your own player(launches your MP3 player)

KHQZ 040050Z 14006KT 10SM CLR 31/19 A2986

KHQZ Airport Info (Airnav.com)

KHQZ Flight Activity (Flightaware)

Listeners: 1 out of 914 total

Mesquite Tower: 120.300

KHRL Gnd/Twr/App (Archives)
Harlingen, Texas, United States

Feed Status: UP
Listen in your browser - HTML5 player(in browser, HTML5)
Click here to listen with your own player(launches your MP3 player)

KHRL 040052Z 10009KT 10SM CLR 28/23 A2986 RMK AO2 SLP112 T02830228

KHRL Airport Info (Airnav.com)

KHRL Flight Activity (Flightaware)

Listeners: 0 out of 914 total

Harlingen Clearance/Ground: 121.700
Harlingen Tower: 119.300
Valley Approach: 120.700

KHRL Tower/CTAF (Archives)
Harlingen, Texas, United States

Feed Status: UP
Listen in your browser - HTML5 player(in browser, HTML5)
Click here to listen with your own player(launches your MP3 player)

KHRL 040052Z 10009KT 10SM CLR 28/23 A2986 RMK AO2 SLP112 T02830228

KHRL Airport Info (Airnav.com)

KHRL Flight Activity (Flightaware)

Listeners: 0 out of 914 total

Harlingen Tower: 119.300

KHRO CTAF/ZME/Misc (Archives)
Harrison, Arkansas, United States

Feed Status: UP
Listen in your browser - HTML5 player(in browser, HTML5)
Click here to listen with your own player(launches your MP3 player)

KHRO 040053Z AUTO 18004KT 10SM CLR 22/18 A2991 RMK AO2 SLP114 T02170183

KHRO Airport Info (Airnav.com)

KHRO Flight Activity (Flightaware)

Listeners: 0 out of 914 total

Boone County CTAF: 123.000
Jonesboro FSS: 122.450
Jonesboro FSS: 255.400
KBBG Tower (aircraft only): 128.150
Memphis Center (Low): 126.850
Memphis Center (Low): 281.550
Memphis Center (Ultra-High): 133.025
Memphis Center (Ultra-High): 284.750
Springfield Approach (aircraft only): 126.350

KHUA Tower
Huntsville, Alabama, United States

Feed Status: DOWN
Offline since: 2020-04-27 15:37:40 UTC

Redstone Tower: 126.950

KHUF App/Dep (Archives)
Terre Haute, Indiana, United States

Feed Status: UP
Listen in your browser - HTML5 player(in browser, HTML5)
Click here to listen with your own player(launches your MP3 player)

KHUF 040053Z AUTO 18004KT 10SM CLR 29/17 A2981 RMK AO2 LTG DSNT NE SLP089 T02890172

KHUF Airport Info (Airnav.com)

KHUF Flight Activity (Flightaware)

Listeners: 0 out of 914 total

Hulman Approach: 125.450

KHUF Emergency/Guard (Archives)
Terre Haute, Indiana, United States

Feed Status: UP
Listen in your browser - HTML5 player(in browser, HTML5)
Click here to listen with your own player(launches your MP3 player)

KHUF 040053Z AUTO 18004KT 10SM CLR 29/17 A2981 RMK AO2 LTG DSNT NE SLP089 T02890172

KHUF Airport Info (Airnav.com)

KHUF Flight Activity (Flightaware)

Listeners: 0 out of 914 total

Emergency/Guard: 121.500

KHUF Gnd/Twr (Archives)
Terre Haute, Indiana, United States

Feed Status: UP
Listen in your browser - HTML5 player(in browser, HTML5)
Click here to listen with your own player(launches your MP3 player)

KHUF 040053Z AUTO 18004KT 10SM CLR 29/17 A2981 RMK AO2 LTG DSNT NE SLP089 T02890172

KHUF Airport Info (Airnav.com)

KHUF Flight Activity (Flightaware)

Listeners: 0 out of 914 total

Hulman Ground/Clearance: 121.600
Hulman Tower: 134.725

KHUF Gnd/Twr/App (Archives)
Terre Haute, Indiana, United States

Feed Status: UP
Listen in your browser - HTML5 player(in browser, HTML5)
Click here to listen with your own player(launches your MP3 player)

KHUF 040053Z AUTO 18004KT 10SM CLR 29/17 A2981 RMK AO2 LTG DSNT NE SLP089 T02890172

KHUF Airport Info (Airnav.com)

KHUF Flight Activity (Flightaware)

Listeners: 0 out of 914 total

Hulman Approach: 125.450
Hulman Ground/Clearance: 121.600
Hulman Tower: 134.725
Indianapolis Center (Sector 35 Terre Haute Low): 132.200
Indianapolis Center (Sector 80 King High): 134.175

KHUF Ground (Archives)
Terre Haute, Indiana, United States

Feed Status: UP
Listen in your browser - HTML5 player(in browser, HTML5)
Click here to listen with your own player(launches your MP3 player)

KHUF 040053Z AUTO 18004KT 10SM CLR 29/17 A2981 RMK AO2 LTG DSNT NE SLP089 T02890172

KHUF Airport Info (Airnav.com)

KHUF Flight Activity (Flightaware)

Listeners: 0 out of 914 total

Hulman Ground/Clearance: 121.600

KHUF Tower (Archives)
Terre Haute, Indiana, United States

Feed Status: UP
Listen in your browser - HTML5 player(in browser, HTML5)
Click here to listen with your own player(launches your MP3 player)

KHUF 040053Z AUTO 18004KT 10SM CLR 29/17 A2981 RMK AO2 LTG DSNT NE SLP089 T02890172

KHUF Airport Info (Airnav.com)

KHUF Flight Activity (Flightaware)

Listeners: 0 out of 914 total

Hulman Tower: 134.725

KHUL ASOS (Archives)
Houlton, Maine, United States

Feed Status: UP
Listen in your browser - HTML5 player(in browser, HTML5)
Click here to listen with your own player(launches your MP3 player)

KHUL 040053Z AUTO 20005KT 10SM CLR 15/09 A2951 RMK AO2 SLP993 T01500094

KHUL Airport Info (Airnav.com)

KHUL Flight Activity (Flightaware)

Listeners: 0 out of 914 total

Houlton ASOS: 132.025

KHUL/KPQI/ZBW01/15 (Archives)
Houlton, Maine, United States

Feed Status: UP
Listen in your browser - HTML5 player(in browser, HTML5)
Click here to listen with your own player(launches your MP3 player)

KHUL 040053Z AUTO 20005KT 10SM CLR 15/09 A2951 RMK AO2 SLP993 T01500094

KHUL Airport Info (Airnav.com)

KHUL Flight Activity (Flightaware)

Listeners: 0 out of 914 total

Boston Center (Sector 01 Millinocket High Sector): 128.050
Boston Center (Sector 01 Millinocket High Sector): 319.100
Boston Center (Surry 15 Low Sector): 120.250
Boston Center (Surry 15 Low Sector): 346.400
Emergency/Guard: 121.500
Houlton CTAF/UNICOM: 122.800
Presque Isle CTAF/UNICOM: 122.800

KHUT Ground/Twr (Archives)
Hutchinson, Kansas, United States

Feed Status: UP
Listen in your browser - HTML5 player(in browser, HTML5)
Click here to listen with your own player(launches your MP3 player)

KHUT 040052Z 15003KT 10SM CLR 31/20 A2977 RMK AO2 SLP055 T03110200

KHUT Airport Info (Airnav.com)

KHUT Flight Activity (Flightaware)

Listeners: 1 out of 914 total

Emergency/Guard: 121.500
Hutchinson Ground: 121.900
Hutchinson Tower: 118.500

KHVN Ground/Tower (Archives)
New Haven, Connecticut, United States

Feed Status: UP
Listen in your browser - HTML5 player(in browser, HTML5)
Click here to listen with your own player(launches your MP3 player)

KHVN 040053Z VRB05KT 9SM -RA SCT050 BKN065 BKN080 23/18 A2964 RMK AO2 LTG DSNT NE AND E AND W RAB51 SLP036 P0000 T02330183

KHVN Airport Info (Airnav.com)

KHVN Flight Activity (Flightaware)

Listeners: 0 out of 914 total

New Haven Ground: 121.700
New Haven Tower: 124.800

KHWD Ground/Tower (Archives)
Hayward, California, United States

Feed Status: UP
Listen in your browser - HTML5 player(in browser, HTML5)
Click here to listen with your own player(launches your MP3 player)

KHWD 040054Z 27009KT 10SM CLR 28/14 A2987 RMK AO2 SLP124 T02830144

KHWD Airport Info (Airnav.com)

KHWD Flight Activity (Flightaware)

Listeners: 0 out of 914 total

Hayward Ground: 121.400
Hayward Tower: 118.900
Hayward Tower: 120.200

KHWO ATIS (Archives)
Hollywood, Florida, United States

Feed Status: UP
Listen in your browser - HTML5 player(in browser, HTML5)
Click here to listen with your own player(launches your MP3 player)

KHWO 040053Z AUTO 00000KT 10SM CLR A3000 RMK AO2 LTG DSNT SW SLP160

KHWO Airport Info (Airnav.com)

KHWO Flight Activity (Flightaware)

Listeners: 0 out of 914 total

North Perry ATIS: 135.475

KHWO Ground (Archives)
Hollywood, Florida, United States

Feed Status: UP
Listen in your browser - HTML5 player(in browser, HTML5)
Click here to listen with your own player(launches your MP3 player)

KHWO 040053Z AUTO 00000KT 10SM CLR A3000 RMK AO2 LTG DSNT SW SLP160

KHWO Airport Info (Airnav.com)

KHWO Flight Activity (Flightaware)

Listeners: 0 out of 914 total

North Perry Ground: 120.450

KHWO Tower (Both) (Archives)
Hollywood, Florida, United States

Feed Status: UP
Listen in your browser - HTML5 player(in browser, HTML5)
Click here to listen with your own player(launches your MP3 player)

KHWO 040053Z AUTO 00000KT 10SM CLR A3000 RMK AO2 LTG DSNT SW SLP160

KHWO Airport Info (Airnav.com)

KHWO Flight Activity (Flightaware)

Listeners: 0 out of 914 total

North Perry Tower (Primary): 132.100
North Perry Tower (Secondary): 134.300

KHWO Tower (Primary)
Hollywood, Florida, United States

Feed Status: DOWN
Offline since: 2019-12-30 16:50:05 UTC

KHWO 040053Z AUTO 00000KT 10SM CLR A3000 RMK AO2 LTG DSNT SW SLP160

KHWO Airport Info (Airnav.com)

North Perry Tower (Primary): 132.100

KHWO Tower (Secondary) (Archives)
Hollywood, Florida, United States

Feed Status: UP
Listen in your browser - HTML5 player(in browser, HTML5)
Click here to listen with your own player(launches your MP3 player)

KHWO 040053Z AUTO 00000KT 10SM CLR A3000 RMK AO2 LTG DSNT SW SLP160

KHWO Airport Info (Airnav.com)

KHWO Flight Activity (Flightaware)

Listeners: 0 out of 914 total

North Perry Tower (Secondary): 134.300

KHWO Twr/CTAF/App
Hollywood, Florida, United States

Feed Status: DOWN
Offline since: 2020-04-20 02:51:39 UTC

KHWO 040053Z AUTO 00000KT 10SM CLR A3000 RMK AO2 LTG DSNT SW SLP160

KHWO Airport Info (Airnav.com)

Miami Approach: 128.600
North Perry Tower: 132.100
North Perry Tower: 134.300
Practice Area CTAF: 123.450

KHWV CTAF (Archives)
Shirley, New York, United States

Feed Status: UP
Listen in your browser - HTML5 player(in browser, HTML5)
Click here to listen with your own player(launches your MP3 player)

KHWV 040056Z AUTO 21006KT 10SM BKN120 21/17 A2966 RMK AO2 SLP043 T02060167

KHWV Airport Info (Airnav.com)

KHWV Flight Activity (Flightaware)

Listeners: 0 out of 914 total

Brookhaven CTAF: 122.800
Emergency/Guard: 121.500

KHXD Ground/Tower (Archives)
Hilton Head Island, South Carolina, United States

Feed Status: UP
Listen in your browser - HTML5 player(in browser, HTML5)
Click here to listen with your own player(launches your MP3 player)

KHXD 040055Z AUTO VRB06KT 10SM CLR 25/19 A3000 RMK AO2

KHXD Airport Info (Airnav.com)

KHXD Flight Activity (Flightaware)

Listeners: 1 out of 914 total

Hilton Head Ground: 121.100
Hilton Head Tower: 118.975

KHYI Gnd/Twr/Misc (Archives)
Austin, Texas, United States

Feed Status: UP
Listen in your browser - HTML5 player(in browser, HTML5)
Click here to listen with your own player(launches your MP3 player)

KHYI 040056Z AUTO 13011KT 10SM CLR 28/24 A2990 RMK AO2 SLP114 T02780239

KHYI Airport Info (Airnav.com)

KHYI Flight Activity (Flightaware)

Listeners: 0 out of 914 total

Redbird FBO ASRI: 130.850
San Marcos Ground: 120.125
San Marcos Tower: 126.825

KHYS CTAF (Archives)
Hays, Kansas, United States

Feed Status: UP
Listen in your browser - HTML5 player(in browser, HTML5)
Click here to listen with your own player(launches your MP3 player)

KHYS 040056Z AUTO 18005KT 10SM CLR 30/21 A2980 RMK AO2 SLP071 T03000206

KHYS Airport Info (Airnav.com)

KHYS Flight Activity (Flightaware)

Listeners: 0 out of 914 total

Hays CTAF: 122.800

KIAG Del/Gnd/Twr (Archives)
Niagara Falls, New York, United States

Feed Status: UP
Listen in your browser - HTML5 player(in browser, HTML5)
Click here to listen with your own player(launches your MP3 player)

KIAG 040053Z 30006KT 10SM CLR 21/13 A2969 RMK AO2 SLP053 T02060128

KIAG Airport Info (Airnav.com)

KIAG Flight Activity (Flightaware)

Listeners: 0 out of 914 total

Niagara Clearance Delivery: 119.250
Niagara Emergency/Guard: 121.500
Niagara Ground: 121.700
Niagara Tower: 118.500
Niagara UNICOM: 122.950

KIKV Del/CTAF (Archives)
Ankeny, Iowa, United States

Feed Status: UP
Listen in your browser - HTML5 player(in browser, HTML5)
Click here to listen with your own player(launches your MP3 player)

KIKV 040055Z AUTO 00000KT 10SM CLR 29/18 A2977 RMK AO2

KIKV Airport Info (Airnav.com)

KIKV Flight Activity (Flightaware)

Listeners: 0 out of 914 total

Ankeny Clearance Delivery (Des Moines via RCO): 126.650
Ankeny CTAF: 122.900

KILM Gnd/Twr/App
Wilmington, North Carolina, United States

Feed Status: DOWN
Offline since: 2020-05-30 14:26:39 UTC

KILM 040053Z 22010G18KT 10SM CLR 24/17 A2995 RMK AO2 SLP141 T02390172

KILM Airport Info (Airnav.com)

Emergency/Guard: 121.500
Wilmington Approach: 118.250
Wilmington Approach: 135.750
Wilmington Approach: 317.425
Wilmington Approach: 284.650
Wilmington Ground: 121.900
Wilmington Ground: 348.600
Wilmington Tower: 119.900
Wilmington Tower: 239.300

KILM Gnd/Twr/App/ZDC
Wilmington, North Carolina, United States

Feed Status: DOWN
Offline since: 2020-05-30 14:26:39 UTC

KILM 040053Z 22010G18KT 10SM CLR 24/17 A2995 RMK AO2 SLP141 T02390172

KILM Airport Info (Airnav.com)

Emergency/Guard: 121.500
Washington Center (Sector 35 Wilmington High): 269.150
Washington Center (Sector 35 Wilmington High): 124.025
Wilmington Approach: 317.425
Wilmington Approach: 284.650
Wilmington Approach: 135.750
Wilmington Approach: 118.250
Wilmington Ground: 121.900
Wilmington Ground: 348.600
Wilmington Tower: 239.300
Wilmington Tower: 119.900

KINF CTAF (Archives)
Inverness, Florida, United States

Feed Status: UP
Listen in your browser - HTML5 player(in browser, HTML5)
Click here to listen with your own player(launches your MP3 player)

KINF 040055Z AUTO 00000KT 7SM -RA BKN046 OVC055 23/23 A3001 RMK AO2 P0004

KINF Airport Info (Airnav.com)

KINF Flight Activity (Flightaware)

Listeners: 0 out of 914 total

Inverness CTAF: 122.725

KINT Ground/Tower (Archives)
Winston Salem, North Carolina, United States

Feed Status: UP
Listen in your browser - HTML5 player(in browser, HTML5)
Click here to listen with your own player(launches your MP3 player)

KINT 040054Z VRB05KT 10SM CLR 28/21 A2991 RMK AO2 SLP115 T02830206

KINT Airport Info (Airnav.com)

KINT Flight Activity (Flightaware)

Listeners: 0 out of 914 total

Winston-Salem Ground: 128.250
Winston-Salem Tower: 123.750

KCID Gnd/Twr/App/KIOW (Archives)
Iowa City, Iowa, United States

Feed Status: UP
Listen in your browser - HTML5 player(in browser, HTML5)
Click here to listen with your own player(launches your MP3 player)

KCID 040052Z 02005KT 10SM CLR 27/21 A2975 RMK AO2 SLP068 T02720206

KCID Airport Info (Airnav.com)

KCID Flight Activity (Flightaware)

Listeners: 0 out of 914 total

Cedar Rapids Approach (091-269): 119.700
Cedar Rapids Approach (270-090): 134.050
Cedar Rapids Clearance Delivery: 125.450
Cedar Rapids Ground (0500-2330): 121.600
Cedar Rapids Tower (0500-2330): 118.700
UNICOM C17 (Marion) and surrounding area: 122.700
UNICOM IA24 Green Castle: 122.900
UNICOM KIOW (Iowa City) and surrounding area: 122.800

KIPJ CTAF/Del (Archives)
Lincolnton, North Carolina, United States

Feed Status: UP
Listen in your browser - HTML5 player(in browser, HTML5)
Click here to listen with your own player(launches your MP3 player)

KIPJ 040055Z AUTO 00000KT 10SM CLR 27/19 A2992 RMK AO2 T02670186

KIPJ Airport Info (Airnav.com)

KIPJ Flight Activity (Flightaware)

Listeners: 0 out of 914 total

Lincolnton Clearance Delivery: 124.900
Lincolnton CTAF: 123.050

KISM Del/Gnd (Archives)
Orlando, Florida, United States

Feed Status: UP
Listen in your browser - HTML5 player(in browser, HTML5)
Click here to listen with your own player(launches your MP3 player)

KJSM Airport Info (Airnav.com)

KJSM Flight Activity (Flightaware)

Listeners: 0 out of 914 total

Emergency/Guard: 121.500
Kissimmee Ground/Clearance Delivery: 121.700

KISM Del/Gnd/Twr (Archives)
Orlando, Florida, United States

Feed Status: UP
Listen in your browser - HTML5 player(in browser, HTML5)
Click here to listen with your own player(launches your MP3 player)

KJSM Airport Info (Airnav.com)

KJSM Flight Activity (Flightaware)

Listeners: 0 out of 914 total

Emergency/Guard: 121.500
Kissimmee Ground/Clearance Delivery: 121.700
Kissimmee Tower/CTAF: 124.450

KISM Tower (Archives)
Orlando, Florida, United States

Feed Status: UP
Listen in your browser - HTML5 player(in browser, HTML5)
Click here to listen with your own player(launches your MP3 player)

KJSM Airport Info (Airnav.com)

KJSM Flight Activity (Flightaware)

Listeners: 0 out of 914 total

Kissimmee Tower/CTAF: 124.450

KIWA ATIS (Archives)
Phoenix, Arizona, United States

Feed Status: UP
Listen in your browser - HTML5 player(in browser, HTML5)
Click here to listen with your own player(launches your MP3 player)

KIWA 040050Z 26008KT 10SM SKC 41/06 A2975

KIWA Airport Info (Airnav.com)

KIWA Flight Activity (Flightaware)

Listeners: 0 out of 914 total

Gateway ATIS: 133.500

KIWA Clearance Delivery (Archives)
Phoenix, Arizona, United States

Feed Status: UP
Listen in your browser - HTML5 player(in browser, HTML5)
Click here to listen with your own player(launches your MP3 player)

KIWA 040050Z 26008KT 10SM SKC 41/06 A2975

KIWA Airport Info (Airnav.com)

KIWA Flight Activity (Flightaware)

Listeners: 0 out of 914 total

Gateway Clearance Delivery: 135.050

KIWA Ground (Archives)
Phoenix, Arizona, United States

Feed Status: UP
Listen in your browser - HTML5 player(in browser, HTML5)
Click here to listen with your own player(launches your MP3 player)

KIWA 040050Z 26008KT 10SM SKC 41/06 A2975

KIWA Airport Info (Airnav.com)

KIWA Flight Activity (Flightaware)

Listeners: 0 out of 914 total

Gateway Ground: 128.250

KIWA Tower (Archives)
Phoenix, Arizona, United States

Feed Status: UP
Listen in your browser - HTML5 player(in browser, HTML5)
Click here to listen with your own player(launches your MP3 player)

KIWA 040050Z 26008KT 10SM SKC 41/06 A2975

KIWA Airport Info (Airnav.com)

KIWA Flight Activity (Flightaware)

Listeners: 2 out of 914 total

Gateway Tower (East): 124.750
Gateway Tower (West): 120.600

KIXD ASOS/ATIS (Archives)
Olathe, Kansas, United States

Feed Status: UP
Listen in your browser - HTML5 player(in browser, HTML5)
Click here to listen with your own player(launches your MP3 player)

KIXD 040053Z 20007KT 10SM FEW001 SCT055 31/21 A2978 RMK AO2 SLP071 T03110211

KIXD Airport Info (Airnav.com)

KIXD Flight Activity (Flightaware)

Listeners: 0 out of 914 total

New Century ATIS/ASOS: 135.325

KIXD Ground/Tower/K34 (Archives)
Olathe, Kansas, United States

Feed Status: UP
Listen in your browser - HTML5 player(in browser, HTML5)
Click here to listen with your own player(launches your MP3 player)

KIXD 040053Z 20007KT 10SM FEW001 SCT055 31/21 A2978 RMK AO2 SLP071 T03110211

KIXD Airport Info (Airnav.com)

KIXD Flight Activity (Flightaware)

Listeners: 0 out of 914 total

K34 CTAF: 122.800
New Century Ground: 124.300
New Century Tower: 133.000

KJCA CTAF (Archives)
Jefferson, Georgia, United States

Feed Status: UP
Listen in your browser - HTML5 player(in browser, HTML5)
Click here to listen with your own player(launches your MP3 player)

KJCA 040030Z AUTO 20006KT 10SM CLR 27/20 A2996 RMK AO2 T02670201

KJCA Airport Info (Airnav.com)

KJCA Flight Activity (Flightaware)

Listeners: 0 out of 914 total

Jefferson CTAF: 122.800

KJFX CTAF
Jasper, Alabama, United States

Feed Status: DOWN
Offline since: 2019-12-15 18:54:39 UTC

KJFX 040055Z AUTO 00000KT 10SM CLR 25/23 A2996 RMK AO2 PWINO

KJFX Airport Info (Airnav.com)

Walker County CTAF: 122.700

KJLN ATIS (Archives)
Joplin, Missouri, United States

Feed Status: UP
Listen in your browser - HTML5 player(in browser, HTML5)
Click here to listen with your own player(launches your MP3 player)

KJLN 040053Z 19010KT 10SM CLR 28/21 A2984 RMK AO2 SLP094 T02830211

KJLN Airport Info (Airnav.com)

KJLN Flight Activity (Flightaware)

Listeners: 0 out of 914 total

Joplin ATIS: 120.850

KJLN Ground (Archives)
Joplin, Missouri, United States

Feed Status: UP
Listen in your browser - HTML5 player(in browser, HTML5)
Click here to listen with your own player(launches your MP3 player)

KJLN 040053Z 19010KT 10SM CLR 28/21 A2984 RMK AO2 SLP094 T02830211

KJLN Airport Info (Airnav.com)

KJLN Flight Activity (Flightaware)

Listeners: 0 out of 914 total

Joplin Ground: 121.600

KJLN Ground/Tower (Archives)
Joplin, Missouri, United States

Feed Status: UP
Listen in your browser - HTML5 player(in browser, HTML5)
Click here to listen with your own player(launches your MP3 player)

KJLN 040053Z 19010KT 10SM CLR 28/21 A2984 RMK AO2 SLP094 T02830211

KJLN Airport Info (Airnav.com)

KJLN Flight Activity (Flightaware)

Listeners: 0 out of 914 total

Joplin Ground: 121.600
Joplin Tower: 119.800

KJLN Tower (Archives)
Joplin, Missouri, United States

Feed Status: UP
Listen in your browser - HTML5 player(in browser, HTML5)
Click here to listen with your own player(launches your MP3 player)

KJLN 040053Z 19010KT 10SM CLR 28/21 A2984 RMK AO2 SLP094 T02830211

KJLN Airport Info (Airnav.com)

KJLN Flight Activity (Flightaware)

Listeners: 0 out of 914 total

Joplin Tower: 119.800

KJNX AWOS (Archives)
Smithfield, North Carolina, United States

Feed Status: UP
Listen in your browser - HTML5 player(in browser, HTML5)
Click here to listen with your own player(launches your MP3 player)

KJNX 040055Z AUTO 21006KT 10SM CLR 28/21 A2988 RMK AO2

KJNX Airport Info (Airnav.com)

KJNX Flight Activity (Flightaware)

Listeners: 0 out of 914 total

Johnston AWOS: 120.225

KJNX CTAF (Archives)
Smithfield, North Carolina, United States

Feed Status: UP
Listen in your browser - HTML5 player(in browser, HTML5)
Click here to listen with your own player(launches your MP3 player)

KJNX 040055Z AUTO 21006KT 10SM CLR 28/21 A2988 RMK AO2

KJNX Airport Info (Airnav.com)

KJNX Flight Activity (Flightaware)

Listeners: 0 out of 914 total

Johnston CTAF: 122.725

KJQF Ground/Tower (Archives)
Concord, North Carolina, United States

Feed Status: UP
Listen in your browser - HTML5 player(in browser, HTML5)
Click here to listen with your own player(launches your MP3 player)

KJQF 032350Z 22008KT 10SM CLR 29/19 A2992

KJQF Airport Info (Airnav.com)

KJQF Flight Activity (Flightaware)

Listeners: 1 out of 914 total

Concord Ground: 121.850
Concord Tower: 134.650

KJWY/2TS6 CTAF/Unicom (Archives)
Midlothian/Waxahachie, Texas, United States

Feed Status: UP
Listen in your browser - HTML5 player(in browser, HTML5)
Click here to listen with your own player(launches your MP3 player)

KJWY 040055Z AUTO 16004KT 10SM CLR 31/19 A2988 RMK AO2 T03080190

KJWY Airport Info (Airnav.com)

KJWY Flight Activity (Flightaware)

Listeners: 0 out of 914 total

Mid-Way CTAF/UNICOM: 122.975

Regional Approach (South/RBD)
Midlothian/Waxahachie, Texas, United States

Feed Status: DOWN
Offline since: 2020-03-29 19:10:05 UTC

KRBD 040053Z 18007KT 10SM CLR 31/17 A2985 RMK AO2 SLP099 T03110172

KRBD Airport Info (Airnav.com)

Regional Approach (South): 125.200

KJYO CTAF/Del/SFRA (Archives)
Leesburg, Virginia, United States

Feed Status: UP
Listen in your browser - HTML5 player(in browser, HTML5)
Click here to listen with your own player(launches your MP3 player)

KIAD 040052Z 29003KT 10SM FEW070 BKN120 BKN200 29/16 A2973 RMK AO2 SLP064 T02890156 $

KIAD Airport Info (Airnav.com)

KIAD Flight Activity (Flightaware)

Listeners: 0 out of 914 total

Emergency/Guard: 121.500
Leesburg Clearance: 118.550
Leesburg CTAF: 122.975

KLAF App/Dep (Archives)
Lafayette, Indiana, United States

Feed Status: UP
Listen in your browser - HTML5 player(in browser, HTML5)
Click here to listen with your own player(launches your MP3 player)

KLAF 040054Z AUTO 00000KT 10SM BKN065 BKN110 27/17 A2981 RMK AO2 SLP088 T02720172

KLAF Airport Info (Airnav.com)

KLAF Flight Activity (Flightaware)

Listeners: 0 out of 914 total

Grissom Approach: 123.850

KLAF ATIS (Archives)
Lafayette, Indiana, United States

Feed Status: UP
Listen in your browser - HTML5 player(in browser, HTML5)
Click here to listen with your own player(launches your MP3 player)

KLAF 040054Z AUTO 00000KT 10SM BKN065 BKN110 27/17 A2981 RMK AO2 SLP088 T02720172

KLAF Airport Info (Airnav.com)

KLAF Flight Activity (Flightaware)

Listeners: 0 out of 914 total

Lafayette ATIS: 127.750

KLAF Ground (Archives)
Lafayette, Indiana, United States

Feed Status: UP
Listen in your browser - HTML5 player(in browser, HTML5)
Click here to listen with your own player(launches your MP3 player)

KLAF 040054Z AUTO 00000KT 10SM BKN065 BKN110 27/17 A2981 RMK AO2 SLP088 T02720172

KLAF Airport Info (Airnav.com)

KLAF Flight Activity (Flightaware)

Listeners: 0 out of 914 total

Lafayette Ground: 121.900

KLAF Tower (Archives)
Lafayette, Indiana, United States

Feed Status: UP
Listen in your browser - HTML5 player(in browser, HTML5)
Click here to listen with your own player(launches your MP3 player)

KLAF 040054Z AUTO 00000KT 10SM BKN065 BKN110 27/17 A2981 RMK AO2 SLP088 T02720172

KLAF Airport Info (Airnav.com)

KLAF Flight Activity (Flightaware)

Listeners: 0 out of 914 total

Lafayette Tower: 119.600

KLAL Approach/Departure (Archives)
Lakeland, Florida, United States

Feed Status: UP
Listen in your browser - HTML5 player(in browser, HTML5)
Click here to listen with your own player(launches your MP3 player)

KLAL 040050Z 00000KT 10SM -RA BKN009 OVC065 23/23 A3000

KLAL Airport Info (Airnav.com)

KLAL Flight Activity (Flightaware)

Listeners: 0 out of 914 total

Emergency/Guard: 121.500
Tampa Approach: 119.900
Tampa Approach (KLAL IFR Arrivals Cancelling): 120.650

KLAL ATIS (Archives)
Lakeland, Florida, United States

Feed Status: UP
Listen in your browser - HTML5 player(in browser, HTML5)
Click here to listen with your own player(launches your MP3 player)

KLAL 040050Z 00000KT 10SM -RA BKN009 OVC065 23/23 A3000

KLAL Airport Info (Airnav.com)

KLAL Flight Activity (Flightaware)

Listeners: 0 out of 914 total

Lakeland ATIS: 118.025

KLAL Ground/Advisory (Archives)
Lakeland, Florida, United States

Feed Status: UP
Listen in your browser - HTML5 player(in browser, HTML5)
Click here to listen with your own player(launches your MP3 player)

KLAL 040050Z 00000KT 10SM -RA BKN009 OVC065 23/23 A3000

KLAL Airport Info (Airnav.com)

KLAL Flight Activity (Flightaware)

Listeners: 0 out of 914 total

Lakeland Ground: 121.400
Lakeland Helicopter: 123.025
Lakeland IFR Ground Control: 127.100
Paradise City Advisory: 123.625
Sun 'n Fun Ground Advisory: 126.075
Warbird Parking Advisory: 125.025

KLAL Tower (Archives)
Lakeland, Florida, United States

Feed Status: UP
Listen in your browser - HTML5 player(in browser, HTML5)
Click here to listen with your own player(launches your MP3 player)

KLAL 040050Z 00000KT 10SM -RA BKN009 OVC065 23/23 A3000

KLAL Airport Info (Airnav.com)

KLAL Flight Activity (Flightaware)

Listeners: 0 out of 914 total

Lakeland Tower: 124.500

KLBX CTAF (Archives)
Angleton/Lake Jackson, Texas, United States

Feed Status: UP
Listen in your browser - HTML5 player(in browser, HTML5)
Click here to listen with your own player(launches your MP3 player)

KLBX 040053Z AUTO 11004KT 10SM CLR 27/23 A2992 RMK AO2 SLP130 T02720228

KLBX Airport Info (Airnav.com)

KLBX Flight Activity (Flightaware)

Listeners: 0 out of 914 total

KLBX CTAF: 123.000

KLCI AWOS (Archives)
Laconia, New Hampshire, United States

Feed Status: UP
Listen in your browser - HTML5 player(in browser, HTML5)
Click here to listen with your own player(launches your MP3 player)

KLCI 040056Z AUTO 29004KT 8SM SCT090 18/14 A2960 RMK AO2 SLP022 T01780144

KLCI Airport Info (Airnav.com)

KLCI Flight Activity (Flightaware)

Listeners: 0 out of 914 total

Laconia AWOS: 133.525

KLCI Del/CTAF (Archives)
Laconia, New Hampshire, United States

Feed Status: UP
Listen in your browser - HTML5 player(in browser, HTML5)
Click here to listen with your own player(launches your MP3 player)

KLCI 040056Z AUTO 29004KT 8SM SCT090 18/14 A2960 RMK AO2 SLP022 T01780144

KLCI Airport Info (Airnav.com)

KLCI Flight Activity (Flightaware)

Listeners: 0 out of 914 total

Laconia Clearance Delivery (Boston Approach): 119.850
Laconia CTAF: 123.000

KLEE App/Dep (Archives)
Leesburg, Florida, United States

Feed Status: UP
Listen in your browser - HTML5 player(in browser, HTML5)
Click here to listen with your own player(launches your MP3 player)

KLEE 040053Z AUTO 12004KT 10SM OVC030 26/22 A3001 RMK AO2 RAE2357B32E42 SLP162 P0000 T02560222

KLEE Airport Info (Airnav.com)

KLEE Flight Activity (Flightaware)

Listeners: 0 out of 914 total

Orlando Approach: 135.300
Orlando Approach: 120.225

KLEE ASOS (Archives)
Leesburg, Florida, United States

Feed Status: UP
Listen in your browser - HTML5 player(in browser, HTML5)
Click here to listen with your own player(launches your MP3 player)

KLEE 040053Z AUTO 12004KT 10SM OVC030 26/22 A3001 RMK AO2 RAE2357B32E42 SLP162 P0000 T02560222

KLEE Airport Info (Airnav.com)

KLEE Flight Activity (Flightaware)

Listeners: 0 out of 914 total

Leesburg ASOS: 134.325

KLEE Ground (Archives)
Leesburg, Florida, United States

Feed Status: UP
Listen in your browser - HTML5 player(in browser, HTML5)
Click here to listen with your own player(launches your MP3 player)

KLEE 040053Z AUTO 12004KT 10SM OVC030 26/22 A3001 RMK AO2 RAE2357B32E42 SLP162 P0000 T02560222

KLEE Airport Info (Airnav.com)

KLEE Flight Activity (Flightaware)

Listeners: 0 out of 914 total

Leesburg Ground: 121.725

KLEE Tower (Archives)
Leesburg, Florida, United States

Feed Status: UP
Listen in your browser - HTML5 player(in browser, HTML5)
Click here to listen with your own player(launches your MP3 player)

KLEE 040053Z AUTO 12004KT 10SM OVC030 26/22 A3001 RMK AO2 RAE2357B32E42 SLP162 P0000 T02560222

KLEE Airport Info (Airnav.com)

KLEE Flight Activity (Flightaware)

Listeners: 0 out of 914 total

Leesburg Tower: 119.350

KLFI Del/Gnd/Twr (Archives)
Hampton, Virginia, United States

Feed Status: UP
Listen in your browser - HTML5 player(in browser, HTML5)
Click here to listen with your own player(launches your MP3 player)

KLFI 032356Z AUTO 22012KT 10SM FEW150 SCT180 30/21 A2978 RMK AO2 SLP091 T03000211 10331 20300 52010 $

KLFI Airport Info (Airnav.com)

KLFI Flight Activity (Flightaware)

Listeners: 0 out of 914 total

Langley Clearance Delivery: 257.625
Langley Ground: 275.800
Langley Tower: 253.500
Langley Tower: 236.600

KLGB Clearance Delivery (Archives)
Long Beach, California, United States

Feed Status: UP
Listen in your browser - HTML5 player(in browser, HTML5)
Click here to listen with your own player(launches your MP3 player)

KLGB 040053Z 32004KT 10SM CLR 27/12 A2979 RMK AO2 SLP088 T02720117

KLGB Airport Info (Airnav.com)

KLGB Flight Activity (Flightaware)

Listeners: 0 out of 914 total

Long Beach Clearance Delivery: 118.150

KLGB Ground (Archives)
Long Beach, California, United States

Feed Status: UP
Listen in your browser - HTML5 player(in browser, HTML5)
Click here to listen with your own player(launches your MP3 player)

KLGB 040053Z 32004KT 10SM CLR 27/12 A2979 RMK AO2 SLP088 T02720117

KLGB Airport Info (Airnav.com)

KLGB Flight Activity (Flightaware)

Listeners: 0 out of 914 total

Long Beach Ground: 133.000

KLGB Tower (Archives)
Long Beach, California, United States

Feed Status: UP
Listen in your browser - HTML5 player(in browser, HTML5)
Click here to listen with your own player(launches your MP3 player)

KLGB 040053Z 32004KT 10SM CLR 27/12 A2979 RMK AO2 SLP088 T02720117

KLGB Airport Info (Airnav.com)

KLGB Flight Activity (Flightaware)

Listeners: 1 out of 914 total

Long Beach Tower: 119.400

KCTJ/KLGC CTAF (Archives)
LaGrange, Georgia, United States

Feed Status: UP
Listen in your browser - HTML5 player(in browser, HTML5)
Click here to listen with your own player(launches your MP3 player)

KCCO 040055Z AUTO 00000KT 10SM CLR 27/22 A2998 RMK AO2 T02680221

KCCO Airport Info (Airnav.com)

KCCO Flight Activity (Flightaware)

Listeners: 0 out of 914 total

KCTJ/KLGC CTAF: 122.975

KLGC CTAF (Air Race Classic)
LaGrange, Georgia, United States

Feed Status: DOWN
Offline since: 2020-04-29 17:54:05 UTC

LaGrange CTAF: 122.975

KLHZ CTAF (Archives)
Louisburg, North Carolina, United States

Feed Status: UP
Listen in your browser - HTML5 player(in browser, HTML5)
Click here to listen with your own player(launches your MP3 player)

KLHZ 040055Z AUTO 23006KT 10SM CLR 28/20 A2990 RMK AO2

KLHZ Airport Info (Airnav.com)

KLHZ Flight Activity (Flightaware)

Listeners: 0 out of 914 total

Louisburg CTAF/UNICOM: 123.000
Louisburg GCO: 135.075
Raleigh Approach (East): 125.300

KFTG/KEIK/KBDU/KLMO/Misc (Archives)
Longmont, Colorado, United States

Feed Status: UP
Listen in your browser - HTML5 player(in browser, HTML5)
Click here to listen with your own player(launches your MP3 player)

KDEN 040053Z 06010KT 10SM FEW100 BKN130 BKN220 26/05 A3005 RMK AO2 LTG DSNT W SLP097 VIRGA T02560050

KDEN Airport Info (Airnav.com)

KDEN Flight Activity (Flightaware)

Listeners: 1 out of 914 total

Air-to-Air Fixed Wing: 122.750
Air-to-Air Informal: 123.450
Boulder CTAF: 122.725
Erie CTAF: 123.000
Front Range Tower: 120.200
KBKF Tower: 121.000
Longmont CTAF: 122.975
MULTICOM: 122.900
UNICOM: 122.950

KLMO CTAF (Archives)
Longmont, Colorado, United States

Feed Status: UP
Listen in your browser - HTML5 player(in browser, HTML5)
Click here to listen with your own player(launches your MP3 player)

KLMO 040055Z AUTO 30010KT 10SM CLR 26/03 A3003 RMK AO2 T02640030

KLMO Airport Info (Airnav.com)

KLMO Flight Activity (Flightaware)

Listeners: 0 out of 914 total

Fort Collins CTAF: 122.700
Longmont CTAF: 122.975

KLNS Ground/Tower (Archives)
Lancaster, Pennsylvania, United States

Feed Status: UP
Listen in your browser - HTML5 player(in browser, HTML5)
Click here to listen with your own player(launches your MP3 player)

KLNS 040053Z 25003KT 10SM SCT075 23/19 A2970 RMK AO2 LTG DSNT S AND SW RAE07 SLP055 P0001 T02280194

KLNS Airport Info (Airnav.com)

KLNS Flight Activity (Flightaware)

Listeners: 1 out of 914 total

Lancaster Ground: 121.800
Lancaster Tower: 120.900

KLNS Tower (Archives)
Lancaster, Pennsylvania, United States

Feed Status: UP
Listen in your browser - HTML5 player(in browser, HTML5)
Click here to listen with your own player(launches your MP3 player)

KLNS 040053Z 25003KT 10SM SCT075 23/19 A2970 RMK AO2 LTG DSNT S AND SW RAE07 SLP055 P0001 T02280194

KLNS Airport Info (Airnav.com)

KLNS Flight Activity (Flightaware)

Listeners: 0 out of 914 total

Lancaster Tower: 120.900

KLOU ATIS (Archives)
Louisville, Kentucky, United States

Feed Status: UP
Listen in your browser - HTML5 player(in browser, HTML5)
Click here to listen with your own player(launches your MP3 player)

KLOU 040053Z 22008KT 10SM CLR 28/17 A2985 RMK AO2 SLP103 T02780172 $

KLOU Airport Info (Airnav.com)

KLOU Flight Activity (Flightaware)

Listeners: 0 out of 914 total

Bowman ATIS: 120.025

KLOU Del/Gnd (Archives)
Louisville, Kentucky, United States

Feed Status: UP
Listen in your browser - HTML5 player(in browser, HTML5)
Click here to listen with your own player(launches your MP3 player)

KLOU 040053Z 22008KT 10SM CLR 28/17 A2985 RMK AO2 SLP103 T02780172 $

KLOU Airport Info (Airnav.com)

KLOU Flight Activity (Flightaware)

Listeners: 0 out of 914 total

Bowman Clearance Delivery: 118.900
Bowman Ground: 121.800

KLOU Del/Gnd/Twr (Archives)
Louisville, Kentucky, United States

Feed Status: UP
Listen in your browser - HTML5 player(in browser, HTML5)
Click here to listen with your own player(launches your MP3 player)

KLOU 040053Z 22008KT 10SM CLR 28/17 A2985 RMK AO2 SLP103 T02780172 $

KLOU Airport Info (Airnav.com)

KLOU Flight Activity (Flightaware)

Listeners: 2 out of 914 total

Bowman Clearance Delivery: 118.900
Bowman Ground: 121.800
Bowman Tower: 119.500

KLOU Tower (Archives)
Louisville, Kentucky, United States

Feed Status: UP
Listen in your browser - HTML5 player(in browser, HTML5)
Click here to listen with your own player(launches your MP3 player)

KLOU 040053Z 22008KT 10SM CLR 28/17 A2985 RMK AO2 SLP103 T02780172 $

KLOU Airport Info (Airnav.com)

KLOU Flight Activity (Flightaware)

Listeners: 1 out of 914 total

Bowman Tower: 119.500

KLRD Ground/Tower (Archives)
Laredo, Texas, United States

Feed Status: UP
Listen in your browser - HTML5 player(in browser, HTML5)
Click here to listen with your own player(launches your MP3 player)

KLRD 040056Z 12014G19KT 10SM FEW046 31/23 A2985 RMK AO2 SLP103 T03110228

KLRD Airport Info (Airnav.com)

KLRD Flight Activity (Flightaware)

Listeners: 2 out of 914 total

Laredo Ground: 121.800
Laredo Tower: 120.100
Laredo UNICOM: 122.950

KLUK Twr/App/Dep
Cincinnati, Ohio, United States

Feed Status: DOWN
Offline since: 2020-05-30 20:15:22 UTC

KLUK 040053Z 19006KT 10SM FEW065 26/19 A2982 RMK AO2 LTG DSNT N AND NE SLP094 T02610194

KLUK Airport Info (Airnav.com)

Cincinnati Approach: 121.000
Cincinnati Departure: 128.700
Lunken Tower: 118.700

KLWM Ground/Tower (Archives)
Lawrence, Massachusetts, United States

Feed Status: UP
Listen in your browser - HTML5 player(in browser, HTML5)
Click here to listen with your own player(launches your MP3 player)

KLWM 040054Z 29006KT 10SM FEW070 SCT080 23/16 A2960 RMK AO2 SLP021 T02280156

KLWM Airport Info (Airnav.com)

KLWM Flight Activity (Flightaware)

Listeners: 0 out of 914 total

Eagle East Jet Service: 122.850
Emergency/Guard: 121.500
Four Star Aviation Jet Center: 123.300
Lawrence Clearance (after hours, Boston Approach): 126.150
Lawrence Ground: 124.300
Lawrence Tower: 119.250
Northeast Executive Jet: 130.600

KLXT CTAF (Air Race Classic)
Lee's Summit, Missouri, United States

Feed Status: DOWN
Offline since: 2019-06-27 20:24:02 UTC

Lee's Summit CTAF: 122.800

KLXT/3GV CTAF (Archives)
Lee's Summit, Missouri, United States

Feed Status: UP
Listen in your browser - HTML5 player(in browser, HTML5)
Click here to listen with your own player(launches your MP3 player)

KOJC 040053Z 19005KT 10SM FEW060 29/22 A2978 RMK AO2 SLP071 T02940222

KOJC Airport Info (Airnav.com)

KOJC Flight Activity (Flightaware)

Listeners: 0 out of 914 total

Lee's Summit/Grain Valley CTAF: 122.800

KLXT/KMKC Area Helicopters (Archives)
Lee's Summit, Missouri, United States

Feed Status: UP
Listen in your browser - HTML5 player(in browser, HTML5)
Click here to listen with your own player(launches your MP3 player)

KOJC 040053Z 19005KT 10SM FEW060 29/22 A2978 RMK AO2 SLP071 T02940222

KOJC Airport Info (Airnav.com)

KOJC Flight Activity (Flightaware)

Listeners: 0 out of 914 total

Helicopter Air to Air: 123.025

KLXV CTAF
Leadville, Colorado, United States

Feed Status: DOWN
Offline since: 2020-02-11 19:07:39 UTC

KLXV 040053Z AUTO 31007KT 10SM CLR 16/M01 A3040 RMK AO2 SLP133 T01561011

KLXV Airport Info (Airnav.com)

Leadville CTAF: 122.800

KLYH Ground (Archives)
Lynchburg, Virginia, United States

Feed Status: UP
Listen in your browser - HTML5 player(in browser, HTML5)
Click here to listen with your own player(launches your MP3 player)

KLYH 040054Z 00000KT 10SM CLR 28/15 A2985 RMK AO2 SLP095 T02780150

KLYH Airport Info (Airnav.com)

KLYH Flight Activity (Flightaware)

Listeners: 0 out of 914 total

Lynchburg Ground: 121.900

KLYH Tower (Archives)
Lynchburg, Virginia, United States

Feed Status: UP
Listen in your browser - HTML5 player(in browser, HTML5)
Click here to listen with your own player(launches your MP3 player)

KLYH 040054Z 00000KT 10SM CLR 28/15 A2985 RMK AO2 SLP095 T02780150

KLYH Airport Info (Airnav.com)

KLYH Flight Activity (Flightaware)

Listeners: 0 out of 914 total

Lynchburg Tower: 127.650

KMAN/KEUL CTAF (Archives)
Nampa, Idaho, United States

Feed Status: UP
Listen in your browser - HTML5 player(in browser, HTML5)
Click here to listen with your own player(launches your MP3 player)

KMAN 040055Z AUTO 01008KT 10SM CLR 29/04 A2988 RMK A01

KMAN Airport Info (Airnav.com)

KMAN Flight Activity (Flightaware)

Listeners: 0 out of 914 total

Nampa/Caldwell CTAF/UNICOM: 122.700

KMCC CTAF/Del/Gnd/Twr (Archives)
Sacramento, California, United States

Feed Status: UP
Listen in your browser - HTML5 player(in browser, HTML5)
Click here to listen with your own player(launches your MP3 player)

KMCC 040055Z AUTO 23005KT 10SM CLR 38/07 A2982 RMK AO2

KMCC Airport Info (Airnav.com)

KMCC Flight Activity (Flightaware)

Listeners: 1 out of 914 total

McClellan Clearance Delivery: 119.825
McClellan CTAF: 122.975
McClellan Ground (temp): 118.650
McClellan Tower (temp): 119.300

KMCO App (Disney/OVIDO Sectors) #1
Orlando, Florida, United States

Feed Status: DOWN
Offline since: 2020-05-21 12:29:40 UTC

KMCO 040053Z 12004KT 10SM -RA FEW035 FEW070 OVC140 24/23 A3000 RMK AO2 SLP157 P0000 T02440228 $

KMCO Airport Info (Airnav.com)

Orlando Approach (Disney Satellite Sector): 119.400
Orlando Approach (OVIDO Satellite Sector): 119.775

KMCO App (North Satellite) (Archives)
Orlando, Florida, United States

Feed Status: UP
Listen in your browser - HTML5 player(in browser, HTML5)
Click here to listen with your own player(launches your MP3 player)

KORL 040053Z AUTO 13003KT 10SM SCT017 BKN120 24/22 A3000 RMK AO2 SLP162 T02440222

KORL Airport Info (Airnav.com)

KORL Flight Activity (Flightaware)

Listeners: 0 out of 914 total

Orlando Approach (North Satellite): 121.100
Orlando Approach (North Satellite): 135.300

KMDD ASOS (Archives)
Midland, Texas, United States

Feed Status: UP
Listen in your browser - HTML5 player(in browser, HTML5)
Click here to listen with your own player(launches your MP3 player)

KMAF 040053Z 14008KT 9SM CLR 33/12 A2991 RMK AO2 SLP078 T03280122

KMAF Airport Info (Airnav.com)

KMAF Flight Activity (Flightaware)

Listeners: 0 out of 914 total

Midland Airpark ASOS: 118.125

KMDD Clearance Delivery (Archives)
Midland, Texas, United States

Feed Status: UP
Listen in your browser - HTML5 player(in browser, HTML5)
Click here to listen with your own player(launches your MP3 player)

KMAF 040053Z 14008KT 9SM CLR 33/12 A2991 RMK AO2 SLP078 T03280122

KMAF Airport Info (Airnav.com)

KMAF Flight Activity (Flightaware)

Listeners: 0 out of 914 total

Midland Airpark Clearance Delivery: 121.800

KMDD CTAF (Archives)
Midland, Texas, United States

Feed Status: UP
Listen in your browser - HTML5 player(in browser, HTML5)
Click here to listen with your own player(launches your MP3 player)

KMAF 040053Z 14008KT 9SM CLR 33/12 A2991 RMK AO2 SLP078 T03280122

KMAF Airport Info (Airnav.com)

KMAF Flight Activity (Flightaware)

Listeners: 0 out of 914 total

Midland Airpark CTAF: 122.700

KMDH Ground/Tower (Archives)
Carbondale/Murphysboro, Illinois, United States

Feed Status: UP
Listen in your browser - HTML5 player(in browser, HTML5)
Click here to listen with your own player(launches your MP3 player)

KMDH 040052Z 22005KT 10SM CLR 27/22 A2982 RMK AO2 SLP093 T02720217

KMDH Airport Info (Airnav.com)

KMDH Flight Activity (Flightaware)

Listeners: 0 out of 914 total

Carbondale Ground: 121.800
Carbondale Tower: 126.250
Carbondale Tower: 125.350

KMDQ CTAF
Huntsville, Alabama, United States

Feed Status: DOWN
Offline since: 2020-04-06 12:25:06 UTC

Huntsville Executive CTAF: 123.000

KMDT App/Dep (East) (Archives)
Harrisburg, Pennsylvania, United States

Feed Status: UP
Listen in your browser - HTML5 player(in browser, HTML5)
Click here to listen with your own player(launches your MP3 player)

KMDT 040056Z 00000KT 5SM -RA SCT047 SCT070 BKN110 22/19 A2970 RMK AO2 RAE13B40 SLP056 P0003 T02220194

KMDT Airport Info (Airnav.com)

KMDT Flight Activity (Flightaware)

Listeners: 0 out of 914 total

Harrisburg App/Dep (East): 126.450

KMDT App/Dep (East/West) (Archives)
Harrisburg, Pennsylvania, United States

Feed Status: UP
Listen in your browser - HTML5 player(in browser, HTML5)
Click here to listen with your own player(launches your MP3 player)

KMDT 040056Z 00000KT 5SM -RA SCT047 SCT070 BKN110 22/19 A2970 RMK AO2 RAE13B40 SLP056 P0003 T02220194

KMDT Airport Info (Airnav.com)

KMDT Flight Activity (Flightaware)

Listeners: 0 out of 914 total

Harrisburg App/Dep (East): 126.450
Harrisburg App/Dep (North): 118.250
Harrisburg App/Dep (West): 124.100

KMDT App/Dep (North) (Archives)
Harrisburg, Pennsylvania, United States

Feed Status: UP
Listen in your browser - HTML5 player(in browser, HTML5)
Click here to listen with your own player(launches your MP3 player)

KMDT 040056Z 00000KT 5SM -RA SCT047 SCT070 BKN110 22/19 A2970 RMK AO2 RAE13B40 SLP056 P0003 T02220194

KMDT Airport Info (Airnav.com)

KMDT Flight Activity (Flightaware)

Listeners: 0 out of 914 total

Harrisburg App/Dep (North): 118.250

KMDT App/Dep (West) (Archives)
Harrisburg, Pennsylvania, United States

Feed Status: UP
Listen in your browser - HTML5 player(in browser, HTML5)
Click here to listen with your own player(launches your MP3 player)

KMDT 040056Z 00000KT 5SM -RA SCT047 SCT070 BKN110 22/19 A2970 RMK AO2 RAE13B40 SLP056 P0003 T02220194

KMDT Airport Info (Airnav.com)

KMDT Flight Activity (Flightaware)

Listeners: 0 out of 914 total

Harrisburg App/Dep (West): 124.100

KMDT ATIS (Archives)
Harrisburg, Pennsylvania, United States

Feed Status: UP
Listen in your browser - HTML5 player(in browser, HTML5)
Click here to listen with your own player(launches your MP3 player)

KMDT 040056Z 00000KT 5SM -RA SCT047 SCT070 BKN110 22/19 A2970 RMK AO2 RAE13B40 SLP056 P0003 T02220194

KMDT Airport Info (Airnav.com)

KMDT Flight Activity (Flightaware)

Listeners: 0 out of 914 total

Harrisburg ATIS: 118.800

KMDT Emergency/Ground (Archives)
Harrisburg, Pennsylvania, United States

Feed Status: UP
Listen in your browser - HTML5 player(in browser, HTML5)
Click here to listen with your own player(launches your MP3 player)

KMDT 040056Z 00000KT 5SM -RA SCT047 SCT070 BKN110 22/19 A2970 RMK AO2 RAE13B40 SLP056 P0003 T02220194

KMDT Airport Info (Airnav.com)

KMDT Flight Activity (Flightaware)

Listeners: 0 out of 914 total

Emergency/Guard: 121.500

KMDT Ground (Archives)
Harrisburg, Pennsylvania, United States

Feed Status: UP
Listen in your browser - HTML5 player(in browser, HTML5)
Click here to listen with your own player(launches your MP3 player)

KMDT 040056Z 00000KT 5SM -RA SCT047 SCT070 BKN110 22/19 A2970 RMK AO2 RAE13B40 SLP056 P0003 T02220194

KMDT Airport Info (Airnav.com)

KMDT Flight Activity (Flightaware)

Listeners: 0 out of 914 total

Harrisburg Ground: 121.700

KMDT Tower (Archives)
Harrisburg, Pennsylvania, United States

Feed Status: UP
Listen in your browser - HTML5 player(in browser, HTML5)
Click here to listen with your own player(launches your MP3 player)

KMDT 040056Z 00000KT 5SM -RA SCT047 SCT070 BKN110 22/19 A2970 RMK AO2 RAE13B40 SLP056 P0003 T02220194

KMDT Airport Info (Airnav.com)

KMDT Flight Activity (Flightaware)

Listeners: 1 out of 914 total

Harrisburg Tower: 124.800

KMEV CTAF/Unicom (Archives)
Minden, Nevada, United States

Feed Status: UP
Listen in your browser - HTML5 player(in browser, HTML5)
Click here to listen with your own player(launches your MP3 player)

KMEV 040055Z AUTO 27015G21KT 10SM CLR 30/02 A3010 RMK AO2

KMEV Airport Info (Airnav.com)

KMEV Flight Activity (Flightaware)

Listeners: 1 out of 914 total

Minden CTAF/UNICOM: 123.050

KMFD ATIS (Archives)
Mansfield, Ohio, United States

Feed Status: UP
Listen in your browser - HTML5 player(in browser, HTML5)
Click here to listen with your own player(launches your MP3 player)

KMFD 040052Z AUTO 26004KT 10SM BKN110 25/15 A2983 RMK AO2 SLP090 T02500150

KMFD Airport Info (Airnav.com)

KMFD Flight Activity (Flightaware)

Listeners: 0 out of 914 total

Mansfield ATIS: 125.300

KMFE App/Dep (Archives)
Mc Allen, Texas, United States

Feed Status: UP
Listen in your browser - HTML5 player(in browser, HTML5)
Click here to listen with your own player(launches your MP3 player)

KMFE 040053Z 11009KT 10SM CLR 31/22 A2986 RMK AO2 SLP109 T03060217

KMFE Airport Info (Airnav.com)

KMFE Flight Activity (Flightaware)

Listeners: 0 out of 914 total

Valley Approach: 121.000
Valley Departure: 120.700

KMFE Gnd/Twr (Archives)
Mc Allen, Texas, United States

Feed Status: UP
Listen in your browser - HTML5 player(in browser, HTML5)
Click here to listen with your own player(launches your MP3 player)

KMFE 040053Z 11009KT 10SM CLR 31/22 A2986 RMK AO2 SLP109 T03060217

KMFE Airport Info (Airnav.com)

KMFE Flight Activity (Flightaware)

Listeners: 0 out of 914 total

Mc Allen Ground: 121.800
Mc Allen Tower: 118.500
San Angelo Radio: 122.200

KMFR App/Dep (Archives)
Medford, Oregon, United States

Feed Status: UP
Listen in your browser - HTML5 player(in browser, HTML5)
Click here to listen with your own player(launches your MP3 player)

KMFR 040053Z 31008G14KT 10SM CLR 30/08 A2996 RMK AO2 SLP136 T03000083

KMFR Airport Info (Airnav.com)

KMFR Flight Activity (Flightaware)

Listeners: 0 out of 914 total

Cascade Approach/Departure: 124.300

KMFR Emergency/Guard (Archives)
Medford, Oregon, United States

Feed Status: UP
Listen in your browser - HTML5 player(in browser, HTML5)
Click here to listen with your own player(launches your MP3 player)

KMFR 040053Z 31008G14KT 10SM CLR 30/08 A2996 RMK AO2 SLP136 T03000083

KMFR Airport Info (Airnav.com)

KMFR Flight Activity (Flightaware)

Listeners: 0 out of 914 total

Emergency/Guard: 121.500

KMFR Ground (Archives)
Medford, Oregon, United States

Feed Status: UP
Listen in your browser - HTML5 player(in browser, HTML5)
Click here to listen with your own player(launches your MP3 player)

KMFR 040053Z 31008G14KT 10SM CLR 30/08 A2996 RMK AO2 SLP136 T03000083

KMFR Airport Info (Airnav.com)

KMFR Flight Activity (Flightaware)

Listeners: 0 out of 914 total

Medford Ground: 121.800

KMFR Ground/Tower (Archives)
Medford, Oregon, United States

Feed Status: UP
Listen in your browser - HTML5 player(in browser, HTML5)
Click here to listen with your own player(launches your MP3 player)

KMFR 040053Z 31008G14KT 10SM CLR 30/08 A2996 RMK AO2 SLP136 T03000083

KMFR Airport Info (Airnav.com)

KMFR Flight Activity (Flightaware)

Listeners: 1 out of 914 total

Medford Ground: 121.800
Medford Tower: 119.400

Atlanta Approach (N. Sat) (Archives)
Marietta, Georgia, United States

Feed Status: UP
Listen in your browser - HTML5 player(in browser, HTML5)
Click here to listen with your own player(launches your MP3 player)

KRYY 040050Z 23004KT 10SM CLR 26/21 A2997 RMK AO2 SLP869 T02610211 PNO $

KRYY Airport Info (Airnav.com)

KRYY Flight Activity (Flightaware)

Listeners: 3 out of 914 total

Atlanta Approach (North Satellite): 121.000

KMGE Ground (Archives)
Marietta, Georgia, United States

Feed Status: UP
Listen in your browser - HTML5 player(in browser, HTML5)
Click here to listen with your own player(launches your MP3 player)

KRYY 040050Z 23004KT 10SM CLR 26/21 A2997 RMK AO2 SLP869 T02610211 PNO $

KRYY Airport Info (Airnav.com)

KRYY Flight Activity (Flightaware)

Listeners: 0 out of 914 total

Dobbins Ground: 125.300

KMGE Tower (Archives)
Marietta, Georgia, United States

Feed Status: UP
Listen in your browser - HTML5 player(in browser, HTML5)
Click here to listen with your own player(launches your MP3 player)

KRYY 040050Z 23004KT 10SM CLR 26/21 A2997 RMK AO2 SLP869 T02610211 PNO $

KRYY Airport Info (Airnav.com)

KRYY Flight Activity (Flightaware)

Listeners: 0 out of 914 total

Dobbins Tower: 120.750

KMGW Ground/Tower (Archives)
Morgantown, West Virginia, United States

Feed Status: UP
Listen in your browser - HTML5 player(in browser, HTML5)
Click here to listen with your own player(launches your MP3 player)

KMGW 040053Z 21006KT 10SM CLR 21/17 A2985 RMK AO2 SLP100 T02110167

KMGW Airport Info (Airnav.com)

KMGW Flight Activity (Flightaware)

Listeners: 0 out of 914 total

Morgantown Ground: 121.700
Morgantown Tower: 125.100

KMGY Air to Air (Archives)
Dayton, Ohio, United States

Feed Status: UP
Listen in your browser - HTML5 player(in browser, HTML5)
Click here to listen with your own player(launches your MP3 player)

KMGY 040053Z AUTO 19005KT 10SM VCTS FEW060 23/17 A2984 RMK AO2 LTG DSNT E AND SE AND W TSB27E42 SLP097 T02280172

KMGY Airport Info (Airnav.com)

KMGY Flight Activity (Flightaware)

Listeners: 0 out of 914 total

Air to Air: 123.450

KMGY App/Dep (Archives)
Dayton, Ohio, United States

Feed Status: UP
Listen in your browser - HTML5 player(in browser, HTML5)
Click here to listen with your own player(launches your MP3 player)

KMGY 040053Z AUTO 19005KT 10SM VCTS FEW060 23/17 A2984 RMK AO2 LTG DSNT E AND SE AND W TSB27E42 SLP097 T02280172

KMGY Airport Info (Airnav.com)

KMGY Flight Activity (Flightaware)

Listeners: 0 out of 914 total

Dayton Approach/Departure: 118.850

KMGY AWOS (Archives)
Dayton, Ohio, United States

Feed Status: UP
Listen in your browser - HTML5 player(in browser, HTML5)
Click here to listen with your own player(launches your MP3 player)

KMGY 040053Z AUTO 19005KT 10SM VCTS FEW060 23/17 A2984 RMK AO2 LTG DSNT E AND SE AND W TSB27E42 SLP097 T02280172

KMGY Airport Info (Airnav.com)

KMGY Flight Activity (Flightaware)

Listeners: 0 out of 914 total

Dayton-Wright Brothers AWOS: 118.375

KMGY Clearance Delivery (Archives)
Dayton, Ohio, United States

Feed Status: UP
Listen in your browser - HTML5 player(in browser, HTML5)
Click here to listen with your own player(launches your MP3 player)

KMGY 040053Z AUTO 19005KT 10SM VCTS FEW060 23/17 A2984 RMK AO2 LTG DSNT E AND SE AND W TSB27E42 SLP097 T02280172

KMGY Airport Info (Airnav.com)

KMGY Flight Activity (Flightaware)

Listeners: 0 out of 914 total

Dayton Clearance Delivery (KMGY): 119.400

KMGY CTAF (Archives)
Dayton, Ohio, United States

Feed Status: UP
Listen in your browser - HTML5 player(in browser, HTML5)
Click here to listen with your own player(launches your MP3 player)

KMGY 040053Z AUTO 19005KT 10SM VCTS FEW060 23/17 A2984 RMK AO2 LTG DSNT E AND SE AND W TSB27E42 SLP097 T02280172

KMGY Airport Info (Airnav.com)

KMGY Flight Activity (Flightaware)

Listeners: 0 out of 914 total

Dayton-Wright Brothers CTAF: 122.800

KMGY Emergency/Guard (Archives)
Dayton, Ohio, United States

Feed Status: UP
Listen in your browser - HTML5 player(in browser, HTML5)
Click here to listen with your own player(launches your MP3 player)

KMGY 040053Z AUTO 19005KT 10SM VCTS FEW060 23/17 A2984 RMK AO2 LTG DSNT E AND SE AND W TSB27E42 SLP097 T02280172

KMGY Airport Info (Airnav.com)

KMGY Flight Activity (Flightaware)

Listeners: 0 out of 914 total

Emergency/Guard: 121.500

KMHR Ground/Tower (Archives)
Sacramento, California, United States

Feed Status: UP
Listen in your browser - HTML5 player(in browser, HTML5)
Click here to listen with your own player(launches your MP3 player)

KMHR 040050Z 29005KT 10SM SKC 38/08 A2981

KMHR Airport Info (Airnav.com)

KMHR Flight Activity (Flightaware)

Listeners: 1 out of 914 total

Mather Ground: 121.850
Mather Tower: 120.650

NORCAL App (EXPO/127.4) (Archives)
Sacramento, California, United States

Feed Status: UP
Listen in your browser - HTML5 player(in browser, HTML5)
Click here to listen with your own player(launches your MP3 player)

KMHR 040050Z 29005KT 10SM SKC 38/08 A2981

KMHR Airport Info (Airnav.com)

KMHR Flight Activity (Flightaware)

Listeners: 2 out of 914 total

NORCAL Approach (EXPO Sector): 127.400

KMIC Tower/CTAF (Archives)
Minneapolis, Minnesota, United States

Feed Status: UP
Listen in your browser - HTML5 player(in browser, HTML5)
Click here to listen with your own player(launches your MP3 player)

KMIC 040053Z AUTO 34005KT 10SM CLR 26/08 A2977 RMK AO2 SLP076 T02560083

KMIC Airport Info (Airnav.com)

KMIC Flight Activity (Flightaware)

Listeners: 0 out of 914 total

Crystal Tower/CTAF: 120.700

KBLM/N12/3N6/KMJX (Archives)
Toms River, New Jersey, United States

Feed Status: UP
Listen in your browser - HTML5 player(in browser, HTML5)
Click here to listen with your own player(launches your MP3 player)

KBLM 040056Z AUTO 18005KT 10SM FEW050 SCT065 SCT080 23/23 A2969 RMK AO2 RAB00E45 SLP054 P0001 T02280228

KBLM Airport Info (Airnav.com)

KBLM Flight Activity (Flightaware)

Listeners: 0 out of 914 total

3N6 Old Bridge CTAF: 123.075
Emergency/Guard: 121.500
Monmouth Clearance: 120.950
Monmouth Clearance: 126.150
Monmouth CTAF: 123.000
N12 Lakewood CTAF: 122.800
Ocean County KMJX CTAF: 122.700

KMJX CTAF
Toms River, New Jersey, United States

Feed Status: DOWN
Offline since: 2020-06-04 00:26:39 UTC

KMJX 040056Z AUTO 21006KT 10SM -RA FEW043 SCT050 BKN100 21/19 A2970 RMK AO2 LTG DSNT S AND W RAB21 SLP061 P0001 T02110194

KMJX Airport Info (Airnav.com)

Toms River CTAF: 122.700

KLXT/KMKC Area Helicopters (Archives)
Kansas City, Missouri, United States

Feed Status: UP
Listen in your browser - HTML5 player(in browser, HTML5)
Click here to listen with your own player(launches your MP3 player)

KOJC 040053Z 19005KT 10SM FEW060 29/22 A2978 RMK AO2 SLP071 T02940222

KOJC Airport Info (Airnav.com)

KOJC Flight Activity (Flightaware)

Listeners: 0 out of 914 total

Helicopter Air to Air: 123.025

KMKC ATIS (Archives)
Kansas City, Missouri, United States

Feed Status: UP
Listen in your browser - HTML5 player(in browser, HTML5)
Click here to listen with your own player(launches your MP3 player)

KMKC 040054Z 26004KT 10SM CLR 32/21 A2975 RMK AO2 SLP064 T03170211

KMKC Airport Info (Airnav.com)

KMKC Flight Activity (Flightaware)

Listeners: 0 out of 914 total

Downtown ATIS: 120.750

KMKC Ground (Archives)
Kansas City, Missouri, United States

Feed Status: UP
Listen in your browser - HTML5 player(in browser, HTML5)
Click here to listen with your own player(launches your MP3 player)

KMKC 040054Z 26004KT 10SM CLR 32/21 A2975 RMK AO2 SLP064 T03170211

KMKC Airport Info (Airnav.com)

KMKC Flight Activity (Flightaware)

Listeners: 0 out of 914 total

Downtown Ground: 121.900

KMKC Tower (Archives)
Kansas City, Missouri, United States

Feed Status: UP
Listen in your browser - HTML5 player(in browser, HTML5)
Click here to listen with your own player(launches your MP3 player)

KMKC 040054Z 26004KT 10SM CLR 32/21 A2975 RMK AO2 SLP064 T03170211

KMKC Airport Info (Airnav.com)

KMKC Flight Activity (Flightaware)

Listeners: 0 out of 914 total

Downtown Tower: 133.300

KMKL Tower (Air Race Classic Start)
Jackson, Tennessee, United States

Feed Status: DOWN
Offline since: 2019-06-20 14:39:02 UTC

Jackson Tower: 127.150

KMLB Twr/App (Archives)
Melbourne, Florida, United States

Feed Status: UP
Listen in your browser - HTML5 player(in browser, HTML5)
Click here to listen with your own player(launches your MP3 player)

KMLB 040053Z 16003KT 10SM FEW028 BKN035 BKN042 24/23 A3000 RMK AO2 SLP157 VCSH T02440228

KMLB Airport Info (Airnav.com)

KMLB Flight Activity (Flightaware)

Listeners: 0 out of 914 total

Melbourne Tower: 118.200
Orlando Approach: 132.650

KMMU ATIS (Archives)
Morristown, New Jersey, United States

Feed Status: UP
Listen in your browser - HTML5 player(in browser, HTML5)
Click here to listen with your own player(launches your MP3 player)

KMMU 031946Z 28010G15KT 10SM FEW100 25/20 A2963

KMMU Airport Info (Airnav.com)

KMMU Flight Activity (Flightaware)

Listeners: 0 out of 914 total

Morristown ATIS: 124.250

KMMU Clearance Delivery (Archives)
Morristown, New Jersey, United States

Feed Status: UP
Listen in your browser - HTML5 player(in browser, HTML5)
Click here to listen with your own player(launches your MP3 player)

KMMU 031946Z 28010G15KT 10SM FEW100 25/20 A2963

KMMU Airport Info (Airnav.com)

KMMU Flight Activity (Flightaware)

Listeners: 0 out of 914 total

Morristown Clearance Delivery: 128.600

KMMU Ground (Archives)
Morristown, New Jersey, United States

Feed Status: UP
Listen in your browser - HTML5 player(in browser, HTML5)
Click here to listen with your own player(launches your MP3 player)

KMMU 031946Z 28010G15KT 10SM FEW100 25/20 A2963

KMMU Airport Info (Airnav.com)

KMMU Flight Activity (Flightaware)

Listeners: 0 out of 914 total

Morristown Ground: 134.200

KMMU Tower #1 (Archives)
Morristown, New Jersey, United States

Feed Status: UP
Listen in your browser - HTML5 player(in browser, HTML5)
Click here to listen with your own player(launches your MP3 player)

KMMU 031946Z 28010G15KT 10SM FEW100 25/20 A2963

KMMU Airport Info (Airnav.com)

KMMU Flight Activity (Flightaware)

Listeners: 0 out of 914 total

Morristown Tower: 118.100

KMMU Tower #2 (Archives)
Morristown, New Jersey, United States

Feed Status: UP
Listen in your browser - HTML5 player(in browser, HTML5)
Click here to listen with your own player(launches your MP3 player)

KMMU 031946Z 28010G15KT 10SM FEW100 25/20 A2963

KMMU Airport Info (Airnav.com)

KMMU Flight Activity (Flightaware)

Listeners: 0 out of 914 total

Morristown Tower: 118.100

KMMV CTAF (Archives)
Mc Minnville, Oregon, United States

Feed Status: UP
Listen in your browser - HTML5 player(in browser, HTML5)
Click here to listen with your own player(launches your MP3 player)

KMMV 040053Z AUTO 22004KT 10SM SCT049 23/11 A3005 RMK AO2 SLP176 T02280111

KMMV Airport Info (Airnav.com)

KMMV Flight Activity (Flightaware)

Listeners: 0 out of 914 total

Mc Minnville CTAF: 123.000

KMOD App/Dep 120.95 (Archives)
Modesto, California, United States

Feed Status: UP
Listen in your browser - HTML5 player(in browser, HTML5)
Click here to listen with your own player(launches your MP3 player)

KMOD 040053Z 33010KT 10SM CLR 38/09 A2981 RMK AO2 SLP093 T03780094

KMOD Airport Info (Airnav.com)

KMOD Flight Activity (Flightaware)

Listeners: 0 out of 914 total

NORCAL Approach: 120.950

KMOD App/Dep 125.1 (Archives)
Modesto, California, United States

Feed Status: UP
Listen in your browser - HTML5 player(in browser, HTML5)
Click here to listen with your own player(launches your MP3 player)

KMOD 040053Z 33010KT 10SM CLR 38/09 A2981 RMK AO2 SLP093 T03780094

KMOD Airport Info (Airnav.com)

KMOD Flight Activity (Flightaware)

Listeners: 0 out of 914 total

NORCAL Approach: 125.100

KMOD ATIS (Archives)
Modesto, California, United States

Feed Status: UP
Listen in your browser - HTML5 player(in browser, HTML5)
Click here to listen with your own player(launches your MP3 player)

KMOD 040053Z 33010KT 10SM CLR 38/09 A2981 RMK AO2 SLP093 T03780094

KMOD Airport Info (Airnav.com)

KMOD Flight Activity (Flightaware)

Listeners: 0 out of 914 total

Modesto ATIS: 127.700

KMOD Emergency/Guard (Archives)
Modesto, California, United States

Feed Status: UP
Listen in your browser - HTML5 player(in browser, HTML5)
Click here to listen with your own player(launches your MP3 player)

KMOD 040053Z 33010KT 10SM CLR 38/09 A2981 RMK AO2 SLP093 T03780094

KMOD Airport Info (Airnav.com)

KMOD Flight Activity (Flightaware)

Listeners: 0 out of 914 total

Emergency/Guard: 121.500

KMOD Ground (Archives)
Modesto, California, United States

Feed Status: UP
Listen in your browser - HTML5 player(in browser, HTML5)
Click here to listen with your own player(launches your MP3 player)

KMOD 040053Z 33010KT 10SM CLR 38/09 A2981 RMK AO2 SLP093 T03780094

KMOD Airport Info (Airnav.com)

KMOD Flight Activity (Flightaware)

Listeners: 0 out of 914 total

Modesto Ground: 121.700

KMOD Tower (Archives)
Modesto, California, United States

Feed Status: UP
Listen in your browser - HTML5 player(in browser, HTML5)
Click here to listen with your own player(launches your MP3 player)

KMOD 040053Z 33010KT 10SM CLR 38/09 A2981 RMK AO2 SLP093 T03780094

KMOD Airport Info (Airnav.com)

KMOD Flight Activity (Flightaware)

Listeners: 0 out of 914 total

Modesto Tower: 125.300

KMOD UNICOM (Archives)
Modesto, California, United States

Feed Status: UP
Listen in your browser - HTML5 player(in browser, HTML5)
Click here to listen with your own player(launches your MP3 player)

KMOD 040053Z 33010KT 10SM CLR 38/09 A2981 RMK AO2 SLP093 T03780094

KMOD Airport Info (Airnav.com)

KMOD Flight Activity (Flightaware)

Listeners: 0 out of 914 total

Modesto UNICOM: 122.950

KMOR AWOS (Archives)
Morristown, Tennessee, United States

Feed Status: UP
Listen in your browser - HTML5 player(in browser, HTML5)
Click here to listen with your own player(launches your MP3 player)

KMOR 040055Z AUTO 22006KT 10SM CLR 25/21 A2993 RMK A01

KMOR Airport Info (Airnav.com)

KMOR Flight Activity (Flightaware)

Listeners: 0 out of 914 total

Morristown AWOS: 126.725

KMOR Clearance Delivery (Archives)
Morristown, Tennessee, United States

Feed Status: UP
Listen in your browser - HTML5 player(in browser, HTML5)
Click here to listen with your own player(launches your MP3 player)

KMOR 040055Z AUTO 22006KT 10SM CLR 25/21 A2993 RMK A01

KMOR Airport Info (Airnav.com)

KMOR Flight Activity (Flightaware)

Listeners: 0 out of 914 total

Morristown Clearance Delivery (RCO): 132.800

KMOR CTAF (Archives)
Morristown, Tennessee, United States

Feed Status: UP
Listen in your browser - HTML5 player(in browser, HTML5)
Click here to listen with your own player(launches your MP3 player)

KMOR 040055Z AUTO 22006KT 10SM CLR 25/21 A2993 RMK A01

KMOR Airport Info (Airnav.com)

KMOR Flight Activity (Flightaware)

Listeners: 0 out of 914 total

Morristown CTAF: 122.800

KMQJ CTAF (Archives)
Indianapolis, Indiana, United States

Feed Status: UP
Listen in your browser - HTML5 player(in browser, HTML5)
Click here to listen with your own player(launches your MP3 player)

KMQJ 040055Z AUTO 00000KT 10SM SCT110 20/20 A2984 RMK AO1

KMQJ Airport Info (Airnav.com)

KMQJ Flight Activity (Flightaware)

Listeners: 0 out of 914 total

Executive CTAF: 122.975

KMQJ Del/App (Archives)
Indianapolis, Indiana, United States

Feed Status: UP
Listen in your browser - HTML5 player(in browser, HTML5)
Click here to listen with your own player(launches your MP3 player)

KMQJ 040055Z AUTO 00000KT 10SM SCT110 20/20 A2984 RMK AO1

KMQJ Airport Info (Airnav.com)

KMQJ Flight Activity (Flightaware)

Listeners: 0 out of 914 total

Executive Clearance Delivery: 119.250
Indianapolis Approach/Departure: 127.150

KMQY AWOS (Archives)
Smyrna, Tennessee, United States

Feed Status: UP
Listen in your browser - HTML5 player(in browser, HTML5)
Click here to listen with your own player(launches your MP3 player)

KMQY 040056Z 17006KT 10SM CLR 26/22 A2992 RMK AO2 SLP134 T02560217 PNO $

KMQY Airport Info (Airnav.com)

KMQY Flight Activity (Flightaware)

Listeners: 0 out of 914 total

Smyrna AWOS: 119.125

KMQY Clearance Delivery (Archives)
Smyrna, Tennessee, United States

Feed Status: UP
Listen in your browser - HTML5 player(in browser, HTML5)
Click here to listen with your own player(launches your MP3 player)

KMQY 040056Z 17006KT 10SM CLR 26/22 A2992 RMK AO2 SLP134 T02560217 PNO $

KMQY Airport Info (Airnav.com)

KMQY Flight Activity (Flightaware)

Listeners: 0 out of 914 total

Smyrna Clearance Delivery (after Tower closes): 121.700

KMQY Emergency/Guard (Archives)
Smyrna, Tennessee, United States

Feed Status: UP
Listen in your browser - HTML5 player(in browser, HTML5)
Click here to listen with your own player(launches your MP3 player)

KMQY 040056Z 17006KT 10SM CLR 26/22 A2992 RMK AO2 SLP134 T02560217 PNO $

KMQY Airport Info (Airnav.com)

KMQY Flight Activity (Flightaware)

Listeners: 0 out of 914 total

Emergency/Guard: 121.500

KMQY Ground (Archives)
Smyrna, Tennessee, United States

Feed Status: UP
Listen in your browser - HTML5 player(in browser, HTML5)
Click here to listen with your own player(launches your MP3 player)

KMQY 040056Z 17006KT 10SM CLR 26/22 A2992 RMK AO2 SLP134 T02560217 PNO $

KMQY Airport Info (Airnav.com)

KMQY Flight Activity (Flightaware)

Listeners: 0 out of 914 total

Smyrna Ground: 121.400

KMQY Ground/Tower (Archives)
Smyrna, Tennessee, United States

Feed Status: UP
Listen in your browser - HTML5 player(in browser, HTML5)
Click here to listen with your own player(launches your MP3 player)

KMQY 040056Z 17006KT 10SM CLR 26/22 A2992 RMK AO2 SLP134 T02560217 PNO $

KMQY Airport Info (Airnav.com)

KMQY Flight Activity (Flightaware)

Listeners: 0 out of 914 total

Smyrna Ground: 121.400
Smyrna Tower: 233.100
Smyrna Tower: 118.500

KMQY Tower (Archives)
Smyrna, Tennessee, United States

Feed Status: UP
Listen in your browser - HTML5 player(in browser, HTML5)
Click here to listen with your own player(launches your MP3 player)

KMQY 040056Z 17006KT 10SM CLR 26/22 A2992 RMK AO2 SLP134 T02560217 PNO $

KMQY Airport Info (Airnav.com)

KMQY Flight Activity (Flightaware)

Listeners: 0 out of 914 total

Smyrna Tower: 118.500
Smyrna Tower: 233.100

KMRB ATIS
Martinsburg, West Virginia, United States

Feed Status: DOWN
Offline since: 2020-06-02 14:14:21 UTC

KMRB 040053Z 25014KT 10SM CLR 28/17 A2974 RMK AO2 SLP064 T02780167

KMRB Airport Info (Airnav.com)

Martinsburg ATIS/AWOS: 119.925

KMRB Del/Gnd
Martinsburg, West Virginia, United States

Feed Status: DOWN
Offline since: 2020-06-02 14:14:21 UTC

KMRB 040053Z 25014KT 10SM CLR 28/17 A2974 RMK AO2 SLP064 T02780167

KMRB Airport Info (Airnav.com)

Martinsburg Clearance Delivery (after hours via Potomac TRACON): 132.075
Martinsburg Ground: 121.800

KMRB Emergency/Guard
Martinsburg, West Virginia, United States

Feed Status: DOWN
Offline since: 2020-06-02 14:14:21 UTC

KMRB 040053Z 25014KT 10SM CLR 28/17 A2974 RMK AO2 SLP064 T02780167

KMRB Airport Info (Airnav.com)

Emergency/Guard: 121.500

KMRB Tower/CTAF
Martinsburg, West Virginia, United States

Feed Status: DOWN
Offline since: 2020-06-02 14:14:21 UTC

KMRB 040053Z 25014KT 10SM CLR 28/17 A2974 RMK AO2 SLP064 T02780167

KMRB Airport Info (Airnav.com)

Martinsburg Tower: 124.300

KMRN CTAF (Archives)
Morganton, North Carolina, United States

Feed Status: UP
Listen in your browser - HTML5 player(in browser, HTML5)
Click here to listen with your own player(launches your MP3 player)

KHKY 040053Z AUTO 21006KT 10SM CLR 27/19 A2992 RMK AO2 SLP107 T02720194

KHKY Airport Info (Airnav.com)

KHKY Flight Activity (Flightaware)

Listeners: 0 out of 914 total

Foothills CTAF: 122.700

KMSO Gnd/Twr/App/ZLC/ZSE (Archives)
Missoula, Montana, United States

Feed Status: UP
Listen in your browser - HTML5 player(in browser, HTML5)
Click here to listen with your own player(launches your MP3 player)

KMSO 040053Z 32010KT 10SM CLR 23/01 A2993 RMK AO2 SLP123 T02330006

KMSO Airport Info (Airnav.com)

KMSO Flight Activity (Flightaware)

Listeners: 1 out of 914 total

Emergency/Guard: 121.500
Great Falls Radio Miller Peak RCO: 122.450
Minuteman Jet Center Unicom: 122.950
Missoula Ground/Clearance Delivery: 121.900
Missoula International Airport Operations: 155.820
Missoula International Airport Operations: 154.965
Missoula Tower: 118.400
Northstar Unicom: 123.300
Salt Lake Center: 132.400
Salt Lake City Center: 133.400
Seattle Center (Mullan Pass RCAG): 128.450
Spokane Approach/Departure: 124.900

KMTC App/Dep (Archives)
Mount Clemens, Michigan, United States

Feed Status: UP
Listen in your browser - HTML5 player(in browser, HTML5)
Click here to listen with your own player(launches your MP3 player)

KMTC 040055Z 25004KT 10SM FEW080 SCT190 BKN230 25/15 A2973 RMK AO2A SLP068 T02540145 $

KMTC Airport Info (Airnav.com)

KMTC Flight Activity (Flightaware)

Listeners: 0 out of 914 total

Selfridge Approach: 119.600
Selfridge Approach: 318.200
Selfridge Approach: 391.900

KMTC Ground/Tower (Archives)
Mount Clemens, Michigan, United States

Feed Status: UP
Listen in your browser - HTML5 player(in browser, HTML5)
Click here to listen with your own player(launches your MP3 player)

KMTC 040055Z 25004KT 10SM FEW080 SCT190 BKN230 25/15 A2973 RMK AO2A SLP068 T02540145 $

KMTC Airport Info (Airnav.com)

KMTC Flight Activity (Flightaware)

Listeners: 0 out of 914 total

Selfridge Ground: 128.300
Selfridge Ground: 275.800
Selfridge Tower: 120.150
Selfridge Tower: 225.400

KMTJ CTAF/ZDV/Guard (Archives)
Montrose, Colorado, United States

Feed Status: UP
Listen in your browser - HTML5 player(in browser, HTML5)
Click here to listen with your own player(launches your MP3 player)

KMTJ 040053Z AUTO 00000KT 10SM FEW100 29/00 A3007 RMK AO2 SLP101 T02890000

KMTJ Airport Info (Airnav.com)

KMTJ Flight Activity (Flightaware)

Listeners: 0 out of 914 total

Denver Center (Sector 12 Gunnison Low): 125.350
Emergency/Guard: 121.500
Montrose CTAF: 122.800

KMTN Ground/Misc (Archives)
Baltimore, Maryland, United States

Feed Status: UP
Listen in your browser - HTML5 player(in browser, HTML5)
Click here to listen with your own player(launches your MP3 player)

KMTN 040054Z 26008G14KT 10SM SCT150 31/17 A2970 RMK LTG DSNT NE TCU DSNT NE

KMTN Airport Info (Airnav.com)

KMTN Flight Activity (Flightaware)

Listeners: 0 out of 914 total

Helo Air to Air: 123.025
Martin Ground/Clearance: 121.800
Martin Ground/Clearance: 253.400

KMTN Tower (Archives)
Baltimore, Maryland, United States

Feed Status: UP
Listen in your browser - HTML5 player(in browser, HTML5)
Click here to listen with your own player(launches your MP3 player)

KMTN 040054Z 26008G14KT 10SM SCT150 31/17 A2970 RMK LTG DSNT NE TCU DSNT NE

KMTN Airport Info (Airnav.com)

KMTN Flight Activity (Flightaware)

Listeners: 1 out of 914 total

Martin Tower: 121.300
Martin Tower: 254.425

KMTW CTAF (Archives)
Manitowoc, Wisconsin, United States

Feed Status: UP
Listen in your browser - HTML5 player(in browser, HTML5)
Click here to listen with your own player(launches your MP3 player)

KMTW 040056Z AUTO 21003KT 10SM CLR 27/16 A2973 RMK AO2 SLP064 T02670161

KMTW Airport Info (Airnav.com)

KMTW Flight Activity (Flightaware)

Listeners: 0 out of 914 total

Manitowoc CTAF: 122.800

KMVY Cape Approach (Archives)
Vineyard Haven, Massachusetts, United States

Feed Status: UP
Listen in your browser - HTML5 player(in browser, HTML5)
Click here to listen with your own player(launches your MP3 player)

KMVY 040053Z 23007KT 8SM CLR 18/16 A2962 RMK AO2 SLP031 T01830161

KMVY Airport Info (Airnav.com)

KMVY Flight Activity (Flightaware)

Listeners: 0 out of 914 total

Cape Approach: 119.700
Cape Approach: 133.750
Cape Approach (ACK): 126.100
Cape Approach (split off in summer): 118.200

KMVY Del/Gnd/Twr (Archives)
Vineyard Haven, Massachusetts, United States

Feed Status: UP
Listen in your browser - HTML5 player(in browser, HTML5)
Click here to listen with your own player(launches your MP3 player)

KMVY 040053Z 23007KT 8SM CLR 18/16 A2962 RMK AO2 SLP031 T01830161

KMVY Airport Info (Airnav.com)

KMVY Flight Activity (Flightaware)

Listeners: 0 out of 914 total

Vineyard Del/Ground: 124.350
Vineyard Tower: 121.400

KMWA Gnd/Twr/CTAF (Archives)
Marion, Illinois, United States

Feed Status: UP
Listen in your browser - HTML5 player(in browser, HTML5)
Click here to listen with your own player(launches your MP3 player)

KMWA 040055Z AUTO 21004KT 10SM CLR 26/22 A2982 RMK AO2 T02630220

KMWA Airport Info (Airnav.com)

KMWA Flight Activity (Flightaware)

Listeners: 0 out of 914 total

Marion Ground: 121.700
Marion Tower/CTAF: 128.400

KMWC Gnd/Twr/App
Milwaukee, Wisconsin, United States

Feed Status: DOWN
Offline since: 2020-04-20 13:00:40 UTC

KMWC 040045Z 15005KT 10SM SKC 26/09 A2977

KMWC Airport Info (Airnav.com)

Milwaukee Approach: 125.350
Timmerman Ground: 121.700
Timmerman Tower: 120.500

KMYF ATIS (Archives)
San Diego, California, United States

Feed Status: UP
Listen in your browser - HTML5 player(in browser, HTML5)
Click here to listen with your own player(launches your MP3 player)

KSAN 040051Z 19008KT 10SM BKN010 22/17 A2988 RMK AO2 SLP118 T02220167

KSAN Airport Info (Airnav.com)

KSAN Flight Activity (Flightaware)

Listeners: 0 out of 914 total

Montgomery ATIS: 126.900

KMYF Clearance Delivery (Archives)
San Diego, California, United States

Feed Status: UP
Listen in your browser - HTML5 player(in browser, HTML5)
Click here to listen with your own player(launches your MP3 player)

KMYF 040053Z AUTO 20009KT 10SM CLR 23/16 A2986 RMK AO2 SLP109 T02280161

KMYF Airport Info (Airnav.com)

KMYF Flight Activity (Flightaware)

Listeners: 0 out of 914 total

Montgomery Clearance: 123.725

KMYF Del/Gnd/Twr (Archives)
San Diego, California, United States

Feed Status: UP
Listen in your browser - HTML5 player(in browser, HTML5)
Click here to listen with your own player(launches your MP3 player)

KMYF 040053Z AUTO 20009KT 10SM CLR 23/16 A2986 RMK AO2 SLP109 T02280161

KMYF Airport Info (Airnav.com)

KMYF Flight Activity (Flightaware)

Listeners: 0 out of 914 total

Air to Air: 122.750
Montgomery Clearance Delivery: 123.725
Montgomery Ground: 118.225
Montgomery Tower: 125.700
Montgomery Tower/CTAF: 119.200
San Diego VFR Corridor: 126.050

KMYF Ground #1 (Archives)
San Diego, California, United States

Feed Status: UP
Listen in your browser - HTML5 player(in browser, HTML5)
Click here to listen with your own player(launches your MP3 player)

KMYF 040053Z AUTO 20009KT 10SM CLR 23/16 A2986 RMK AO2 SLP109 T02280161

KMYF Airport Info (Airnav.com)

KMYF Flight Activity (Flightaware)

Listeners: 0 out of 914 total

Montgomery Ground: 118.225

KMYF Ground #2 (Archives)
San Diego, California, United States

Feed Status: UP
Listen in your browser - HTML5 player(in browser, HTML5)
Click here to listen with your own player(launches your MP3 player)

KSAN 040051Z 19008KT 10SM BKN010 22/17 A2988 RMK AO2 SLP118 T02220167

KSAN Airport Info (Airnav.com)

KSAN Flight Activity (Flightaware)

Listeners: 0 out of 914 total

Montgomery Ground: 118.225

KMYF SOCAL Approach (Archives)
San Diego, California, United States

Feed Status: UP
Listen in your browser - HTML5 player(in browser, HTML5)
Click here to listen with your own player(launches your MP3 player)

KMYF 040053Z AUTO 20009KT 10SM CLR 23/16 A2986 RMK AO2 SLP109 T02280161

KMYF Airport Info (Airnav.com)

KMYF Flight Activity (Flightaware)

Listeners: 0 out of 914 total

SOCAL Approach (East): 124.350
SOCAL Approach (West): 119.600

KMYF Tower #1 (Archives)
San Diego, California, United States

Feed Status: UP
Listen in your browser - HTML5 player(in browser, HTML5)
Click here to listen with your own player(launches your MP3 player)

KMYF 040053Z AUTO 20009KT 10SM CLR 23/16 A2986 RMK AO2 SLP109 T02280161

KMYF Airport Info (Airnav.com)

KMYF Flight Activity (Flightaware)

Listeners: 1 out of 914 total

Montgomery Tower: 125.700
Montgomery Tower: 119.200

KMYF Tower (Primary) (Archives)
San Diego, California, United States

Feed Status: UP
Listen in your browser - HTML5 player(in browser, HTML5)
Click here to listen with your own player(launches your MP3 player)

KSAN 040051Z 19008KT 10SM BKN010 22/17 A2988 RMK AO2 SLP118 T02220167

KSAN Airport Info (Airnav.com)

KSAN Flight Activity (Flightaware)

Listeners: 2 out of 914 total

Montgomery Tower (Primary): 119.200

KNEL/KWRI/ZNY (Archives)
Lakehurst, New Jersey, United States

Feed Status: UP
Listen in your browser - HTML5 player(in browser, HTML5)
Click here to listen with your own player(launches your MP3 player)

KBLM 040056Z AUTO 18005KT 10SM FEW050 SCT065 SCT080 23/23 A2969 RMK AO2 RAB00E45 SLP054 P0001 T02280228

KBLM Airport Info (Airnav.com)

KBLM Flight Activity (Flightaware)

Listeners: 0 out of 914 total

Emergency/Guard: 121.500
Lakehurst Ground: 307.050
Lakehurst Ground: 118.375
Lakehurst Tower: 340.200
Lakehurst Tower: 360.200
Lakehurst Tower: 127.775
McGuire Approach: 126.475
McGuire Approach: 124.150
McGuire Arrival: 120.250
McGuire Tower: 257.800
McGuire Tower: 255.600
McGuire Tower: 118.650
NEL Army Ops: 255.700
New York Center (DIXIE Sector Low): 118.975
New York Center (DIXIE Sector Low): 307.800
New York Center (Kennedy Sector High): 282.300
New York Center (Kennedy Sector High): 125.325
WRI 108 ANG Command Post: 251.200
WRI 108 ANG Command Post: 321.000
WRI Army Ops: 139.300
WRI Army Ops: 265.600
WRI Army Ops: 41.350
WRI Army Ops Command Post: 319.400
WRI Army Ops Command Post (backup): 349.400
WRI Pilot to Dispatch: 134.100
WRI Pilot to Dispatch: 372.200
WRI USMC HMH 772 Ops: 283.000
WRI USMC HMLA 773 Ops: 264.200

KNEW Del/Gnd (Archives)
New Orleans, Louisiana, United States

Feed Status: UP
Listen in your browser - HTML5 player(in browser, HTML5)
Click here to listen with your own player(launches your MP3 player)

KNEW 040053Z AUTO 17006KT 10SM CLR 27/21 A2997 RMK AO2 SLP140 T02720211

KNEW Airport Info (Airnav.com)

KNEW Flight Activity (Flightaware)

Listeners: 0 out of 914 total

Lakefront Clearance Delivery: 127.400
Lakefront Ground: 121.700

KNEW Tower (Archives)
New Orleans, Louisiana, United States

Feed Status: UP
Listen in your browser - HTML5 player(in browser, HTML5)
Click here to listen with your own player(launches your MP3 player)

KNEW 040053Z AUTO 17006KT 10SM CLR 27/21 A2997 RMK AO2 SLP140 T02720211

KNEW Airport Info (Airnav.com)

KNEW Flight Activity (Flightaware)

Listeners: 0 out of 914 total

Lakefront Tower: 119.900

KNGU Del/Gnd/Twr (Archives)
Norfolk, Virginia, United States

Feed Status: UP
Listen in your browser - HTML5 player(in browser, HTML5)
Click here to listen with your own player(launches your MP3 player)

KNGU 032359Z 23008KT 10SM SCT150 SCT250 31/21 A2980 RMK AO2 SLP089 T03060206 10333 20306 53009 $

KNGU Airport Info (Airnav.com)

KNGU Flight Activity (Flightaware)

Listeners: 0 out of 914 total

AMC/ATOC: 349.500
AMC/ATOC: 130.650
Chambers Clearance Delivery: 339.800
Chambers Clearance Delivery: 120.700
Chambers Ground: 370.850
Chambers Ground: 121.800
Chambers Ground (Helicopters): 298.950
Chambers Tower: 257.975
Chambers Tower: 126.375
Chambers Tower (Helicopters): 279.600
Metro: 271.600
Norfolk Approach/Departure: 335.625
Norfolk Departure: 363.125
Radar: 279.525
Radar: 335.800
Radar: 322.525

KNKX Del/Gnd/Twr (Archives)
San Diego, California, United States

Feed Status: UP
Listen in your browser - HTML5 player(in browser, HTML5)
Click here to listen with your own player(launches your MP3 player)

KNKX 032355Z 22009KT 10SM CLR 27/17 A2985 RMK AO2 SLP102 T02670167 10311 20267 56009

KNKX Airport Info (Airnav.com)

KNKX Flight Activity (Flightaware)

Listeners: 1 out of 914 total

Miramar Clearance Delivery: 125.975
Miramar Clearance Delivery: 254.325
Miramar Ground: 128.625
Miramar Ground: 307.325
Miramar Tower: 135.200
Miramar Tower: 298.925
Miramar Tower: 340.200

KNTU Giant Killer (Archives)
Virginia Beach, Virginia, United States

Feed Status: UP
Listen in your browser - HTML5 player(in browser, HTML5)
Click here to listen with your own player(launches your MP3 player)

KORF 040051Z 24012KT 10SM CLR 31/19 A2979 RMK AO2 SLP088 T03110194

KORF Airport Info (Airnav.com)

KORF Flight Activity (Flightaware)

Listeners: 1 out of 914 total

Giant Killer: 118.125
Giant Killer: 125.375
Giant Killer: 233.700
Giant Killer: 271.500
Giant Killer: 127.650
Giant Killer: 238.100
Giant Killer: 350.000
Giant Killer W-107: 255.000

KNTU Gnd/Twr/App/Radar (Archives)
Virginia Beach, Virginia, United States

Feed Status: UP
Listen in your browser - HTML5 player(in browser, HTML5)
Click here to listen with your own player(launches your MP3 player)

KNTU 040056Z 22008KT 10SM FEW150 SCT300 29/19 A2979 RMK AO2 SLP091 T02890189

KNTU Airport Info (Airnav.com)

KNTU Flight Activity (Flightaware)

Listeners: 1 out of 914 total

Base Ops: 289.400
Emergency/Guard: 121.500
Emergency/Guard: 243.000
Oceana Approach: 123.900
Oceana Approach: 266.800
Oceana Clearance Delivery: 254.400
Oceana Departure: 119.600
Oceana Departure: 288.300
Oceana Ground: 336.400
Oceana Metro: 387.400
Oceana Radar: 363.600
Oceana Radar: 134.100
Oceana Radar: 310.800
Oceana Radar: 322.000
Oceana Radar: 325.200
Oceana Radar: 346.000
Oceana Tower: 127.075
Oceana Tower: 360.200
PMSV Metro: 287.400
SFA: 328.400
SFA: 346.400
SFA: 348.750
SFA: 352.100
SFA: 363.100

KNUQ Gnd/Twr (Archives)
Mountain View, California, United States

Feed Status: UP
Listen in your browser - HTML5 player(in browser, HTML5)
Click here to listen with your own player(launches your MP3 player)

KNUQ 031355Z AUTO 00000KT 10SM CLR 21/13 A2996 RMK AO2

KNUQ Airport Info (Airnav.com)

KNUQ Flight Activity (Flightaware)

Listeners: 0 out of 914 total

Golden Gate Traffic: 124.300
Moffett Ground: 121.850
Moffett Ground: 336.400
Moffett Tower: 119.550
Moffett Tower: 346.250
Stanford University Hospital Heliport: 130.050

KOAJ Gnd/Twr (Archives)
Jacksonville, North Carolina, United States

Feed Status: UP
Listen in your browser - HTML5 player(in browser, HTML5)
Click here to listen with your own player(launches your MP3 player)

KOAJ 040056Z 21013KT 10SM CLR 24/20 A2992 RMK AO2 SLP134 T02440200

KOAJ Airport Info (Airnav.com)

KOAJ Flight Activity (Flightaware)

Listeners: 0 out of 914 total

Ellis Ground: 125.400
Ellis Tower: 132.650

KOCF Gnd/Twr/App (Archives)
Ocala, Florida, United States

Feed Status: UP
Listen in your browser - HTML5 player(in browser, HTML5)
Click here to listen with your own player(launches your MP3 player)

KOCF 040051Z AUTO 00000KT 10SM -RA BKN048 BKN055 OVC070 24/23 A3002 RMK AO2 SLP166 P0001 T02390233 $

KOCF Airport Info (Airnav.com)

KOCF Flight Activity (Flightaware)

Listeners: 0 out of 914 total

Jacksonville Approach (OCF RCO): 118.600
Ocala Ground: 121.400
Ocala Tower: 119.250
UNICOM: 123.000

KOGB CTAF (Archives)
Orangeburg, South Carolina, United States

Feed Status: UP
Listen in your browser - HTML5 player(in browser, HTML5)
Click here to listen with your own player(launches your MP3 player)

KOGB 040053Z AUTO 19004KT 10SM CLR 24/19 A2996 RMK AO2 SLP143 T02440194

KOGB Airport Info (Airnav.com)

KOGB Flight Activity (Flightaware)

Listeners: 0 out of 914 total

Orangeburg CTAF: 122.700

KOGD Ogden Ground/Tower
Ogden, Utah, United States

Feed Status: DOWN
Offline since: 2020-05-31 05:34:05 UTC

KOGD 040053Z 35008KT 10SM FEW110 30/02 A2998 RMK AO2 PK WND 35028/0013 WSHFT 0005 SLP092 T03000022 $

KOGD Airport Info (Airnav.com)

Ogden Ground: 121.700
Ogden Tower: 118.700

KOJC App/Dep (Archives)
Olathe, Kansas, United States

Feed Status: UP
Listen in your browser - HTML5 player(in browser, HTML5)
Click here to listen with your own player(launches your MP3 player)

KOJC 040053Z 19005KT 10SM FEW060 29/22 A2978 RMK AO2 SLP071 T02940222

KOJC Airport Info (Airnav.com)

KOJC Flight Activity (Flightaware)

Listeners: 0 out of 914 total

Kansas City Approach/Departure: 118.900

KOJC ATIS (Archives)
Olathe, Kansas, United States

Feed Status: UP
Listen in your browser - HTML5 player(in browser, HTML5)
Click here to listen with your own player(launches your MP3 player)

KOJC 040053Z 19005KT 10SM FEW060 29/22 A2978 RMK AO2 SLP071 T02940222

KOJC Airport Info (Airnav.com)

KOJC Flight Activity (Flightaware)

Listeners: 0 out of 914 total

Executive ATIS: 119.350

KOJC Gnd/Twr (Archives)
Olathe, Kansas, United States

Feed Status: UP
Listen in your browser - HTML5 player(in browser, HTML5)
Click here to listen with your own player(launches your MP3 player)

KOJC 040053Z 19005KT 10SM FEW060 29/22 A2978 RMK AO2 SLP071 T02940222

KOJC Airport Info (Airnav.com)

KOJC Flight Activity (Flightaware)

Listeners: 0 out of 914 total

Executive Ground: 121.600
Executive Tower: 126.000

KOMN ATIS
Ormond Beach, Florida, United States

Feed Status: DOWN
Offline since: 2020-04-11 22:09:05 UTC

KOMN 032248Z 11004KT 7SM SCT022 BKN035 25/22 A3000 RMK LAST

KOMN Airport Info (Airnav.com)

Ormond Beach ATIS: 118.475

KOMN Ground
Ormond Beach, Florida, United States

Feed Status: DOWN
Offline since: 2020-04-11 22:09:05 UTC

KOMN 032248Z 11004KT 7SM SCT022 BKN035 25/22 A3000 RMK LAST

KOMN Airport Info (Airnav.com)

Ormond Beach Ground: 121.625

KOMN Tower
Ormond Beach, Florida, United States

Feed Status: DOWN
Offline since: 2020-04-11 22:09:05 UTC

KOMN 032248Z 11004KT 7SM SCT022 BKN035 25/22 A3000 RMK LAST

KOMN Airport Info (Airnav.com)

Ormond Beach Tower: 119.075

KGDM/KORE CTAF (Archives)
Orange, Massachusetts, United States

Feed Status: UP
Listen in your browser - HTML5 player(in browser, HTML5)
Click here to listen with your own player(launches your MP3 player)

KGDM Airport Info (Airnav.com)

KGDM Flight Activity (Flightaware)

Listeners: 0 out of 914 total

Gardner CTAF: 122.800

MA/NH/RI/CT Area CTAF (Archives)
Orange, Massachusetts, United States

Feed Status: UP
Listen in your browser - HTML5 player(in browser, HTML5)
Click here to listen with your own player(launches your MP3 player)

KBOS 040054Z 31010KT 10SM FEW008 SCT045 BKN065 BKN200 23/16 A2959 RMK AO2 SLP019 SHRA NE-E T02280156

KBOS Airport Info (Airnav.com)

KBOS Flight Activity (Flightaware)

Listeners: 0 out of 914 total

Air-to-Air: 122.750
Bridgeport Flight Service: 122.200
CTAF: 122.700
CTAF: 122.800
CTAF: 122.900
CTAF: 123.000
Emergency/Guard: 121.500

MA/NH/RI/CT Area CTAF (Archives)
Orange, Massachusetts, United States

Feed Status: UP
Listen in your browser - HTML5 player(in browser, HTML5)
Click here to listen with your own player(launches your MP3 player)

KBOS 040054Z 31010KT 10SM FEW008 SCT045 BKN065 BKN200 23/16 A2959 RMK AO2 SLP019 SHRA NE-E T02280156

KBOS Airport Info (Airnav.com)

KBOS Flight Activity (Flightaware)

Listeners: 0 out of 914 total

Air-to-Air: 122.750
Bridgeport Flight Service: 122.200
CTAF: 122.700
CTAF: 122.800
CTAF: 122.900
CTAF: 123.000
Emergency/Guard: 121.500

MA/NH/RI/CT Area CTAF (Archives)
Orange, Massachusetts, United States

Feed Status: UP
Listen in your browser - HTML5 player(in browser, HTML5)
Click here to listen with your own player(launches your MP3 player)

KBOS 040054Z 31010KT 10SM FEW008 SCT045 BKN065 BKN200 23/16 A2959 RMK AO2 SLP019 SHRA NE-E T02280156

KBOS Airport Info (Airnav.com)

KBOS Flight Activity (Flightaware)

Listeners: 0 out of 914 total

Air-to-Air: 122.750
Bridgeport Flight Service: 122.200
CTAF: 122.700
CTAF: 122.800
CTAF: 122.900
CTAF: 123.000
Emergency/Guard: 121.500

FSS (Central MA) (Archives)
Worcester, Massachusetts, United States

Feed Status: UP
Listen in your browser - HTML5 player(in browser, HTML5)
Click here to listen with your own player(launches your MP3 player)

KORH 040054Z 26005KT 10SM CLR 21/14 A2963 RMK AO2 SLP028 T02110144

KORH Airport Info (Airnav.com)

KORH Flight Activity (Flightaware)

Listeners: 0 out of 914 total

Flight Service: 122.200

KORH ATIS (Archives)
Worcester, Massachusetts, United States

Feed Status: UP
Listen in your browser - HTML5 player(in browser, HTML5)
Click here to listen with your own player(launches your MP3 player)

KORH 040054Z 26005KT 10SM CLR 21/14 A2963 RMK AO2 SLP028 T02110144

KORH Airport Info (Airnav.com)

KORH Flight Activity (Flightaware)

Listeners: 0 out of 914 total

Worcester ATIS: 126.550

KORH Bradley App/Dep (Archives)
Worcester, Massachusetts, United States

Feed Status: UP
Listen in your browser - HTML5 player(in browser, HTML5)
Click here to listen with your own player(launches your MP3 player)

KORH 040054Z 26005KT 10SM CLR 21/14 A2963 RMK AO2 SLP028 T02110144

KORH Airport Info (Airnav.com)

KORH Flight Activity (Flightaware)

Listeners: 0 out of 914 total

Bradley Approach (Worcester Sector): 119.000

KORH Tower (Archives)
Worcester, Massachusetts, United States

Feed Status: UP
Listen in your browser - HTML5 player(in browser, HTML5)
Click here to listen with your own player(launches your MP3 player)

KORH 040054Z 26005KT 10SM CLR 21/14 A2963 RMK AO2 SLP028 T02110144

KORH Airport Info (Airnav.com)

KORH Flight Activity (Flightaware)

Listeners: 0 out of 914 total

Worcester Tower: 120.500

KORK CTAF/ZME (Archives)
North Little Rock, Arkansas, United States

Feed Status: UP
Listen in your browser - HTML5 player(in browser, HTML5)
Click here to listen with your own player(launches your MP3 player)

KORK Airport Info (Airnav.com)

KORK Flight Activity (Flightaware)

Listeners: 1 out of 914 total

Little Rock Approach: 291.750
Little Rock Approach (East): 353.600
Little Rock Approach (East): 135.400
Little Rock Approach (West): 306.200
Little Rock Approach (West): 119.500
Little Rock Ground: 335.800
Little Rock Tower: 257.800
Memphis Center (Sector 20 Little Rock Ultra High): 316.050
Memphis Center (Sector 20 Little Rock Ultra High): 125.475
Memphis Center (Sector 21 Conway High): 323.250
Memphis Center (Sector 21 Conway High): 132.425
North Little Rock Clearance Delivery: 121.600
North Little Rock CTAF: 123.075

KORK/KLIT CTAF/Del/Gnd/Twr/App (Archives)
North Little Rock, Arkansas, United States

Feed Status: UP
Listen in your browser - HTML5 player(in browser, HTML5)
Click here to listen with your own player(launches your MP3 player)

KORK Airport Info (Airnav.com)

KORK Flight Activity (Flightaware)

Listeners: 0 out of 914 total

Little Rock Approach: 291.750
Little Rock Approach (East): 135.400
Little Rock Approach (East): 353.600
Little Rock Approach (West): 119.500
Little Rock Approach (West): 306.200
Little Rock Ground: 335.800
Little Rock Tower: 257.800
North Little Rock Clearance Delivery: 121.600
North Little Rock CTAF: 123.075

KMCO App (Disney/Ovido Sectors)
Orlando, Florida, United States

Feed Status: DOWN
Offline since: 2020-05-21 12:29:40 UTC

KMCO 040053Z 12004KT 10SM -RA FEW035 FEW070 OVC140 24/23 A3000 RMK AO2 SLP157 P0000 T02440228 $

KMCO Airport Info (Airnav.com)

Orlando Approach (Disney Satellite Sector): 119.400
Orlando Approach (OVIDO Satellite Sector): 119.775

KMCO App (North Satellite) (Archives)
Orlando, Florida, United States

Feed Status: UP
Listen in your browser - HTML5 player(in browser, HTML5)
Click here to listen with your own player(launches your MP3 player)

KORL 040053Z AUTO 13003KT 10SM SCT017 BKN120 24/22 A3000 RMK AO2 SLP162 T02440222

KORL Airport Info (Airnav.com)

KORL Flight Activity (Flightaware)

Listeners: 0 out of 914 total

Orlando Approach (North Satellite): 121.100
Orlando Approach (North Satellite): 135.300

KORL ATIS (Archives)
Orlando, Florida, United States

Feed Status: UP
Listen in your browser - HTML5 player(in browser, HTML5)
Click here to listen with your own player(launches your MP3 player)

KORL 040053Z AUTO 13003KT 10SM SCT017 BKN120 24/22 A3000 RMK AO2 SLP162 T02440222

KORL Airport Info (Airnav.com)

KORL Flight Activity (Flightaware)

Listeners: 0 out of 914 total

Orlando Executive ATIS: 127.250

KORL Ground (Archives)
Orlando, Florida, United States

Feed Status: UP
Listen in your browser - HTML5 player(in browser, HTML5)
Click here to listen with your own player(launches your MP3 player)

KORL 040053Z AUTO 13003KT 10SM SCT017 BKN120 24/22 A3000 RMK AO2 SLP162 T02440222

KORL Airport Info (Airnav.com)

KORL Flight Activity (Flightaware)

Listeners: 0 out of 914 total

Executive Ground: 121.400

KORL Tower (Archives)
Orlando, Florida, United States

Feed Status: UP
Listen in your browser - HTML5 player(in browser, HTML5)
Click here to listen with your own player(launches your MP3 player)

KORL 040053Z AUTO 13003KT 10SM SCT017 BKN120 24/22 A3000 RMK AO2 SLP162 T02440222

KORL Airport Info (Airnav.com)

KORL Flight Activity (Flightaware)

Listeners: 0 out of 914 total

Executive Tower: 118.700

KOSH Air Show
Oshkosh, Wisconsin, United States

Feed Status: DOWN
Offline since: 2019-08-10 20:03:40 UTC

KOSH 040053Z 00000KT 10SM CLR 27/15 A2974 RMK AO2 SLP057 T02670150

KOSH Airport Info (Airnav.com)

Air Boss: 133.850
Air Show Control: 123.900
Air Show Control: 128.000
Air Show Control: 128.100
Air Show Control Warbirds: 121.400
Blue Angels: Misc
Emergency (Guard): 121.500
Julie Clark: 123.150
Oshkosh Tower (UHF): 290.900
Patty Wagstaff: 123.050
Sean D. Tucker: 122.925

KOSH Air Show/Twr
Oshkosh, Wisconsin, United States

Feed Status: DOWN
Offline since: 2019-08-10 20:03:40 UTC

KOSH 040053Z 00000KT 10SM CLR 27/15 A2974 RMK AO2 SLP057 T02670150

KOSH Airport Info (Airnav.com)

Air Boss: 133.850
Air Show Control: 123.900
Air Show Control: 128.000
Air Show Control: 128.100
Air Show Control Warbirds: 121.400
Emergency (Guard): 121.500
Julie Clark: 123.150
KOSH South Tower: 126.600
Patty Wagstaff: 123.050
Sean D. Tucker: 122.925

KOSH Arrival ATIS
Oshkosh, Wisconsin, United States

Feed Status: DOWN
Offline since: 2019-08-10 20:03:40 UTC

KOSH 040053Z 00000KT 10SM CLR 27/15 A2974 RMK AO2 SLP057 T02670150

KOSH Airport Info (Airnav.com)

Airventure Arrival ATIS: 125.900

KOSH Del/Gnd/Misc
Oshkosh, Wisconsin, United States

Feed Status: DOWN
Offline since: 2019-08-10 20:03:40 UTC

KOSH 040053Z 00000KT 10SM CLR 27/15 A2974 RMK AO2 SLP057 T02670150

KOSH Airport Info (Airnav.com)

AirVenture Seaplane Base: 123.300
Green Bay Radio: 122.250
Oshkosh Clearance: 119.050
Oshkosh Ground: 132.300
UNICOM (Basler FBO): 122.950
Warbird Ground: 123.900

KOSH Departure ATIS
Oshkosh, Wisconsin, United States

Feed Status: DOWN
Offline since: 2019-08-10 20:04:39 UTC

KOSH 040053Z 00000KT 10SM CLR 27/15 A2974 RMK AO2 SLP057 T02670150

KOSH Airport Info (Airnav.com)

KOSH Departure ATIS: 121.750

KOSH Departure Monitor
Oshkosh, Wisconsin, United States

Feed Status: DOWN
Offline since: 2019-08-10 20:04:39 UTC

KOSH 040053Z 00000KT 10SM CLR 27/15 A2974 RMK AO2 SLP057 T02670150

KOSH Airport Info (Airnav.com)

Oshkosh Departure Monitor (Rwy 18/36): 118.900
Oshkosh Departure Monitor (Rwy 9/27): 128.750

KOSH Fisk VFR Approach #1
Oshkosh, Wisconsin, United States

Feed Status: DOWN
Offline since: 2019-08-10 20:03:40 UTC

KOSH 040053Z 00000KT 10SM CLR 27/15 A2974 RMK AO2 SLP057 T02670150

KOSH Airport Info (Airnav.com)

Oshkosh Approach (Fisk): 120.700

KOSH Fisk VFR Approach #2
Oshkosh, Wisconsin, United States

Feed Status: DOWN
Offline since: 2019-08-10 20:04:39 UTC

KOSH 040053Z 00000KT 10SM CLR 27/15 A2974 RMK AO2 SLP057 T02670150

KOSH Airport Info (Airnav.com)

Oshkosh Approach (Fisk): 120.700

KOSH Gnd/Twr/App #1
Oshkosh, Wisconsin, United States

Feed Status: DOWN
Offline since: 2020-02-05 08:52:42 UTC

KOSH 040053Z 00000KT 10SM CLR 27/15 A2974 RMK AO2 SLP057 T02670150

KOSH Airport Info (Airnav.com)

Emergency (Guard): 121.500
Flight Watch: 122.200
Green Bay Radio: 122.250
Green Bay Radio: 122.500
KFLD Fond du Lac CTAF/UNICOM: 123.050
Milwaukee Approach (Oshkosh): 127.000
Oshkosh Ground: 132.300
Oshkosh Tower: 118.500
Oshkosh UNICOM: 122.950

KOSH Gnd/Twr/App #2 (Archives)
Oshkosh, Wisconsin, United States

Feed Status: UP
Listen in your browser - HTML5 player(in browser, HTML5)
Click here to listen with your own player(launches your MP3 player)

KOSH 040053Z 00000KT 10SM CLR 27/15 A2974 RMK AO2 SLP057 T02670150

KOSH Airport Info (Airnav.com)

KOSH Flight Activity (Flightaware)

Listeners: 0 out of 914 total

Milwaukee Approach (Oshkosh): 127.000
Oshkosh Ground: 132.300
Oshkosh Tower: 118.500

KOSH North Tower (Rwy 9/27)
Oshkosh, Wisconsin, United States

Feed Status: DOWN
Offline since: 2019-08-10 20:03:40 UTC

KOSH 040053Z 00000KT 10SM CLR 27/15 A2974 RMK AO2 SLP057 T02670150

KOSH Airport Info (Airnav.com)

Oshkosh Tower (North): 118.500

KOSH South Tower (Rwy 18/36)
Oshkosh, Wisconsin, United States

Feed Status: DOWN
Offline since: 2019-08-10 20:03:40 UTC

KOSH 040053Z 00000KT 10SM CLR 27/15 A2974 RMK AO2 SLP057 T02670150

KOSH Airport Info (Airnav.com)

Oshkosh Tower (South): 126.600

KOSH Tower (North+South)
Oshkosh, Wisconsin, United States

Feed Status: DOWN
Offline since: 2019-08-10 20:03:40 UTC

KOSH 040053Z 00000KT 10SM CLR 27/15 A2974 RMK AO2 SLP057 T02670150

KOSH Airport Info (Airnav.com)

KOSH Tower (North): 118.500
KOSH Tower (South): 126.600

Milwaukee App (OSH)
Oshkosh, Wisconsin, United States

Feed Status: DOWN
Offline since: 2019-08-10 20:03:40 UTC

KOSH 040053Z 00000KT 10SM CLR 27/15 A2974 RMK AO2 SLP057 T02670150

KOSH Airport Info (Airnav.com)

Milwaukee Approach (Oshkosh IFR Arrivals): 127.000

KOSU Ground/Tower (Archives)
Columbus, Ohio, United States

Feed Status: UP
Listen in your browser - HTML5 player(in browser, HTML5)
Click here to listen with your own player(launches your MP3 player)

KOSU 040053Z 24003KT 10SM SCT070 27/14 A2982 RMK AO2 SLP089 T02720144

KOSU Airport Info (Airnav.com)

KOSU Flight Activity (Flightaware)

Listeners: 0 out of 914 total

State Ground: 121.700
State Tower: 118.800

KOTH ATIS/AWOS (Archives)
North Bend, Oregon, United States

Feed Status: UP
Listen in your browser - HTML5 player(in browser, HTML5)
Click here to listen with your own player(launches your MP3 player)

KOTH 040056Z 35021G26KT 10SM CLR 15/10 A3015 RMK AO2 PK WND 36033/2358 SLP208 T01500100

KOTH Airport Info (Airnav.com)

KOTH Flight Activity (Flightaware)

Listeners: 0 out of 914 total

North Bend ATIS/AWOS: 135.075

KOTH Gnd/Twr (Archives)
North Bend, Oregon, United States

Feed Status: UP
Listen in your browser - HTML5 player(in browser, HTML5)
Click here to listen with your own player(launches your MP3 player)

KOTH 040056Z 35021G26KT 10SM CLR 15/10 A3015 RMK AO2 PK WND 36033/2358 SLP208 T01500100

KOTH Airport Info (Airnav.com)

KOTH Flight Activity (Flightaware)

Listeners: 0 out of 914 total

North Bend Ground: 127.100
North Bend Tower/CTAF: 118.450

KOTH Ground (Archives)
North Bend, Oregon, United States

Feed Status: UP
Listen in your browser - HTML5 player(in browser, HTML5)
Click here to listen with your own player(launches your MP3 player)

KOTH 040056Z 35021G26KT 10SM CLR 15/10 A3015 RMK AO2 PK WND 36033/2358 SLP208 T01500100

KOTH Airport Info (Airnav.com)

KOTH Flight Activity (Flightaware)

Listeners: 0 out of 914 total

North Bend Ground: 127.100

KOTH Tower/CTAF (Archives)
North Bend, Oregon, United States

Feed Status: UP
Listen in your browser - HTML5 player(in browser, HTML5)
Click here to listen with your own player(launches your MP3 player)

KOTH 040056Z 35021G26KT 10SM CLR 15/10 A3015 RMK AO2 PK WND 36033/2358 SLP208 T01500100

KOTH Airport Info (Airnav.com)

KOTH Flight Activity (Flightaware)

Listeners: 0 out of 914 total

North Bend Tower/CTAF: 118.450

KOTM Del/Twr/App/Center (Archives)
Ottumwa, Iowa, United States

Feed Status: UP
Listen in your browser - HTML5 player(in browser, HTML5)
Click here to listen with your own player(launches your MP3 player)

KOTM 040053Z AUTO 28004KT 10SM CLR 27/22 A2973 RMK AO2 SLP061 T02670222

KOTM Airport Info (Airnav.com)

KOTM Flight Activity (Flightaware)

Listeners: 1 out of 914 total

Cedar Rapids Approach: 134.050
Cedar Rapids Approach: 119.700
Cedar Rapids Clearance Delivery: 125.450
Cedar Rapids Tower: 118.700
Cedar Rapids UNICOM: 122.950
Chicago Center: 118.150
Chicago Center (Sector 55 Burlington Low): 135.600
Chicago Center (Sector 56 Ottumwa Low SFC to FL230): 132.800
Chicago Center (Sector 74 FARMM Low): 133.350
Chicago Center (Sector 91 Hanna City Super Hi): 134.325
Des Moines Approach: 135.200
Des Moines Approach: 123.900
Des Moines Approach: 118.600
Des Moines Tower: 118.300
Emergency/Guard: 121.500
Kansas City Center: 132.600
KIRK Kirksville, MO CTAF: 122.800
Minneapolis Center: 118.825
Minneapolis Center (Sector 27 Low): 125.650
Minneapolis Center (Sector 30 High): 135.775
Ottumwa CTAF/UNICOM: 123.000

KOWD Ground/Tower (Archives)
Norwood, Massachusetts, United States

Feed Status: UP
Listen in your browser - HTML5 player(in browser, HTML5)
Click here to listen with your own player(launches your MP3 player)

KOWD 040053Z 26003KT 7SM CLR 24/16 A2957 RMK AO2 SLP014 T02390156

KOWD Airport Info (Airnav.com)

KOWD Flight Activity (Flightaware)

Listeners: 0 out of 914 total

Norwood Ground: 121.800
Norwood Tower: 126.000

KOXC Ground/Tower (Archives)
Oxford, Connecticut, United States

Feed Status: UP
Listen in your browser - HTML5 player(in browser, HTML5)
Click here to listen with your own player(launches your MP3 player)

KOXC 040051Z AUTO 27008G15KT 10SM TSRA FEW038 BKN070 OVC100 21/19 A2969 RMK AO2 LTG DSNT SW TSB2355E23B27RAB35 SLP061 TS NW MOV E LTC IC NW T02060189 PNO $

KOXC Airport Info (Airnav.com)

KOXC Flight Activity (Flightaware)

Listeners: 0 out of 914 total

Oxford Ground: 121.650
Oxford Tower: 118.475

KPAE Gnd/Twr/App (Archives)
Everett, Washington, United States

Feed Status: UP
Listen in your browser - HTML5 player(in browser, HTML5)
Click here to listen with your own player(launches your MP3 player)

KPAE 040053Z 34005KT 10SM BKN080 16/07 A3014 RMK AO2 SLP206 T01560072

KPAE Airport Info (Airnav.com)

KPAE Flight Activity (Flightaware)

Listeners: 1 out of 914 total

Paine Ground: 121.800
Paine Tower: 120.200
Paine Tower: 132.950
Seattle Approach: 128.500

KPAO ATIS (Archives)
Palo Alto, California, United States

Feed Status: UP
Listen in your browser - HTML5 player(in browser, HTML5)
Click here to listen with your own player(launches your MP3 player)

KPAO 032247Z 33014KT 10SM FEW050 31/14 A2990 RMK LAST

KPAO Airport Info (Airnav.com)

KPAO Flight Activity (Flightaware)

Listeners: 0 out of 914 total

Palo Alto ATIS: 135.275

KPAO Ground (Archives)
Palo Alto, California, United States

Feed Status: UP
Listen in your browser - HTML5 player(in browser, HTML5)
Click here to listen with your own player(launches your MP3 player)

KPAO 032247Z 33014KT 10SM FEW050 31/14 A2990 RMK LAST

KPAO Airport Info (Airnav.com)

KPAO Flight Activity (Flightaware)

Listeners: 0 out of 914 total

Palo Alto Ground: 125.000

KPAO Tower (Archives)
Palo Alto, California, United States

Feed Status: UP
Listen in your browser - HTML5 player(in browser, HTML5)
Click here to listen with your own player(launches your MP3 player)

KPAO 032247Z 33014KT 10SM FEW050 31/14 A2990 RMK LAST

KPAO Airport Info (Airnav.com)

KPAO Flight Activity (Flightaware)

Listeners: 1 out of 914 total

Palo Alto Tower: 118.600

KPCW CTAF/App (Archives)
Port Clinton, Ohio, United States

Feed Status: UP
Listen in your browser - HTML5 player(in browser, HTML5)
Click here to listen with your own player(launches your MP3 player)

KPCW 040055Z AUTO 33004KT 10SM CLR 23/15 A2977 RMK AO2

KPCW Airport Info (Airnav.com)

KPCW Flight Activity (Flightaware)

Listeners: 0 out of 914 total

Cleveland Approach: 126.350
Port Clinton CTAF: 122.800

KPCW CTAF/App (Archives)
Port Clinton, Ohio, United States

Feed Status: UP
Listen in your browser - HTML5 player(in browser, HTML5)
Click here to listen with your own player(launches your MP3 player)

KPCW 040055Z AUTO 33004KT 10SM CLR 23/15 A2977 RMK AO2

KPCW Airport Info (Airnav.com)

KPCW Flight Activity (Flightaware)

Listeners: 0 out of 914 total

Cleveland Approach: 126.350
Port Clinton CTAF: 122.800

KPDK Emergency/Guard (Archives)
Atlanta, Georgia, United States

Feed Status: UP
Listen in your browser - HTML5 player(in browser, HTML5)
Click here to listen with your own player(launches your MP3 player)

KPDK 040053Z 16004KT 10SM CLR 26/19 A2995 RMK AO2 SLP126 T02560194

KPDK Airport Info (Airnav.com)

KPDK Flight Activity (Flightaware)

Listeners: 0 out of 914 total

Emergency/Guard: 121.500

KPDK Ground (Archives)
Atlanta, Georgia, United States

Feed Status: UP
Listen in your browser - HTML5 player(in browser, HTML5)
Click here to listen with your own player(launches your MP3 player)

KPDK 040053Z 16004KT 10SM CLR 26/19 A2995 RMK AO2 SLP126 T02560194

KPDK Airport Info (Airnav.com)

KPDK Flight Activity (Flightaware)

Listeners: 0 out of 914 total

Peachtree Ground: 121.600

KPDK Tower #1 (Archives)
Atlanta, Georgia, United States

Feed Status: UP
Listen in your browser - HTML5 player(in browser, HTML5)
Click here to listen with your own player(launches your MP3 player)

KPDK 040053Z 16004KT 10SM CLR 26/19 A2995 RMK AO2 SLP126 T02560194

KPDK Airport Info (Airnav.com)

KPDK Flight Activity (Flightaware)

Listeners: 1 out of 914 total

Peachtree Tower: 120.900

KPDK Tower #2
Atlanta, Georgia, United States

Feed Status: DOWN
Offline since: 2020-04-02 18:26:06 UTC

KPDK 040053Z 16004KT 10SM CLR 26/19 A2995 RMK AO2 SLP126 T02560194

KPDK Airport Info (Airnav.com)

Peachtree Tower: 120.900

KPDT Gnd/Twr/App (Archives)
Pendleton, Oregon, United States

Feed Status: UP
Listen in your browser - HTML5 player(in browser, HTML5)
Click here to listen with your own player(launches your MP3 player)

KPDT 040053Z 31010KT 10SM CLR 25/03 A2995 RMK AO2 SLP130 T02500028

KPDT Airport Info (Airnav.com)

KPDT Flight Activity (Flightaware)

Listeners: 0 out of 914 total

Chinook Approach/Departure: 133.150
Pendleton Ground: 121.900
Pendleton Tower: 119.700

KPEO CTAF (Archives)
Penn Yan, New York, United States

Feed Status: UP
Listen in your browser - HTML5 player(in browser, HTML5)
Click here to listen with your own player(launches your MP3 player)

KPEO 040053Z AUTO 26004KT 10SM SCT110 21/17 A2969 RMK AO2 SLP049 T02110172

KPEO Airport Info (Airnav.com)

KPEO Flight Activity (Flightaware)

Listeners: 0 out of 914 total

Penn Yan CTAF: 123.000

KPGD ATIS (Archives)
Punta Gorda, Florida, United States

Feed Status: UP
Listen in your browser - HTML5 player(in browser, HTML5)
Click here to listen with your own player(launches your MP3 player)

KPGD 040053Z AUTO 00000KT 10SM -RA SCT120 23/22 A3000 RMK AO2 SLP159 P0002 T02280222

KPGD Airport Info (Airnav.com)

KPGD Flight Activity (Flightaware)

Listeners: 0 out of 914 total

Punta Gorda ATIS: 135.675

KPGD Ground (Archives)
Punta Gorda, Florida, United States

Feed Status: UP
Listen in your browser - HTML5 player(in browser, HTML5)
Click here to listen with your own player(launches your MP3 player)

KPGD 040053Z AUTO 00000KT 10SM -RA SCT120 23/22 A3000 RMK AO2 SLP159 P0002 T02280222

KPGD Airport Info (Airnav.com)

KPGD Flight Activity (Flightaware)

Listeners: 0 out of 914 total

Punta Gorda Ground: 119.550

KPGD Tower (Archives)
Punta Gorda, Florida, United States

Feed Status: UP
Listen in your browser - HTML5 player(in browser, HTML5)
Click here to listen with your own player(launches your MP3 player)

KPGD 040053Z AUTO 00000KT 10SM -RA SCT120 23/22 A3000 RMK AO2 SLP159 P0002 T02280222

KPGD Airport Info (Airnav.com)

KPGD Flight Activity (Flightaware)

Listeners: 0 out of 914 total